[[{"header":{"parameterUnit":"m.s-1","parameterCategory":1,"la1":31.0,"la2":29.5877,"lo1":-88.7671,"lo2":-86.6584,"dy":0.0162,"dx":0.0185,"nx":115,"ny":88,"refTime":"2023-09-20T18:00:00:Z","depth":0,"parameterNumber":2,"parameterNumberName":"U-component_of_WINDS"},"data":[0.0,0.0,0.0,0.0,0.0,0.0,0.0,0.0,0.0,0.0,0.0,0.0,0.0,0.0,0.0,0.0,0.0,0.0,0.0,0.0,0.0,0.0,0.0,0.0,0.0,0.0,0.0,0.0,0.0,0.0,0.0,0.0,0.0,0.0,0.0,0.0,0.0,0.0,0.0,0.0,0.0,0.0,0.0,0.0,0.0,0.0,0.0,0.0,0.0,0.0,0.0,0.0,0.0,0.0,0.0,0.0,0.0,0.0,0.0,0.0,0.0,0.0,0.0,0.0,0.0,0.0,0.0,0.0,0.0,0.0,0.0,0.0,0.0,0.0,0.0,0.0,0.0,0.0,0.0,0.0,0.0,0.0,0.0,0.0,0.0,0.0,0.0,0.0,0.0,0.0,0.0,0.0,0.0,0.0,0.0,0.0,0.0,0.0,0.0,0.0,0.0,0.0,0.0,0.0,0.0,0.0,0.0,0.0,0.0,0.0,0.0,0.0,0.0,0.0,0.0,0.0,0.0,0.0,0.0,0.0,0.0,0.0,0.0,0.0,0.0,0.0,0.0,0.0,0.0,0.0,0.0,0.0,0.0,0.0,0.0,0.0,0.0,0.0,0.0,0.0,0.0,0.0,0.0,0.0,0.0,0.0,0.0,0.0,0.0,0.0,0.0,0.0,0.0,0.0,0.0,0.0,0.0,0.0,0.0,0.0,0.0,0.0,0.0,0.0,0.0,0.0,0.0,0.0,0.0,0.0,0.0,0.0,0.0,0.0,0.0,0.0,0.0,0.0,0.0,0.0,0.0,0.0,0.0,0.0,0.0,0.0,0.0,0.0,0.0,0.0,0.0,0.0,0.0,0.0,0.0,0.0,0.0,0.0,0.0,0.0,0.0,0.0,0.0,0.0,0.0,0.0,0.0,0.0,0.0,0.0,0.0,0.0,0.0,0.0,0.0,0.0,0.0,0.0,0.0,0.0,0.0,0.0,0.0,0.0,0.0,0.0,0.0,0.0,0.0,0.0,0.0,0.0,0.0,0.0,0.0,0.0,0.0,0.0,0.0,0.0,0.0,0.0,0.0,0.0,0.0,0.0,0.0,0.0,0.0,0.0,0.0,0.0,0.0,0.0,0.0,0.0,0.0,0.0,0.0,0.0,0.0,0.0,0.0,0.0,0.0,0.0,0.0,0.0,0.0,0.0,0.0,0.0,0.0,0.0,0.0,0.0,0.0,0.0,0.0,0.0,0.0,0.0,0.0,0.0,0.0,0.0,0.0,0.0,0.0,0.0,0.0,0.0,0.0,0.0,0.0,0.0,0.0,0.0,0.0,0.0,0.0,0.0,0.0,0.0,0.0,0.0,0.0,0.0,0.0,0.0,0.0,0.0,0.0,0.0,0.0,0.0,0.0,0.0,0.0,0.0,0.0,0.0,0.0,0.0,0.0,0.0,0.0,0.0,0.0,0.0,0.0,0.0,0.0,0.0,0.0,0.0,0.0,0.0,0.0,0.0,0.0,0.0,0.0,0.0,0.0,0.0,0.0,0.0,0.0,0.0,0.0,0.0,0.0,0.0,0.0,0.0,0.0,0.0,0.0,0.0,0.0,0.0,0.0,0.0,0.0,0.0,0.0,0.0,0.0,0.0,0.0,0.0,0.0,0.0,0.0,0.0,0.0,0.0,0.0,0.0,0.0,0.0,0.0,0.0,0.0,0.0,0.0,0.0,0.0,0.0,0.0,0.0,0.0,0.0,0.0,0.0,0.0,0.0,0.0,0.0,0.0,0.0,0.0,0.0,0.0,0.0,0.0,0.0,0.0,0.0,0.0,0.0,0.0,0.0,0.0,0.0,0.0,0.0,0.0,0.0,0.0,0.0,0.0,0.0,0.0,0.0,0.0,0.0,0.0,0.0,0.0,0.0,0.0,0.0,0.0,0.0,0.0,0.0,0.0,0.0,0.0,0.0,0.0,0.0,0.0,0.0,0.0,0.0,0.0,0.0,0.0,0.0,0.0,0.0,0.0,0.0,0.0,0.0,0.0,0.0,0.0,0.0,0.0,0.0,0.0,0.0,0.0,0.0,0.0,0.0,0.0,0.0,0.0,0.0,0.0,0.0,0.0,0.0,0.0,0.0,0.0,0.0,0.0,0.0,0.0,0.0,0.0,0.0,0.0,0.0,0.0,0.0,0.0,0.0,0.0,0.0,0.0,0.0,0.0,0.0,0.0,0.0,0.0,0.0,0.0,0.0,0.0,0.0,0.0,0.0,0.0,0.0,0.0,0.0,0.0,0.0,0.0,0.0,0.0,0.0,0.0,0.0,0.0,0.0,0.0,0.0,0.0,0.0,0.0,0.0,0.0,0.0,0.0,0.0,0.0,0.0,0.0,0.0,0.0,0.0,0.0,0.0,0.0,0.0,0.0,0.0,0.0,0.0,0.0,0.0,0.0,0.0,0.0,0.0,0.0,0.0,0.0,0.0,0.0,0.0,0.0,0.0,0.0,0.0,0.0,0.0,0.0,0.0,0.0,0.0,0.0,0.0,0.0,0.0,0.0,0.0,0.0,0.0,0.0,0.0,0.0,0.0,0.0,0.0,0.0,0.0,0.0,0.0,0.0,0.0,0.0,0.0,0.0,0.0,0.0,0.0,0.0,0.0,0.0,0.0,0.0,0.0,0.0,0.0,0.0,0.0,0.0,0.0,0.0,0.0,0.0,0.0,0.0,0.0,0.0,0.0,0.0,0.0,0.0,0.0,0.0,0.0,0.0,0.0,0.0,0.0,0.0,0.0,0.0,0.0,0.0,0.0,0.0,0.0,0.0,0.0,0.0,0.0,0.0,0.0,0.0,0.0,0.0,0.0,0.0,0.0,0.0,0.0,0.0,0.0,0.0,0.0,0.0,0.0,0.0,0.0,0.0,0.0,0.0,0.0,0.0,0.0,0.0,0.0,0.0,0.0,0.0,0.0,0.0,0.0,0.0,0.0,0.0,0.0,0.0,0.0,0.0,0.0,0.0,0.0,0.0,0.0,0.0,0.0,0.0,0.0,0.0,0.0,0.0,0.0,0.0,0.0,0.0,0.0,0.0,0.0,0.0,0.0,0.0,0.0,0.0,0.0,0.0,0.0,0.0,0.0,0.0,0.0,0.0,0.0,0.0,0.0,0.0,0.0,0.0,0.0,0.0,0.0,0.0,0.0,0.0,0.0,0.0,0.0,0.0,0.0,0.0,0.0,0.0,0.0,0.0,0.0,0.0,0.0,0.0,0.0,0.0,0.0,0.0,0.0,0.0,0.0,0.0,0.0,0.0,0.0,0.0,0.0,0.0,0.0,0.0,0.0,0.0,0.0,0.0,0.0,0.0,0.0,0.0,0.0,0.0,0.0,0.0,0.0,0.0,0.0,0.0,0.0,0.0,0.0,0.0,0.0,0.0,0.0,0.0,0.0,0.0,0.0,0.0,0.0,0.0,0.0,0.0,0.0,0.0,0.0,0.0,0.0,0.0,0.0,0.0,0.0,0.0,0.0,0.0,0.0,0.0,0.0,0.0,0.0,0.0,0.0,0.0,0.0,0.0,0.0,0.0,0.0,0.0,0.0,0.0,0.0,0.0,0.0,0.0,0.0,0.0,0.0,0.0,0.0,0.0,0.0,0.0,0.0,0.0,0.0,0.0,0.0,0.0,0.0,0.0,0.0,0.0,0.0,0.0,0.0,0.0,0.0,0.0,0.0,0.0,0.0,0.0,0.0,0.0,0.0,0.0,0.0,0.0,0.0,0.0,0.0,0.0,0.0,0.0,0.0,0.0,0.0,0.0,0.0,0.0,0.0,0.0,0.0,0.0,0.0,0.0,0.0,0.0,0.0,0.0,0.0,0.0,0.0,0.0,0.0,0.0,0.0,0.0,0.0,0.0,0.0,0.0,0.0,0.0,0.0,0.0,0.0,0.0,0.0,0.0,0.0,0.0,0.0,0.0,0.0,0.0,0.0,0.0,0.0,0.0,0.0,0.0,0.0,0.0,0.0,0.0,0.0,0.0,0.0,0.0,0.0,0.0,0.0,0.0,0.0,0.0,0.0,0.0,0.0,0.0,0.0,0.0,0.0,0.0,0.0,0.0,0.0,0.0,0.0,0.0,0.0,0.0,0.0,0.0,0.0,0.0,0.0,0.0,0.0,0.0,0.0,0.0,0.0,0.0,0.0,0.0,0.0,0.0,0.0,0.0,0.0,0.0,0.0,0.0,0.0,0.0,0.0,0.0,0.0,0.0,0.0,0.0,0.0,0.0,0.0,0.3902,0.0,0.0,0.0,0.0,0.0,0.0,0.0,0.0,0.0,0.0,0.0,0.0,0.0,0.0,0.0,0.0,0.0,0.0,0.0,0.0,0.0,0.0,0.0,0.0,0.0,0.0,0.0,0.0,0.0,0.0,0.0,0.0,0.0,0.0,0.0,0.0,0.0,0.0,0.0,0.0,0.0,0.0,0.0,0.0,0.0,0.0,0.0,0.0,0.0,0.0,0.0,0.0,0.0,0.0,0.0,0.0,0.0,0.0,0.0,0.0,0.0,0.0,0.0,0.0,0.0,0.0,0.0,0.0,0.0,0.0,0.0,0.0,0.0,0.0,0.0,0.0,0.0,0.0,0.0,0.0,0.0,0.0,0.0,0.0,0.0,0.0,0.0,0.0,0.0,0.0,0.0,0.0,0.0,0.0,0.0,0.0,0.0,0.0,0.0,0.0,0.0,0.0,0.0,0.0,0.0,0.0,0.0,0.0,0.0,0.0,0.4876,0.481,0.4788,0.4746,0.4612,0.0,0.0,0.0,0.0,0.0,0.0,0.0,0.0,0.0,0.0,0.0,0.0,0.0,0.0,0.0,0.0,0.0,0.0,0.0,0.0,0.0,0.0,0.0,0.0,0.0,0.0,0.0,0.0,0.0,0.0,0.0,0.0,0.0,0.0,0.0,0.0,0.0,0.0,0.0,0.0,0.0,0.0,0.0,0.0,0.0,0.0,0.0,0.0,0.0,0.0,0.0,0.0,0.0,0.0,0.0,0.0,0.0,0.0,0.0,0.0,0.0,0.0,0.0,0.0,0.0,0.0,0.0,0.0,0.0,0.0,0.0,0.0,0.0,0.0,0.0,0.0,0.0,0.0,0.0,0.0,0.0,0.0,0.0,0.0,0.0,0.0,0.0,0.0,0.0,0.0,0.0,0.0,0.0,0.0,0.0,0.0,0.0,0.0,0.0,0.0,0.0,0.0,0.0,0.0,0.0,0.0,0.0,0.0,0.0,0.0,0.0,0.0,0.5339,0.5247,0.5136,0.0,0.0,0.0,0.0,0.0,0.0,0.0,0.0,0.0,0.0,0.0,0.0,0.0,0.0,0.0,0.0,0.0,0.0,0.0,0.0,0.0,0.0,0.0,0.0,0.0,0.0,0.0,0.0,0.0,0.0,0.0,0.0,0.0,0.0,0.0,0.0,0.0,0.0,0.0,0.0,0.0,0.0,0.0,0.0,0.0,0.0,0.0,0.0,0.0,0.0,0.0,0.0,0.0,0.0,0.0,0.0,0.0,0.0,0.0,0.0,0.0,0.0,0.0,0.0,0.0,0.0,0.0,0.0,0.0,0.0,0.0,0.0,0.0,0.0,0.0,0.0,0.0,0.0,0.0,0.0,0.0,0.0,0.0,0.0,0.0,0.0,0.0,0.0,0.0,0.0,0.0,0.0,0.0,0.0,0.0,0.0,0.0,0.0,0.0,0.0,0.0,0.0,0.0,0.0,0.0,0.0,0.0,0.0,0.0,0.0,0.5475,0.5398,0.5348,0.0,0.5039,0.0,0.0,0.0,0.0,0.0,0.0,0.0,0.0,0.0,0.0,0.0,0.0,0.0,0.0,0.0,0.0,0.0,0.0,0.0,0.0,0.0,0.0,0.0,0.0,0.0,0.0,0.0,0.0,0.0,0.0,0.0,0.0,0.0,0.0,0.0,0.0,0.0,0.0,0.0,0.0,0.0,0.0,0.0,0.0,0.0,0.0,0.0,0.0,0.0,0.0,0.0,0.0,0.0,0.0,0.0,0.0,0.0,0.0,0.0,0.0,0.0,0.0,0.0,0.0,0.0,0.0,0.0,0.0,0.0,0.0,0.0,0.0,0.0,0.0,0.0,0.0,0.0,0.0,0.0,0.0,0.0,0.0,0.0,0.0,0.0,0.0,0.0,0.0,0.0,0.0,0.0,0.0,0.0,0.0,0.0,0.0,0.0,0.0,0.0,0.0,0.0,0.0,0.0,0.0,0.0,0.0,0.0,0.0,0.0,0.0,0.5717,0.5812,0.5933,0.5872,0.0,0.0,0.0,0.0,0.0,0.0,0.0,0.0,0.0,0.0,0.0,0.0,0.0,0.0,0.0,0.0,0.0,0.0,0.0,0.0,0.0,0.0,0.0,0.0,0.0,0.0,0.0,0.0,0.0,0.0,0.0,0.0,0.0,0.0,0.0,0.0,0.0,0.0,0.0,0.0,0.0,0.0,0.0,0.0,0.0,0.0,0.0,0.0,0.0,0.0,0.0,0.0,0.0,0.0,0.0,0.0,0.0,0.0,0.0,0.0,0.0,0.0,0.0,0.0,0.0,0.0,0.0,0.0,0.0,0.0,0.0,0.0,0.0,0.0,0.0,0.0,0.0,0.0,0.0,0.0,0.0,0.0,0.0,0.0,0.0,0.0,0.0,0.0,0.0,0.0,0.0,0.0,0.0,0.0,0.0,0.0,0.0,0.0,0.0,0.0,0.0,0.0,0.0,0.0,0.0,0.0,0.0,0.0,0.0,0.0,0.5828,0.5998,0.6204,0.6406,0.6413,0.6151,0.0,0.0,0.0,0.0,0.0,0.0,0.0,0.0,0.0,0.0,0.0,0.0,0.0,0.0,0.0,0.0,0.0,0.0,0.0,0.0,0.0,0.0,0.0,0.0,0.0,0.0,0.0,0.0,0.0,0.0,0.0,0.0,0.0,0.0,0.0,0.0,0.0,0.0,0.0,0.0,0.0,0.0,0.0,0.0,0.0,0.0,0.0,0.0,0.0,0.0,0.0,0.0,0.0,0.0,0.0,0.0,0.0,0.0,0.0,0.0,0.0,0.0,0.0,0.0,0.0,0.0,0.0,0.0,0.0,0.0,0.0,0.0,0.0,0.0,0.0,0.0,0.0,0.0,0.0,0.0,0.0,0.0,0.0,0.0,0.0,0.0,0.0,0.0,0.0,0.0,0.0,0.0,0.0,0.0,0.0,0.0,0.0,0.0,0.0,0.0,0.0,0.0,0.0,0.0,0.0,0.0,0.0,0.0,0.5803,0.5997,0.6203,0.6475,0.6558,0.6558,0.0,0.0,0.0,0.0,0.0,0.0,0.0,0.0,0.0,0.0,0.0,0.0,0.0,0.0,0.0,0.0,0.0,0.0,0.0,0.0,0.0,0.0,0.0,0.0,0.0,0.0,0.0,0.0,0.0,0.0,0.0,0.0,0.0,0.0,0.0,0.0,0.0,0.0,0.0,0.0,0.0,0.0,0.0,0.0,0.0,0.0,0.0,0.0,0.0,0.0,0.0,0.0,0.0,0.0,0.0,0.0,0.0,0.0,0.0,0.0,0.0,0.0,0.0,0.0,0.0,0.0,0.0,0.0,0.0,0.0,0.0,0.0,0.0,0.0,0.0,0.0,0.0,0.0,0.0,0.0,0.0,0.0,0.0,0.0,0.0,0.0,0.0,0.0,0.0,0.0,0.0,0.0,0.0,0.0,0.0,0.0,0.0,0.0,0.0,0.0,0.0,0.0,0.0,0.0,0.0,0.0,0.0,0.0,0.0,0.5902,0.6351,0.6629,0.6627,0.6972,0.7104,0.0,0.0,0.0,0.0,0.0,0.0,0.0,0.0,0.0,0.0,0.0,0.0,0.0,0.0,0.0,0.0,0.0,0.0,0.0,0.0,0.0,0.0,0.0,0.0,0.0,0.0,0.0,0.0,0.0,0.0,0.0,0.0,0.0,0.0,0.0,0.0,0.0,0.0,0.0,0.0,0.0,0.0,0.0,0.0,0.0,0.0,0.0,0.0,0.0,0.0,0.0,0.0,0.0,0.0,0.0,0.0,0.0,0.0,0.0,0.0,0.0,0.0,0.0,0.0,0.0,0.0,0.0,0.0,0.0,0.0,0.0,0.0,0.0,0.0,0.0,0.0,0.0,0.0,0.0,0.0,0.0,0.0,0.0,0.0,0.0,0.0,0.0,0.0,0.0,0.0,0.0,0.0,0.0,0.0,0.0,0.0,0.0,0.0,0.0,0.0,0.0,0.0,0.0,0.0,0.0,0.0,0.0,0.0,0.0,0.6404,0.0,0.7007,0.7032,0.7379,0.7499,0.0,0.0,0.0,0.0,0.0,0.0,0.0,0.0,0.0,0.0,0.0,0.0,0.0,0.0,0.0,0.0,0.0,0.0,0.0,0.0,0.0,0.0,0.0,0.0,0.0,0.0,0.0,0.0,0.0,0.0,0.0,0.0,0.0,0.0,0.0,0.0,0.0,0.0,0.0,0.0,0.0,0.0,0.0,0.0,0.0,0.0,0.0,0.0,0.0,0.0,0.0,0.0,0.0,0.0,0.0,0.0,0.0,0.0,0.0,0.0,0.0,0.0,0.0,0.0,0.0,0.0,0.0,0.0,0.0,0.0,0.0,0.0,0.0,0.0,0.0,0.0,0.0,0.0,0.0,0.0,0.0,0.0,0.0,0.0,0.0,0.0,0.0,0.0,0.0,0.0,0.0,0.0,0.0,0.0,0.0,0.0,0.0,0.0,0.0,0.0,0.0,0.0,0.0,0.0,0.0,0.0,0.0,0.0,0.7252,0.7384,0.7246,0.7343,0.7669,0.7673,0.768,0.0,0.0,0.0,0.0,0.0,0.0,0.0,0.0,0.0,0.0,0.0,0.0,0.0,0.0,0.0,0.0,0.0,0.0,0.0,0.0,0.0,0.0,0.0,0.0,0.0,0.0,0.0,0.0,0.0,0.0,0.0,0.0,0.0,0.0,0.0,0.0,0.0,0.0,0.0,0.0,0.0,0.0,0.0,0.0,0.0,0.0,0.0,0.0,0.0,0.0,0.0,0.0,0.0,0.0,0.0,0.0,0.0,0.0,0.0,0.0,0.0,0.0,0.0,0.0,0.0,0.0,0.0,0.0,0.0,0.0,0.0,0.0,0.0,0.0,0.0,0.0,0.0,0.0,0.0,0.0,0.0,0.0,0.0,0.0,0.0,0.0,0.0,0.0,0.0,0.0,0.0,0.0,0.0,0.0,0.0,0.0,0.0,0.0,0.0,0.0,0.0,0.0,0.0,0.0,0.0,0.0,0.0,0.0,0.0,0.7734,0.7477,0.7445,0.7676,0.7621,0.76,0.0,0.0,0.0,0.0,0.0,0.0,0.0,0.0,0.0,0.0,0.0,0.0,0.0,0.0,0.0,0.0,0.0,0.0,0.0,0.0,0.0,0.0,0.0,0.0,0.0,0.0,0.0,0.0,0.0,0.0,0.0,0.0,0.0,0.0,0.0,0.0,0.0,0.0,0.0,0.0,0.0,0.0,0.0,0.0,0.0,0.0,0.0,0.0,0.0,0.0,0.0,0.0,0.0,0.0,0.0,0.0,0.0,0.0,0.0,0.0,0.0,0.0,0.0,0.0,0.0,0.0,0.0,0.0,0.0,0.0,0.0,0.0,0.0,0.0,0.0,0.0,0.0,0.0,0.0,0.0,0.0,0.0,0.0,0.0,0.0,0.0,0.0,0.0,0.0,0.0,0.0,0.0,0.0,0.0,0.0,0.0,0.0,0.0,0.0,0.0,0.0,0.0,0.0,0.0,0.0,0.0,0.0,0.0,0.0,0.8424,0.8299,0.8367,0.8653,0.8405,0.8184,0.7966,0.0,0.0,0.0,0.0,0.0,0.0,0.0,0.0,0.0,0.0,0.0,0.0,0.0,0.0,0.0,0.0,0.0,0.0,0.0,0.0,0.0,0.0,0.0,0.0,0.0,0.0,0.0,0.0,0.0,0.0,0.0,0.0,0.0,0.0,0.0,0.0,0.0,0.0,0.0,0.0,0.0,0.0,0.0,0.0,0.0,0.0,0.0,0.0,0.0,0.0,0.0,0.0,0.0,0.0,0.0,0.0,0.0,0.0,0.0,0.0,0.0,0.0,0.0,0.0,0.0,0.0,0.0,0.0,0.0,0.0,0.0,0.0,0.0,0.0,0.0,0.0,0.0,0.0,0.0,0.0,0.0,0.0,0.0,0.0,0.0,0.0,0.0,0.0,0.0,0.0,0.0,0.0,0.0,0.0,0.0,0.0,0.0,0.0,0.0,0.0,0.0,0.0,0.0,0.0,0.0,0.0,0.0,0.0,0.94,0.9609,0.9907,1.0243,0.977,0.921,0.0,0.0,0.0,0.0,0.0,0.0,0.0,0.0,0.0,0.0,0.0,0.0,0.0,0.0,0.0,0.0,0.0,0.0,0.0,0.0,0.0,0.0,0.0,0.0,0.0,0.0,0.0,0.0,0.0,0.0,0.0,0.0,0.0,0.0,0.0,0.0,0.0,0.0,0.0,0.0,0.0,0.0,0.0,0.0,0.0,0.0,0.0,0.0,0.0,0.0,0.0,0.0,0.0,0.0,0.0,0.0,0.0,0.0,0.0,0.0,0.0,0.0,0.0,0.0,0.0,0.0,0.0,0.0,0.0,0.0,0.0,0.0,0.0,0.0,0.0,0.0,0.0,0.0,0.0,0.0,0.0,0.0,0.0,0.0,0.0,0.0,0.0,0.0,0.0,0.0,0.0,0.0,0.0,0.0,0.0,0.0,0.0,0.0,0.0,0.0,0.0,0.0,0.0,0.0,0.0,0.0,0.0,0.0,0.0,1.0553,1.0985,1.0884,1.0164,0.9462,0.8978,0.0,0.0,0.0,0.0,0.0,0.0,0.0,0.0,0.0,0.0,0.0,0.0,0.0,0.0,0.0,0.0,0.0,0.0,0.0,0.0,0.0,0.0,0.0,0.0,0.0,0.0,0.0,0.0,0.0,0.0,0.0,0.0,0.0,0.0,0.0,0.0,0.0,0.0,0.0,0.0,0.0,0.0,0.0,0.0,0.0,0.0,0.0,0.0,0.0,0.0,0.0,0.0,0.0,0.0,0.0,0.0,0.0,0.0,0.0,0.0,0.0,0.0,0.0,0.0,0.0,0.0,0.0,0.0,0.0,0.0,0.0,0.0,0.0,0.0,0.0,0.0,0.0,0.0,0.0,0.0,0.0,0.0,0.0,0.0,0.0,0.0,0.0,0.0,0.0,0.0,0.0,0.0,0.0,0.0,0.0,0.0,0.0,0.0,0.0,0.0,0.0,0.0,0.0,0.0,0.0,0.0,0.0,0.0,1.0743,1.1016,1.202,1.2201,1.1463,1.0254,0.9511,0.0,0.0,0.0,0.0,0.0,0.0,0.0,0.0,0.0,0.0,0.0,0.0,0.0,0.0,0.0,0.0,0.0,0.0,0.0,0.0,0.0,0.0,0.0,0.0,0.0,0.0,0.0,0.0,0.0,0.0,0.0,0.0,0.0,0.0,0.0,0.0,0.0,0.0,0.0,0.0,0.0,0.0,0.0,0.0,0.0,0.0,0.0,0.0,0.0,0.0,0.0,0.0,0.0,0.0,0.0,0.0,0.0,0.0,0.0,0.0,0.0,0.0,0.0,0.0,0.0,0.0,0.0,0.0,0.0,0.0,0.0,0.0,0.0,0.0,0.0,0.0,0.0,0.0,0.0,0.0,0.0,0.0,0.0,0.0,0.0,0.0,0.0,0.0,0.0,0.0,0.0,0.0,0.0,0.0,0.0,0.0,0.0,0.0,0.0,0.0,0.0,0.0,0.0,0.0,0.0,0.0,0.0,0.0,1.1517,1.1314,1.2727,1.3468,1.3345,1.1608,1.0419,0.0,0.0,0.0,0.0,0.0,0.0,0.0,0.0,0.0,0.0,0.0,0.0,0.0,0.0,0.0,0.0,0.0,0.0,0.0,0.0,0.0,0.0,0.0,0.0,0.0,0.0,0.0,0.0,0.0,0.0,0.0,0.0,0.0,0.0,0.0,0.0,0.0,0.0,0.0,0.0,0.0,0.0,0.0,0.0,0.0,0.0,0.0,0.0,0.0,0.0,0.0,0.0,0.0,0.0,0.0,0.0,0.0,0.0,0.0,0.0,0.0,0.0,0.0,0.0,0.0,0.0,0.0,0.0,0.0,0.0,0.0,0.0,0.0,0.0,0.0,0.0,0.0,0.0,0.0,0.0,0.0,0.0,0.0,0.0,0.0,0.0,0.0,0.0,0.0,0.0,0.0,0.0,0.0,0.0,0.0,0.0,0.0,0.0,0.0,0.0,0.0,0.0,0.0,0.0,0.0,0.0,0.0,0.0,1.2248,1.3107,1.3019,1.3309,1.3991,1.2053,1.086,0.0,0.0,0.0,0.0,0.0,0.0,0.0,0.0,0.0,0.0,0.0,0.0,0.0,0.0,0.0,0.0,0.0,0.0,0.0,0.0,0.0,0.0,0.0,0.0,0.0,0.0,0.0,0.0,0.0,0.0,0.0,0.0,0.0,0.0,0.0,0.0,0.0,0.0,0.0,0.0,0.0,0.0,0.0,0.0,0.0,0.0,0.0,0.0,0.2587,0.0,0.0,0.0,0.0,0.0,0.0,0.0,0.0,0.0,0.0,0.0,0.0,0.0,0.0,0.0,0.0,0.0,0.0,0.0,0.0,0.0,0.0,0.0,0.0,0.0,0.0,0.0,0.0,0.0,0.0,0.0,0.0,0.0,0.0,0.0,0.0,0.0,0.0,0.0,0.0,0.0,0.0,0.0,0.0,0.0,0.0,0.0,0.0,0.0,0.0,0.0,0.0,0.0,0.0,0.0,0.0,0.0,0.0,0.0,1.2282,1.3242,1.3456,1.3704,1.3959,1.2724,1.17,0.0,0.0,0.0,0.0,0.0,0.0,0.0,0.0,0.0,0.0,0.0,0.0,0.0,0.0,0.0,0.0,0.0,0.0,0.0,0.0,0.0,0.0,0.0,0.0,0.0,0.0,0.0,0.0,0.0,0.0,0.0,0.0,0.0,0.0,0.0,0.0,0.0,0.0,0.0,0.0,0.0,0.0,0.0,0.0,0.0,0.0,0.0,0.0,0.0,0.0,0.0,0.0,0.0,0.0,0.0,0.0,0.0,0.0,0.0,0.0,0.0,0.0,0.0,0.0,0.0,0.0,0.0,0.0,0.0,0.0,0.0,0.0,0.0,0.0,0.0,0.0,0.0,0.0,0.0,0.0,0.0,0.0,0.0,0.0,0.0,0.0,0.0,0.0,0.0,0.0,0.0,0.0,0.0,0.0,0.0,0.0,0.0,0.0,0.0,0.0,0.0,0.0,0.0,0.0,0.0,0.0,0.0,1.1439,1.2227,1.3192,1.3892,1.4163,1.3974,1.3337,1.242,1.121,0.0,0.0,0.0,0.0,0.0,0.0,0.0,0.0,0.0,0.0,0.0,0.0,0.0,0.0,0.0,0.0,0.0,0.0,0.0,0.0,0.0,0.0,0.0,0.0,0.0,0.0,0.0,0.0,0.0,0.0,0.0,0.0,0.0,0.0,0.0,0.0,0.0,0.0,0.3431,0.346,0.0,0.0,0.0,0.0,0.0,0.0,0.0,0.0,0.3019,0.0,0.0,0.0,0.0,0.0,0.0,0.0,0.0,0.0,0.0,0.0,0.0,0.0,0.0,0.0,0.0,0.0,0.0,0.0,0.0,0.0,0.0,0.0,0.0,0.0,0.0,0.0,0.0,0.0,0.0,0.0,0.0,0.0,0.0,0.0,0.0,0.0,0.0,0.0,0.0,0.0,0.0,0.0,0.0,0.0,0.0,0.0,0.0,0.0,0.0,0.0,0.0,0.0,0.0,0.0,0.0,1.2224,1.2058,1.2932,1.4978,1.4127,1.3992,1.4637,1.334,1.2262,1.1533,0.0,0.0,0.0,0.0,0.0,0.0,0.0,0.0,0.0,0.0,0.0,0.0,0.0,0.0,0.0,0.0,0.0,0.0,0.0,0.0,0.0,0.0,0.0,0.0,0.0,0.0,0.0,0.0,0.0,0.0,0.0,0.0,0.0,0.0,0.0,0.0,0.0,0.0,0.0,0.4426,0.4462,0.0,0.0,0.0,0.0,0.0,0.0,0.0,0.0,0.3096,0.0,0.0,0.0,0.0,0.0,0.0,0.0,0.0,0.0,0.0,0.0,0.0,0.0,0.0,0.0,0.0,0.0,0.0,0.0,0.0,0.0,0.0,0.0,0.0,0.0,0.0,0.0,0.0,0.0,0.0,0.0,0.0,0.0,0.0,0.0,0.0,0.0,0.0,0.0,0.0,0.0,0.0,0.0,0.0,0.0,0.0,0.0,0.0,0.0,0.0,0.0,0.0,0.0,0.0,0.0,1.2519,1.2469,1.3135,1.4544,1.383,1.3655,1.4128,1.3183,1.2375,0.0,0.0,0.0,0.0,0.0,0.0,0.0,0.0,0.0,0.0,0.0,0.0,0.0,0.0,0.0,0.0,0.0,0.0,0.0,0.0,0.0,0.0,0.0,0.0,0.0,0.0,0.0,0.0,0.0,0.0,0.0,0.0,0.0,0.0,0.0,0.0,0.0,0.0,0.0,0.0,0.4934,0.5082,0.6091,0.0,0.0,0.0,0.0,0.0,0.0,0.3737,0.3151,0.0,0.0,0.0,0.0,0.0,0.0,0.0,0.0,0.0,0.0,0.0,0.0,0.0,0.0,0.0,0.0,0.0,0.0,0.0,0.0,0.0,0.0,0.0,0.0,0.0,0.0,0.0,0.0,0.0,0.0,0.0,0.0,0.0,0.0,0.0,0.0,0.0,0.0,0.0,0.0,0.0,0.0,0.0,0.0,0.0,0.0,0.0,0.0,0.0,0.0,0.0,0.0,0.0,0.0,0.0,1.2359,1.257,1.3029,1.3641,1.3406,1.3304,1.3387,1.2773,1.2235,0.0,0.0,0.0,0.0,0.0,0.0,0.0,0.0,0.0,0.0,0.0,0.0,0.0,0.0,0.0,0.0,0.0,0.0,0.0,0.0,0.0,0.0,0.0,0.0,0.0,0.0,0.0,0.0,0.0,0.0,0.0,0.0,0.0,0.0,0.0,0.0,0.0,0.0,0.0,0.0,0.0,0.5605,0.6722,0.5825,0.0,0.0,0.0,0.0,0.4961,0.4136,0.0,0.0,0.0,0.0,0.0,0.0,0.0,0.0,0.0,0.0,0.0,0.0,0.0,0.0,0.0,0.0,0.0,0.0,0.0,0.0,0.0,0.0,0.0,0.0,0.0,0.0,0.0,0.0,0.0,0.0,0.0,0.0,0.0,0.0,0.0,0.0,0.0,0.0,0.0,0.0,0.0,0.0,0.0,0.0,0.0,0.0,0.0,0.0,0.0,0.0,0.0,0.0,0.0,0.0,0.0,0.0,1.162,1.2108,1.2679,1.3306,1.3138,1.3047,1.3053,1.1852,1.1276,0.0,0.0,0.0,0.0,0.0,0.0,0.0,0.0,0.0,0.0,0.0,0.0,0.0,0.0,0.0,0.0,0.0,0.0,0.0,0.0,0.0,0.0,0.0,0.0,0.0,0.0,0.0,0.0,0.0,0.0,0.0,0.0,0.0,0.0,0.0,0.0,0.0,0.0,0.0,0.0,0.0,0.606,0.6796,0.5904,0.5139,0.0,0.0,0.5091,0.5173,0.5046,0.0,0.0,0.0,0.0,0.0,0.0,0.0,0.0,0.0,0.0,0.0,0.0,0.0,0.0,0.0,0.0,0.0,0.0,0.0,0.0,0.0,0.0,0.0,0.0,0.0,0.0,0.0,0.0,0.0,0.0,0.0,0.0,0.0,0.0,0.0,0.0,0.0,0.0,0.0,0.0,0.0,0.0,0.0,0.0,0.0,0.0,0.0,0.0,0.0,0.0,0.0,0.0,0.0,0.0,0.0,1.1207,1.1519,1.2514,1.3185,1.3468,1.3375,1.3436,1.3623,1.2305,1.1633,0.0,0.0,0.0,0.0,0.0,0.0,0.0,0.0,0.0,0.0,0.0,0.0,0.0,0.0,0.0,0.0,0.0,0.0,0.0,0.0,0.0,0.0,0.0,0.0,0.0,0.0,0.0,0.0,0.0,0.0,0.0,0.0,0.0,0.0,0.0,0.0,0.0,0.0,0.0,0.0,0.0,0.0,0.6777,0.6318,0.0,0.0,0.0,0.577,0.5568,0.0,0.0,0.0,0.0,0.0,0.0,0.0,0.0,0.0,0.0,0.0,0.0,0.0,0.0,0.0,0.0,0.0,0.0,0.0,0.0,0.0,0.0,0.0,0.0,0.0,0.0,0.0,0.0,0.0,0.0,0.0,0.0,0.0,0.0,0.0,0.0,0.0,0.0,0.0,0.0,0.0,0.0,0.0,0.0,0.0,0.0,0.0,0.0,0.0,0.0,0.0,0.0,0.0,0.0,0.0,0.0,0.0,1.1525,1.2869,1.361,1.361,1.361,1.3711,1.395,1.2719,0.0,0.0,0.0,0.0,0.0,0.0,0.0,0.0,0.0,0.0,0.0,0.0,0.0,0.0,0.0,0.0,0.0,0.0,0.0,0.0,0.0,0.0,0.0,0.0,0.0,0.0,0.0,0.5877,0.0,0.0,0.0,0.0,0.0,0.0,0.0,0.0,0.0,0.0,0.0,0.0,0.0,0.0,0.6122,0.6873,0.6718,0.6542,0.0,0.0,0.6227,0.6004,0.5979,0.5775,0.0,0.0,0.0,0.0,0.0,0.0,0.0,0.0,0.0,0.0,0.0,0.0,0.0,0.0,0.0,0.0,0.0,0.0,0.0,0.0,0.0,0.0,0.0,0.0,0.0,0.0,0.0,0.0,0.0,0.0,0.0,0.0,0.0,0.0,0.0,0.0,0.0,0.0,0.0,0.0,0.0,0.0,0.0,0.0,0.0,0.0,0.0,0.0,0.0,0.0,0.0,0.0,0.0,0.0,1.1193,1.1533,1.2893,1.3617,1.3618,1.361,1.3609,1.36,1.2759,1.2142,0.0,0.0,0.0,0.0,0.0,0.0,0.0,0.0,0.0,0.0,0.0,0.0,0.0,0.0,0.0,0.0,0.0,0.0,0.0,0.0,0.0,0.0,0.0,0.0,0.0,0.0,0.0,0.0,0.0,0.0,0.0,0.0,0.0,0.0,0.0,0.0,0.0,0.0,0.0,0.0,0.0,0.6823,0.7137,0.7048,0.6983,0.0,0.6629,0.6332,0.643,0.6534,0.6428,0.5831,0.0,0.0,0.0,0.0,0.0,0.0,0.0,0.0,0.0,0.0,0.0,0.0,0.0,0.0,0.0,0.0,0.0,0.0,0.0,0.0,0.0,0.0,0.0,0.0,0.0,0.0,0.0,0.0,0.0,0.0,0.0,0.0,0.0,0.0,0.0,0.0,0.0,0.0,0.0,0.0,0.0,0.0,0.0,0.0,0.0,0.0,0.0,0.0,0.0,0.0,0.0,0.0,0.0,1.2437,1.2207,1.3777,1.4587,1.4595,1.4804,1.4908,1.4897,1.4004,1.3252,0.0,0.0,0.0,0.0,0.0,0.0,0.0,0.0,0.0,0.0,0.0,0.0,0.0,0.0,0.0,0.0,0.0,0.0,0.0,0.0,0.0,0.0,0.0,0.0,0.0,0.0,0.0,0.0,0.7307,0.7175,0.6633,0.0,0.0,0.0,0.0,0.0,0.0,0.0,0.0,0.0,0.0,0.6636,0.723,0.7075,0.0,0.0,0.67,0.6512,0.6386,0.6565,0.6538,0.6069,0.5788,0.0,0.0,0.0,0.0,0.0,0.0,0.0,0.0,0.0,0.0,0.0,0.0,0.0,0.0,0.0,0.0,0.0,0.0,0.0,0.0,0.0,0.0,0.0,0.0,0.0,0.0,0.0,0.0,0.0,0.0,0.0,0.0,0.0,0.0,0.0,0.0,0.0,0.0,0.0,0.0,0.0,0.0,0.0,0.0,0.0,0.0,0.0,0.0,0.0,0.0,0.0,0.0,1.3241,1.2901,1.4516,1.5351,1.534,1.5581,1.5693,1.5677,1.4992,1.4258,0.0,0.0,0.0,0.0,0.0,0.0,0.0,0.0,0.0,0.0,0.0,0.0,0.0,0.0,0.0,0.0,0.0,0.0,0.0,0.0,0.0,0.0,0.0,0.0,0.0,0.0,0.0,0.0,0.7757,0.7685,0.7088,0.0,0.0,0.0,0.0,0.0,0.0,0.0,0.0,0.0,0.0,0.6851,0.7191,0.7022,0.68,0.6752,0.661,0.6465,0.6322,0.6454,0.6467,0.6218,0.0,0.0,0.0,0.0,0.0,0.0,0.0,0.0,0.0,0.0,0.0,0.0,0.0,0.0,0.0,0.0,0.0,0.0,0.0,0.0,0.0,0.0,0.0,0.0,0.0,0.0,0.0,1.2695,0.0,0.0,1.2095,0.0,0.0,0.0,0.0,0.0,0.0,0.0,0.0,0.0,0.0,0.0,0.0,0.0,0.0,0.0,0.0,0.0,0.0,0.0,0.0,0.0,0.0,1.3316,1.3593,1.5003,1.5712,1.5701,1.5693,1.5717,1.5717,1.5489,1.502,1.4266,0.0,0.0,0.0,0.0,0.0,0.0,0.0,0.0,0.0,0.0,0.0,0.0,0.0,0.0,0.0,0.0,0.0,0.0,0.0,0.0,0.0,0.0,0.0,0.0,0.0,0.0,0.6914,0.7259,0.7522,0.0,0.0,0.0,0.0,0.0,0.0,0.0,0.0,0.0,0.6208,0.7118,0.7612,0.7002,0.6903,0.6795,0.6639,0.6343,0.6174,0.6297,0.6303,0.6284,0.0,0.0,0.0,0.0,0.0,0.0,0.0,0.0,0.0,0.0,0.0,0.0,0.0,0.0,0.0,0.0,0.0,0.0,0.0,0.0,0.0,0.0,0.0,0.0,0.0,0.0,0.0,1.3758,1.3749,0.0,0.0,0.0,0.0,0.0,0.0,0.0,0.0,0.0,0.0,0.0,1.4392,1.5007,0.0,0.0,0.0,0.0,0.0,0.0,0.0,0.0,0.0,0.0,0.0,0.0,1.53,1.4723,1.6318,1.6964,1.6401,1.6361,1.6361,1.6361,1.6047,1.5344,1.4256,0.0,0.0,0.0,0.0,0.0,0.0,0.0,0.0,0.0,0.0,0.0,0.0,0.0,0.0,0.0,0.0,0.0,0.0,0.0,0.0,0.0,0.0,0.0,0.0,0.0,0.7685,0.0,0.0,0.0,0.0,0.0,0.0,0.0,0.0,0.0,0.0,0.6712,0.6865,0.6843,0.6765,0.6708,0.67,0.6583,0.654,0.0,0.0,0.0,0.0,0.0,0.0,0.0,0.0,0.0,0.0,0.0,0.0,0.0,0.0,0.5931,0.5709,0.5838,0.5999,0.5996,0.0,0.0,0.0,0.0,0.0,0.0,0.0,0.0,0.0,0.0,0.0,0.0,0.0,0.0,1.4362,1.4067,1.4377,0.0,0.0,0.0,0.0,0.0,0.0,0.0,0.0,1.5131,1.5879,1.6111,1.6702,1.7037,0.0,1.6952,1.6183,0.0,0.0,0.0,0.0,0.0,0.0,0.0,0.0,1.6559,1.5831,1.7224,1.7723,1.7164,1.6861,1.6689,1.6689,1.6314,1.5673,1.4748,1.3951,1.316,0.0,0.0,0.0,0.0,0.0,0.0,0.0,0.0,0.0,0.0,0.0,0.0,0.0,0.0,0.0,0.0,0.0,0.0,0.0,0.0,0.0,0.0,0.0,0.7802,0.0,0.0,0.0,0.0,0.0,0.0,0.0,0.0,0.0,0.6984,0.6935,0.6898,0.6961,0.6653,0.6417,0.6324,0.0,0.0,0.0,0.0,0.0,0.0,0.0,0.5704,0.5723,0.5705,0.5803,0.6062,0.6212,0.628,0.628,0.0,0.0,0.6017,0.6065,0.6199,0.628,0.6042,0.5892,0.6099,0.5988,0.5873,0.0,0.0,0.0,0.0,0.0,0.0,0.0,0.0,1.5143,1.4618,0.0,1.4778,0.0,0.0,0.0,0.0,1.5631,1.6222,0.0,0.0,1.7536,1.8119,1.7495,1.7949,1.8276,1.8429,1.8024,1.8024,1.8408,1.8124,0.0,0.0,0.0,0.0,0.0,0.0,1.7019,1.6868,1.7618,1.7997,1.7896,1.7131,1.6689,1.6677,1.6294,1.5969,1.5662,1.4881,1.4132,1.3382,1.1533,0.0,0.0,0.0,0.0,0.0,0.0,0.0,0.0,0.0,0.0,0.0,0.0,0.0,0.0,0.0,0.0,0.0,0.0,0.0,0.0,0.7584,0.0,0.0,0.0,0.0,0.0,0.0,0.0,0.0,0.0,0.6471,0.6608,0.6917,0.6988,0.6558,0.0,0.0,0.0,0.0,0.6062,0.5518,0.5416,0.543,0.548,0.5493,0.5683,0.6203,0.0,0.0,0.6633,0.6471,0.6308,0.6314,0.6323,0.6309,0.63,0.6097,0.6035,0.6234,0.5927,0.5645,0.5837,0.5806,0.562,1.7605,0.0,0.0,0.0,0.0,1.6057,1.6446,1.7161,1.7159,1.7156,1.7224,1.7508,0.0,0.0,0.0,0.0,0.0,0.0,1.6717,1.6602,1.7895,1.8512,1.8575,1.9266,1.9618,1.9678,1.9648,1.9865,2.0307,2.021,1.9161,1.7112,0.0,0.0,0.0,0.0,1.6785,1.65,1.745,1.7703,1.707,1.6833,1.6553,1.6273,1.617,1.5901,1.5506,1.4676,1.3899,1.3186,1.1567,0.0,0.0,0.0,0.0,0.0,0.0,0.0,0.0,0.0,0.0,0.0,0.0,0.0,0.0,0.0,0.0,0.0,0.0,0.0,0.7766,0.786,0.7704,0.0,0.0,0.0,0.0,0.0,0.0,0.0,0.0,0.0,0.6557,0.6496,0.6434,0.0,0.0,0.5804,0.5559,0.5639,0.5731,0.5745,0.5606,0.0,0.6433,0.596,0.5736,0.6398,0.628,0.6159,0.637,0.6554,0.666,0.6636,0.6727,0.6732,0.6546,0.6374,0.6291,0.633,0.6245,0.6181,0.6221,0.6202,0.6162,1.997,1.9027,1.8155,1.7893,1.8021,1.7817,1.8237,1.9023,1.8891,1.869,1.8462,1.8813,1.8273,1.7104,1.7369,0.0,0.0,0.0,1.767,1.7874,1.8522,1.8969,1.9262,1.9736,1.9902,1.9821,1.989,2.0178,2.0618,2.0339,1.9498,1.8145,0.0,1.7208,1.6684,1.7825,1.8072,1.7457,1.8122,1.8098,1.7225,1.6804,1.6422,1.6108,1.6004,1.5769,1.541,1.4552,1.3909,1.3493,1.1702,1.0397,0.0,0.0,0.0,0.0,0.0,0.0,0.0,0.0,0.0,0.0,0.0,0.6008,0.5586,0.0,0.0,0.0,0.7394,0.7526,0.7567,0.7492,0.0,0.0,0.0,0.0,0.0,0.0,0.0,0.6022,0.6411,0.6668,0.6512,0.6356,0.628,0.6395,0.643,0.6367,0.6065,0.0,0.6883,0.6755,0.6663,0.6812,0.7405,0.7017,0.6747,0.6951,0.6607,0.6371,0.6474,0.6675,0.6798,0.681,0.6782,0.6696,0.6551,0.6394,0.6363,0.6525,0.6412,0.6318,0.6386,0.6338,0.6299,2.1694,2.1499,1.9543,1.9167,1.9818,1.9329,1.9672,2.0511,2.0226,1.9414,1.8312,1.913,1.8687,1.7331,1.7972,0.0,1.8802,1.8751,1.8918,1.9275,1.9238,1.93,1.9441,1.9459,1.9368,1.9138,1.9138,1.9414,1.9855,1.9245,1.9287,2.006,2.0452,2.0101,1.9091,1.9948,1.9984,1.9012,1.9019,1.8647,1.7856,1.6898,1.6278,1.6066,1.5824,1.5596,1.5382,1.4482,1.3985,1.393,1.1852,1.0639,1.0549,0.0,0.0,0.0,0.0,0.0,0.0,0.0,0.0,0.0,0.0,0.0,0.0,0.0,0.0,0.6518,0.6895,0.0,0.7246,0.6779,0.0,0.0,0.0,0.6467,0.6729,0.662,0.6507,0.6443,0.0,0.0,0.6485,0.6404,0.6412,0.6686,0.742,0.768,0.7001,0.7902,0.861,0.7753,0.7947,0.8109,0.8014,0.8049,0.7856,0.7385,0.7073,0.6717,0.6737,0.6746,0.6764,0.6755,0.6561,0.6422,0.6402,0.6242,0.6256,0.6658,0.6419,0.617,0.63,0.6226,0.6117,2.1699,2.1449,2.133,2.0975,2.0403,2.0261,2.0226,2.0194,2.0134,2.0134,2.0227,2.0457,2.0517,2.0512,2.0664,2.0616,2.0418,1.9997,1.9528,1.8984,1.872,1.8456,1.817,1.8463,1.8579,1.8523,1.8625,1.9078,1.9875,1.973,1.9737,1.9945,2.0055,1.944,1.8161,1.8362,1.8082,1.7226,1.7085,1.6865,1.6571,1.6306,1.6059,1.5795,1.5733,1.5596,1.5382,1.3859,1.3042,1.2972,1.1187,1.0012,0.9638,0.8952,0.0,0.0,0.0,0.0,0.0,0.0,0.0,0.0,0.0,0.5934,0.4911,0.0,0.6863,0.0,0.7055,0.7411,0.7553,0.736,0.0,0.0,0.6701,0.6616,0.6447,0.652,0.642,0.6081,0.6401,0.6576,0.6362,0.6499,0.664,0.6768,0.6569,0.6376,0.6194,0.6461,0.669,0.6604,0.6687,0.6802,0.7344,0.7382,0.7207,0.6567,0.6346,0.6296,0.6461,0.6482,0.6482,0.649,0.6542,0.65,0.6343,0.6314,0.6344,0.6462,0.6283,0.611,0.6154,0.6133,0.6116,2.188,2.1722,2.1881,2.1479,2.0764,2.0969,2.0941,2.0767,2.0778,2.0817,2.0872,2.0631,2.0558,2.0576,2.0576,2.0251,1.9667,1.9354,1.8874,1.8263,1.8091,1.7896,1.7706,1.7937,1.8083,1.8168,1.8245,1.8753,1.9584,1.9733,1.9959,2.0358,2.0432,1.9881,1.8732,1.8068,1.738,1.6609,1.6056,1.5886,1.6077,1.5984,1.5797,1.5524,1.5401,1.5069,1.4464,1.3024,1.2082,1.1785,1.0267,0.9349,0.9164,0.869,0.8323,0.0,0.0,0.0,0.0,0.0,0.0,0.0,0.0,0.0,0.0,0.0,0.6923,0.6836,0.7095,0.7288,0.7392,0.723,0.7014,0.6734,0.6724,0.6694,0.6562,0.6642,0.6579,0.6344,0.6601,0.6779,0.664,0.6692,0.6753,0.681,0.6409,0.6251,0.6605,0.7063,0.7359,0.7165,0.7209,0.7422,0.7804,0.7543,0.7205,0.6846,0.6459,0.6263,0.6384,0.6408,0.6408,0.6411,0.6466,0.6465,0.6369,0.6366,0.6334,0.6094,0.5965,0.5985,0.6168,0.6241,0.6217,2.2028,2.2004,2.1686,2.1335,2.0964,2.1372,2.1464,2.1407,2.1407,2.1183,2.0774,2.032,1.9835,1.9408,1.9315,1.8888,1.8168,1.8032,1.782,1.7573,1.7522,1.7592,1.7785,1.78,1.7951,1.8174,1.8157,1.8584,1.9374,1.9556,1.9995,2.067,2.0922,2.0578,1.9661,1.8304,1.7226,1.643,1.5581,1.5444,1.5989,1.57,1.5438,1.521,1.4982,1.4344,1.3272,1.2195,1.129,1.0626,0.9397,0.8814,0.9009,0.8482,0.8198,0.0,0.7414,0.0,0.0,0.0,0.0,0.0,0.0,0.0,0.0,0.6539,0.6888,0.6983,0.7037,0.7029,0.6996,0.6827,0.6734,0.6754,0.6712,0.675,0.6791,0.6774,0.6747,0.675,0.6876,0.6951,0.6894,0.6828,0.6817,0.6725,0.6526,0.657,0.7243,0.8009,0.8399,0.8287,0.8385,0.8089,0.817,0.7791,0.7366,0.7322,0.6816,0.6412,0.6398,0.6401,0.6406,0.6404,0.6398,0.6381,0.6337,0.6259,0.6109,0.5609,0.5475,0.562,0.5969,0.6091,0.6034,2.1686,2.1679,2.1441,2.1311,2.1218,2.1146,2.0853,2.0391,2.038,2.0336,2.0249,2.0151,2.0053,1.9927,1.9491,1.9199,1.9011,1.8148,1.7811,1.7906,1.7625,1.7771,1.8272,1.8375,1.8648,1.9033,1.9071,1.9297,1.9766,1.9832,1.9763,1.9625,1.9977,1.9786,1.9023,0.0,0.0,0.0,1.5543,1.5559,1.5526,1.4992,1.4697,1.4658,1.4599,0.0,1.3087,1.2109,1.1169,1.0242,0.9244,0.0,0.0,0.0,0.0,0.0,0.0,0.0,0.0,0.0,0.0,0.0,0.6797,0.6733,0.6005,0.6429,0.6809,0.6983,0.6872,0.6799,0.6834,0.6906,0.6946,0.695,0.6855,0.6794,0.6794,0.6619,0.6468,0.647,0.6691,0.6758,0.6578,0.6681,0.6692,0.6489,0.6412,0.6468,0.6569,0.6844,0.6914,0.6802,0.6968,0.6883,0.6861,0.6761,0.6711,0.6587,0.6562,0.6412,0.6412,0.6412,0.6387,0.6387,0.6412,0.6237,0.5834,0.5759,0.5584,0.5058,0.4935,0.4985,0.5085,0.511,0.506,2.2291,2.2657,2.2093,2.1754,0.0,2.1432,2.1037,2.0539,2.0539,2.0607,2.0687,2.0559,2.0489,2.0483,2.0212,1.9767,1.9209,1.9238,1.8861,1.8218,1.8368,1.8519,1.8697,1.8749,1.8974,1.9277,1.9277,1.9502,1.9893,2.0127,2.0244,2.0244,2.0674,2.0713,2.0341,1.8947,1.728,1.5336,1.5466,1.5675,1.5884,1.5598,1.5356,1.5196,1.4688,0.0,0.0,0.0,0.0,0.0,0.0,0.0,0.0,0.8794,0.0,0.8681,0.8488,0.8164,0.7748,0.7888,0.7778,0.733,0.7472,0.7225,0.6344,0.677,0.7041,0.6996,0.6956,0.6958,0.6997,0.7076,0.7067,0.6925,0.6854,0.6745,0.6617,0.6489,0.6412,0.6412,0.6539,0.6539,0.6412,0.6262,0.6139,0.6037,0.6012,0.6009,0.6034,0.6237,0.6412,0.6412,0.6412,0.6309,0.6087,0.6259,0.6287,0.6109,0.6209,0.6387,0.6412,0.6412,0.6337,0.6084,0.6012,0.5837,0.5361,0.5211,0.5033,0.4558,0.4408,0.4282,0.4131,0.4433,0.4709,2.3224,2.3769,2.2927,2.2346,2.2,2.181,2.1488,2.1139,2.1034,0.0,0.0,2.1046,2.0975,2.0964,2.0896,2.0349,1.9457,2.0159,1.9821,1.8646,1.9077,1.9243,1.9147,1.9147,1.9287,1.9521,1.9608,1.9814,2.0137,2.0605,2.0977,2.1337,2.1787,2.1885,2.1543,2.0179,1.8245,1.586,1.5629,1.584,1.6367,1.6279,1.606,1.574,1.4804,1.3638,1.2211,1.1095,1.0072,0.9148,0.8716,0.8646,0.8828,0.866,0.8472,0.8342,0.8267,0.8162,0.8006,0.7956,0.7921,0.7922,0.7942,0.7613,0.6908,0.7215,0.7299,0.7006,0.7078,0.711,0.7064,0.6961,0.6811,0.6617,0.6517,0.6339,0.6137,0.6112,0.6062,0.6109,0.6162,0.6212,0.6084,0.5809,0.5559,0.5486,0.5461,0.5459,0.5534,0.6012,0.6412,0.6412,0.6412,0.6212,0.5812,0.5937,0.6037,0.5561,0.5812,0.6112,0.6109,0.6137,0.5937,0.5536,0.5459,0.5233,0.4784,0.4661,0.4483,0.3957,0.3858,0.3731,0.3405,0.3883,0.4309,2.407,2.3622,2.3298,2.2753,2.2063,2.1874,2.1738,2.1653,2.1201,2.103,2.1055,2.1184,2.1239,2.1222,2.0948,2.072,2.0518,1.9655,1.9294,1.9405,1.8994,1.9159,1.9739,1.9768,2.001,2.041,2.0771,2.0947,2.1074,2.1484,2.1759,2.1846,2.2196,2.1732,2.0463,1.9414,1.8301,1.707,1.6521,1.6301,1.6382,1.584,1.5414,1.5126,1.4381,1.3253,1.1773,1.0917,0.9924,0.8762,0.8404,0.8395,0.8702,0.8502,0.8441,0.8678,0.8492,0.8367,0.8312,0.8097,0.7895,0.7665,0.7671,0.7608,0.7488,0.7529,0.7366,0.6893,0.6858,0.6764,0.6539,0.6137,0.5884,0.5762,0.5361,0.506,0.5083,0.5085,0.5085,0.511,0.5436,0.5534,0.5233,0.5361,0.5334,0.5035,0.491,0.4935,0.5108,0.5784,0.6337,0.6412,0.6412,0.6184,0.5634,0.5636,0.5484,0.501,0.501,0.5135,0.516,0.5158,0.5085,0.4933,0.4908,0.4686,0.4234,0.4108,0.3907,0.3482,0.3381,0.3306,0.3205,0.3381,0.3457,2.424,2.3943,2.3379,2.2729,2.2082,2.1892,2.1788,2.1776,2.1559,2.151,2.1597,2.1643,2.1679,2.1679,2.1654,2.1439,2.1114,2.0812,2.0553,2.0291,2.0017,2.0021,2.0254,2.0158,2.0401,2.0898,2.1003,2.1217,2.1591,2.2021,2.1964,2.1497,2.1336,2.0561,1.9299,1.8949,1.8164,1.6951,1.6895,1.6894,1.6879,1.6586,1.6121,1.5459,1.4569,1.3384,1.1828,1.0919,0.9993,0.8957,0.8789,0.8733,0.8735,0.865,0.8571,0.8566,0.8457,0.8357,0.8209,0.7939,0.7668,0.7416,0.7391,0.7191,0.6742,0.6995,0.6995,0.6642,0.6564,0.6539,0.6387,0.5934,0.5584,0.5584,0.5108,0.4809,0.4782,0.4782,0.4782,0.4809,0.501,0.5058,0.4834,0.4759,0.4659,0.4384,0.4358,0.4458,0.4734,0.5183,0.5534,0.5534,0.5534,0.5311,0.486,0.4985,0.491,0.4433,0.4609,0.4759,0.4782,0.4782,0.4684,0.4433,0.4359,0.4133,0.3682,0.3583,0.3432,0.3306,0.3205,0.3205,0.318,0.3079,0.3029,2.4459,2.4246,2.3368,2.2617,2.2025,2.1854,2.1788,2.1788,2.1778,2.1873,2.204,2.2064,2.2087,2.2135,2.2357,2.2138,2.1655,2.1791,2.1501,2.0867,2.0673,2.0547,2.045,2.0371,2.0621,2.105,2.1072,2.1372,2.1853,2.2113,2.1745,2.0848,2.0117,1.9307,1.8334,1.8357,1.7816,1.6777,1.7059,1.7223,1.7138,1.7145,1.6638,1.5585,1.4627,1.3379,1.1823,1.0817,0.9969,0.9261,0.9162,0.8981,0.8726,0.8651,0.8531,0.8329,0.8308,0.8187,0.7939,0.7668,0.7394,0.7141,0.6989,0.6639,0.6042,0.6167,0.6267,0.6062,0.6012,0.6012,0.5912,0.5534,0.5236,0.5211,0.4759,0.441,0.4408,0.4433,0.4433,0.4435,0.4533,0.4583,0.4433,0.4183,0.3982,0.3858,0.3833,0.4008,0.4359,0.4609,0.4782,0.4834,0.4985,0.4885,0.4257,0.4885,0.501,0.4383,0.4782,0.5008,0.4958,0.4782,0.4483,0.4008,0.3758,0.358,0.3204,0.3054,0.3004,0.2953,0.2953,0.2978,0.2978,0.2826,0.2801,2.5215,2.41,2.3342,2.2553,2.1835,2.1807,2.1788,2.1788,2.1788,2.1826,2.1873,2.2199,2.2347,2.2414,2.2728,2.256,2.1989,2.1499,2.104,2.0605,1.999,1.9813,2.0038,2.0399,2.0589,2.078,2.1366,2.1674,2.1745,2.1482,2.0917,1.9994,1.9055,1.8396,1.7994,1.7466,1.709,1.6979,1.7003,1.6925,1.6676,1.6676,1.6079,1.483,1.3992,1.2853,1.1317,1.0478,0.9776,0.9236,0.8981,0.8726,0.8457,0.8212,0.8063,0.8041,0.8038,0.7917,0.7646,0.7391,0.7113,0.6845,0.6392,0.5989,0.5636,0.5236,0.4985,0.496,0.4935,0.5035,0.4937,0.4535,0.4259,0.4284,0.3783,0.3356,0.3432,0.3331,0.333,0.3331,0.3831,0.3882,0.3581,0.3732,0.3783,0.3407,0.3381,0.3407,0.3556,0.4284,0.4784,0.4958,0.5559,0.5511,0.4659,0.5737,0.5909,0.5083,0.5554,0.5704,0.5256,0.4832,0.4508,0.3831,0.3153,0.3002,0.285,0.2649,0.2522,0.2598,0.2573,0.2522,0.2497,0.2472,0.2548,2.5943,2.4581,2.394,2.2942,2.1873,2.1788,2.1788,2.1788,2.1788,2.1788,2.1826,2.2082,2.2289,2.2402,2.244,2.2327,2.2025,2.1079,2.0615,2.0547,2.0148,2.0071,2.0318,2.0594,2.0904,2.1273,2.1537,2.1519,2.1129,2.0005,1.9208,1.8911,1.7893,1.7302,1.7154,1.6887,1.6619,1.6305,1.6454,1.6116,1.5391,1.5527,1.4895,1.3427,1.2799,1.1907,1.0621,1.0015,0.9501,0.9006,0.8705,0.8432,0.8162,0.8066,0.7988,0.7988,0.7842,0.7568,0.7141,0.7017,0.6717,0.6139,0.5889,0.5461,0.4734,0.4435,0.4209,0.3982,0.4435,0.4782,0.4734,0.4307,0.4009,0.3934,0.3533,0.3205,0.3205,0.3205,0.3205,0.323,0.338,0.3481,0.3281,0.3381,0.3432,0.323,0.3205,0.3256,0.3306,0.4108,0.4709,0.501,0.6207,0.6406,0.5108,0.5679,0.6007,0.5434,0.5704,0.6102,0.5902,0.5133,0.4583,0.3981,0.3253,0.275,0.2598,0.2522,0.2422,0.2396,0.2396,0.2422,0.2422,0.2271,0.2247,2.5867,2.4757,2.3805,2.2745,2.175,2.1769,2.1788,2.1788,2.1788,2.1788,2.1826,2.2016,2.2176,2.2252,2.1987,2.1738,2.1442,2.0382,1.993,2.0042,1.9961,2.0094,2.0385,2.0757,2.1143,2.1497,2.1292,2.0793,2.0048,1.8695,1.7886,1.7692,1.6904,1.6447,1.6393,1.6447,1.618,1.5581,1.5683,1.5081,1.3878,1.3842,1.3325,1.212,1.1804,1.1101,0.9846,0.9599,0.9253,0.8705,0.8506,0.8283,0.8013,0.7988,0.7963,0.7892,0.7643,0.7269,0.682,0.6745,0.6364,0.5687,0.5486,0.4985,0.4209,0.3882,0.3607,0.3356,0.3909,0.4309,0.4309,0.4008,0.3808,0.3758,0.3407,0.3205,0.3205,0.3205,0.3205,0.3205,0.323,0.3205,0.3205,0.323,0.3205,0.3205,0.3456,0.3632,0.3857,0.4807,0.5732,0.5732,0.7301,0.74,0.5832,0.6628,0.6575,0.6301,0.67,0.7347,0.6847,0.5879,0.5158,0.483,0.3604,0.2851,0.285,0.2724,0.2196,0.217,0.2197,0.2197,0.2119,0.1996,0.1926,2.4495,2.4091,2.2393,2.1646,2.1531,2.1712,2.1788,2.1788,2.1788,2.1788,2.1826,2.1997,2.2101,2.1995,2.1385,2.0827,2.0265,1.949,1.9021,1.8903,1.9244,1.9552,1.9866,2.0682,2.1099,2.1082,2.066,1.9608,1.8056,1.7754,1.7232,1.6353,1.6272,1.6092,1.595,1.6045,1.5706,1.4878,1.4711,1.386,1.2242,1.1658,1.1434,1.1224,1.1199,1.0542,0.943,0.9236,0.896,0.8432,0.8407,0.8258,0.8038,0.7988,0.7864,0.7618,0.7366,0.7092,0.6792,0.6539,0.6162,0.5609,0.5085,0.4583,0.3957,0.3531,0.3281,0.318,0.3306,0.3381,0.3381,0.3407,0.3306,0.3306,0.3256,0.3205,0.3205,0.3205,0.3205,0.3205,0.3205,0.3205,0.3205,0.3205,0.3256,0.3456,0.4083,0.4659,0.4933,0.6429,0.7375,0.7726,0.8375,0.8772,0.7021,0.7645,0.845,0.8024,0.7875,0.8924,0.7925,0.6977,0.6354,0.5406,0.3704,0.2901,0.3102,0.2774,0.1969,0.1719,0.1774,0.1774,0.1881,0.1722,0.1682,2.4539,2.3396,2.2322,2.1729,2.1531,2.1712,2.1788,2.1788,2.1788,2.1788,2.1807,2.1873,2.1596,2.103,2.0285,2.0041,2.0089,1.9189,1.8851,1.9085,1.971,2.0234,2.0666,2.1231,2.1139,2.0615,2.0369,1.9316,1.7528,1.681,1.6393,1.6241,1.6028,1.595,1.5879,1.5164,1.4513,1.4142,1.3373,1.2334,1.1292,1.0852,1.044,0.9961,0.9912,0.9616,0.8981,0.8779,0.8606,0.8407,0.8258,0.8091,0.7988,0.7842,0.7543,0.7147,0.6992,0.6817,0.6564,0.6112,0.5661,0.511,0.4583,0.4008,0.3404,0.3204,0.313,0.3004,0.3104,0.318,0.3205,0.3205,0.3205,0.3205,0.3205,0.3205,0.3205,0.3205,0.3205,0.3205,0.3205,0.3205,0.3256,0.3205,0.3481,0.4081,0.4433,0.4883,0.5607,0.6877,0.7751,0.7755,0.8482,0.9031,0.8248,0.8747,0.9299,0.8751,0.8623,0.9031,0.8556,0.7602,0.688,0.6304,0.4454,0.2905,0.3058,0.2382,0.1648,0.1526,0.1529,0.1516,0.1672,0.1548,0.1562,2.4077,2.2678,2.2117,2.1676,2.1341,2.1598,2.1712,2.1712,2.1769,2.1645,2.1434,2.1386,2.0915,2.0089,1.9363,1.9237,1.9516,1.8633,1.8473,1.902,1.9639,2.0263,2.0788,2.094,2.0741,2.0226,1.959,1.8442,1.6951,1.6133,1.5927,1.6028,1.5808,1.5642,1.5397,1.437,1.3566,1.2885,1.1994,1.1097,1.0293,1.0076,0.9661,0.9055,0.8935,0.8853,0.8676,0.8503,0.8361,0.8262,0.8017,0.7842,0.7739,0.7568,0.7266,0.6867,0.662,0.6417,0.6137,0.5636,0.511,0.4583,0.4207,0.3655,0.2952,0.3029,0.3054,0.2927,0.3054,0.3205,0.3205,0.3205,0.3205,0.3205,0.3205,0.3205,0.3205,0.3205,0.3205,0.3205,0.3205,0.3331,0.3632,0.3632,0.4131,0.5033,0.5206,0.5657,0.6331,0.7254,0.7928,0.7832,0.8478,0.8903,0.8602,0.8949,0.9331,0.8907,0.8627,0.9031,0.901,0.8106,0.7459,0.6855,0.5614,0.3841,0.2639,0.196,0.161,0.1463,0.1296,0.1205,0.1314,0.1373,0.1357,2.3092,2.2002,2.1638,2.1342,2.1033,2.1329,2.1512,2.154,2.1693,2.1348,2.0741,2.0605,2.0215,1.9335,1.886,1.8592,1.8485,1.7875,1.79,1.8487,1.8951,1.9569,2.0232,1.9909,1.9772,1.984,1.8195,1.6826,1.5896,1.5784,1.5761,1.5737,1.5469,1.4986,1.4346,1.3559,1.2484,1.1287,1.0754,1.0071,0.9023,0.908,0.8985,0.8506,0.8432,0.8407,0.8407,0.8382,0.8262,0.8017,0.7771,0.749,0.7288,0.7213,0.7067,0.6692,0.6267,0.5914,0.5586,0.511,0.4558,0.4158,0.4008,0.3581,0.3002,0.3054,0.3079,0.2876,0.3029,0.3205,0.3205,0.3205,0.3205,0.3205,0.318,0.3155,0.318,0.318,0.318,0.3155,0.3205,0.3657,0.4358,0.4531,0.483,0.5807,0.6431,0.6908,0.7185,0.7982,0.8602,0.8651,0.8676,0.8701,0.8751,0.8829,0.8964,0.9017,0.8857,0.8903,0.8758,0.8134,0.7919,0.7347,0.5951,0.4206,0.2509,0.1843,0.1436,0.1233,0.106,0.0959,0.1016,0.1101,0.1028,2.2753,2.1966,2.1954,2.155,2.0975,2.1186,2.1359,2.1483,2.1559,2.1185,2.0635,2.079,2.0119,1.9032,1.8835,1.8703,1.837,1.8087,1.8282,1.8744,1.9167,1.9499,1.965,1.9552,1.8949,1.7878,1.6504,1.5642,1.541,1.5322,1.5315,1.5196,1.4508,1.4022,1.3661,1.2023,1.0705,1.0243,0.9336,0.8726,0.8506,0.8435,0.8361,0.8382,0.8212,0.8113,0.8137,0.8109,0.7992,0.7743,0.7646,0.7394,0.7042,0.6917,0.6642,0.6062,0.5837,0.5511,0.506,0.456,0.4183,0.3957,0.3682,0.3279,0.2901,0.3029,0.3079,0.2876,0.3029,0.3205,0.3205,0.3205,0.318,0.3205,0.3029,0.2927,0.2901,0.2775,0.2675,0.275,0.3279,0.3883,0.4332,0.4684,0.5659,0.6584,0.6958,0.7157,0.7882,0.8233,0.8407,0.8308,0.8379,0.8499,0.8496,0.8514,0.865,0.8797,0.8772,0.8772,0.8582,0.8385,0.8208,0.7487,0.6069,0.464,0.2944,0.193,0.1568,0.1123,0.0942,0.0892,0.0868,0.0819,0.0742,2.2625,2.1925,2.2029,2.1599,2.0829,2.1012,2.1157,2.1264,2.125,2.0811,2.0275,2.027,1.9579,1.8545,1.8627,1.8611,1.8326,1.8422,1.8494,1.8532,1.8753,1.8934,1.8957,1.8549,1.7677,1.6355,1.5458,1.5107,1.5107,1.5107,1.5107,1.4933,1.3926,1.3197,1.2805,1.095,0.9756,0.9336,0.8627,0.8187,0.8233,0.8187,0.8162,0.8209,0.8063,0.8013,0.7988,0.7917,0.7796,0.7596,0.7419,0.7095,0.6692,0.6642,0.6339,0.5737,0.5384,0.5058,0.4533,0.4008,0.3707,0.3632,0.3381,0.3079,0.2927,0.3054,0.3079,0.2876,0.3054,0.3205,0.3205,0.3079,0.3054,0.3029,0.2901,0.275,0.2675,0.2497,0.2674,0.3026,0.363,0.4284,0.5135,0.5559,0.6509,0.7338,0.7434,0.7357,0.8084,0.8233,0.8137,0.8112,0.8263,0.828,0.8187,0.8238,0.8328,0.8474,0.8609,0.8678,0.8634,0.8473,0.8292,0.7395,0.6171,0.522,0.3657,0.2627,0.2021,0.1492,0.0,0.0,0.0,0.0,0.0418,2.2645,2.1953,2.1934,2.1495,2.0801,2.085,2.0879,2.0889,2.0716,2.0201,1.9504,1.9347,1.8749,1.8071,1.8301,1.8441,1.839,1.8614,1.8395,1.7925,1.7777,1.7855,1.794,1.7039,1.6089,1.5315,1.5059,1.5011,1.4957,1.4981,1.5059,1.4861,1.3589,1.2654,1.1804,1.0342,0.9093,0.8552,0.8382,0.8209,0.8066,0.8233,0.8233,0.8038,0.8013,0.7988,0.7917,0.7668,0.7547,0.7472,0.7045,0.6692,0.6464,0.6387,0.6087,0.5511,0.5035,0.451,0.3982,0.3556,0.3279,0.3281,0.323,0.3104,0.2927,0.3054,0.3204,0.3102,0.3254,0.3381,0.3405,0.3355,0.3202,0.2976,0.2876,0.2649,0.2598,0.2597,0.2949,0.3754,0.4158,0.4784,0.6562,0.6758,0.7357,0.7885,0.8013,0.7963,0.7963,0.8063,0.8048,0.8102,0.8234,0.8286,0.8281,0.8306,0.84,0.8513,0.8586,0.8605,0.8642,0.8503,0.8272,0.7355,0.66,0.5629,0.4554,0.3488,0.2439,0.174,0.0,0.0,0.0,0.0,0.0,2.2801,2.2353,2.2344,2.2031,2.1481,2.086,2.0606,2.0636,1.9984,1.9345,1.8794,1.9015,1.8676,1.8007,1.8435,1.8669,1.8677,1.8734,1.8404,1.7692,1.7115,1.6699,1.6386,1.5629,1.5064,1.4814,1.464,1.4514,1.4514,1.4568,1.4562,1.4418,1.2732,1.1687,1.1146,0.9484,0.8407,0.8137,0.8113,0.8088,0.8038,0.8063,0.8088,0.8013,0.7988,0.7892,0.7696,0.7244,0.702,0.6995,0.6692,0.6489,0.6337,0.6037,0.5611,0.5035,0.4535,0.3982,0.3531,0.3355,0.323,0.3205,0.3405,0.318,0.3104,0.318,0.3456,0.3778,0.4054,0.4331,0.4784,0.4834,0.4707,0.4406,0.3327,0.285,0.3674,0.3499,0.3398,0.4425,0.5233,0.5987,0.6587,0.7263,0.7711,0.8013,0.8063,0.7988,0.7988,0.8044,0.8089,0.8184,0.8291,0.8385,0.8413,0.8438,0.8509,0.8611,0.8661,0.859,0.8567,0.8438,0.8155,0.763,0.7284,0.6461,0.5306,0.4192,0.3186,0.2126,0.0,0.0,0.0,0.0,0.0,2.2847,2.2467,2.2074,2.1665,2.1169,2.022,1.9903,1.9835,1.9268,1.8764,1.8496,1.859,1.851,1.8216,1.8518,1.872,1.875,1.8473,1.7932,1.7138,1.6103,1.5493,1.5135,1.4658,1.4544,1.452,1.4394,1.4322,1.4322,1.4322,1.4322,1.3956,1.2217,1.1243,1.1077,0.9143,0.7988,0.8013,0.7988,0.7988,0.7988,0.7988,0.7914,0.7864,0.7817,0.7671,0.7294,0.6945,0.6795,0.6745,0.6539,0.6312,0.6062,0.5784,0.5258,0.4558,0.4158,0.3781,0.3432,0.3581,0.3857,0.3982,0.418,0.4529,0.4605,0.4556,0.4803,0.5004,0.5079,0.5256,0.5459,0.5509,0.5557,0.5457,0.4178,0.3677,0.4749,0.425,0.445,0.5277,0.6007,0.6612,0.6961,0.7637,0.7889,0.8013,0.8013,0.7988,0.7992,0.8064,0.8163,0.8294,0.8401,0.8496,0.8574,0.8601,0.8555,0.8649,0.8544,0.8534,0.842,0.8312,0.8103,0.7822,0.7705,0.7215,0.5984,0.4754,0.3636,0.2435,0.1065,0.0,0.0,0.0,0.0,2.2746,2.2324,2.1401,2.0758,2.0294,1.9406,1.9065,1.8921,1.8526,1.8333,1.827,1.8149,1.8218,1.8458,1.8458,1.8589,1.8612,1.8071,1.7255,1.6315,1.5224,1.449,1.449,1.4418,1.4352,1.4346,1.4322,1.4322,1.4322,1.4322,1.4322,1.3811,1.2223,1.1292,1.0783,0.9097,0.8113,0.7988,0.7988,0.7963,0.7942,0.7892,0.7793,0.7593,0.7472,0.7294,0.6945,0.6692,0.6592,0.6667,0.6439,0.6087,0.5661,0.5611,0.5085,0.4433,0.4307,0.4207,0.3731,0.4408,0.4958,0.5083,0.5802,0.6373,0.6077,0.5927,0.5952,0.5979,0.6077,0.6032,0.6059,0.5732,0.6009,0.6359,0.5627,0.5202,0.51,0.5049,0.5377,0.6359,0.6562,0.7061,0.7612,0.7988,0.7988,0.7988,0.7998,0.8044,0.8081,0.817,0.8265,0.8381,0.8526,0.8659,0.8703,0.8743,0.866,0.8621,0.8439,0.8334,0.8225,0.8121,0.7987,0.7829,0.7576,0.7188,0.646,0.5284,0.3916,0.2574,0.1092,0.0,0.0,0.0,0.0,2.1937,2.1787,2.0793,2.0338,2.009,1.9237,1.883,1.8762,1.7926,1.7626,1.7602,1.7715,1.7924,1.8164,1.8257,1.8326,1.7901,1.7568,1.6983,1.5629,1.4771,1.4322,1.4274,1.425,1.4298,1.4298,1.4322,1.4322,1.4322,1.4322,1.4322,1.4004,1.2344,1.1194,1.0877,0.9143,0.7988,0.7988,0.7988,0.7889,0.7743,0.7693,0.7568,0.7319,0.7095,0.6945,0.6692,0.6187,0.5859,0.5834,0.5837,0.5759,0.5609,0.5636,0.5208,0.4682,0.5204,0.5404,0.4883,0.5404,0.6052,0.6102,0.6376,0.6298,0.6104,0.6229,0.6354,0.6503,0.6656,0.6855,0.7185,0.7388,0.7338,0.736,0.7285,0.711,0.7135,0.6534,0.6587,0.726,0.7562,0.7739,0.7963,0.7988,0.7988,0.7988,0.8019,0.8081,0.8155,0.8243,0.8277,0.8322,0.8445,0.8502,0.8504,0.8501,0.8438,0.838,0.8214,0.8045,0.7934,0.7851,0.7715,0.7576,0.7438,0.6932,0.6346,0.4977,0.3497,0.2267,0.0,0.0,0.0,0.0,0.0,2.0984,2.0894,1.9946,1.9536,1.9376,1.8511,1.8079,1.801,1.7559,1.7309,1.7333,1.745,1.7403,1.7232,1.7333,1.7185,1.6788,1.6382,1.5633,1.4556,1.3895,1.3727,1.3913,1.3968,1.401,1.425,1.4322,1.4322,1.4322,1.4322,1.4322,1.4124,1.2242,1.1292,1.0906,0.9069,0.8113,0.7988,0.7988,0.7864,0.7643,0.7593,0.7369,0.7042,0.6767,0.6617,0.6539,0.5987,0.5959,0.6084,0.5887,0.5609,0.5734,0.6062,0.5884,0.5504,0.5777,0.6174,0.5902,0.6476,0.7173,0.7148,0.7475,0.7602,0.7478,0.7403,0.735,0.7503,0.758,0.7708,0.7963,0.7963,0.7988,0.7988,0.7988,0.7942,0.7768,0.7391,0.7313,0.7889,0.7939,0.7939,0.7988,0.7949,0.8031,0.8061,0.7892,0.7931,0.7998,0.8053,0.8058,0.811,0.8232,0.8294,0.8259,0.8202,0.8091,0.802,0.7881,0.7684,0.7518,0.749,0.7438,0.7324,0.7213,0.6596,0.5843,0.4446,0.3134,0.2071,0.0,0.0,0.0,0.0,0.0,1.9983,1.9914,1.8972,1.8557,1.8427,1.7699,1.7356,1.7326,1.7309,1.7185,1.7068,1.7068,1.6591,1.6089,1.5971,1.5798,1.5395,1.4782,1.4076,1.3558,1.3171,1.3152,1.3346,1.3437,1.3582,1.4052,1.425,1.4298,1.4322,1.4322,1.4322,1.3932,1.2223,1.1292,1.0734,0.9167,0.7988,0.7988,0.7914,0.7793,0.7519,0.7444,0.7169,0.6792,0.6564,0.6464,0.6387,0.6134,0.6184,0.6961,0.6409,0.6082,0.6182,0.6684,0.7005,0.6473,0.6772,0.6999,0.6949,0.7574,0.8223,0.8226,0.8705,0.9006,0.8882,0.8552,0.8329,0.823,0.8159,0.8088,0.8013,0.7988,0.7988,0.7988,0.7963,0.7842,0.7696,0.7789,0.7764,0.7814,0.7814,0.7842,0.7809,0.7779,0.7958,0.8085,0.7888,0.7804,0.7864,0.7905,0.7917,0.7958,0.8096,0.8048,0.8005,0.7848,0.774,0.7712,0.7576,0.7435,0.7268,0.7296,0.7268,0.7157,0.6877,0.6207,0.52,0.3776,0.263,0.1764,0.0,0.0,0.0,0.0,0.0,1.9018,1.8949,1.7963,1.7559,1.7536,1.7372,1.7279,1.7309,1.7216,1.6803,1.6082,1.6011,1.5609,1.5015,1.4872,1.4627,1.4124,1.3541,1.3117,1.2905,1.2735,1.2789,1.2861,1.291,1.3001,1.3268,1.3745,1.4178,1.4202,1.4322,1.413,1.3811,1.2223,1.1248,1.0563,0.9188,0.7988,0.7864,0.7743,0.7543,0.7291,0.7067,0.6842,0.6564,0.6512,0.6537,0.6509,0.6556,0.6606,0.6609,0.7425,0.7695,0.7649,0.7801,0.7475,0.7198,0.7996,0.8396,0.7996,0.8623,0.908,0.9109,0.9059,0.891,0.8684,0.8506,0.8357,0.8187,0.8088,0.8038,0.8013,0.7963,0.7988,0.7939,0.7793,0.7646,0.7543,0.7503,0.7381,0.7391,0.7484,0.7641,0.7629,0.7639,0.7763,0.7817,0.7737,0.7689,0.7791,0.7795,0.7801,0.7895,0.7996,0.787,0.7715,0.7518,0.7349,0.7407,0.7351,0.7351,0.7238,0.721,0.7154,0.7099,0.6457,0.559,0.4446,0.3189,0.2015,0.1036,0.0,0.0,0.0,0.0,0.0,1.7932,1.7971,1.7387,1.7223,1.7286,1.7309,1.699,1.656,1.649,1.594,1.5246,1.4984,1.4483,1.3812,1.362,1.3355,1.2907,1.2603,1.2395,1.237,1.2122,1.2151,1.2346,1.2395,1.2589,1.2856,1.3316,1.3528,1.3534,1.3504,1.3576,1.3165,1.1917,1.1033,1.0342,0.904,0.8059,0.7715,0.7466,0.7294,0.7014,0.6764,0.6537,0.6537,0.6836,0.7008,0.7058,0.7279,0.7574,0.7872,0.8195,0.852,0.8722,0.8722,0.8574,0.8297,0.8973,0.9352,0.8779,0.9154,0.9208,0.9006,0.8907,0.8708,0.8432,0.8283,0.8137,0.8038,0.7988,0.7988,0.7988,0.7867,0.7793,0.7739,0.7572,0.7375,0.7263,0.7255,0.7128,0.7016,0.7265,0.7436,0.7458,0.7484,0.7565,0.7562,0.7543,0.7588,0.7674,0.764,0.7597,0.7629,0.7681,0.7629,0.749,0.7351,0.721,0.721,0.721,0.721,0.721,0.721,0.721,0.7182,0.6288,0.5339,0.4278,0.3217,0.1791,0.0,0.0,0.0,0.0,0.0,0.0,1.7012,1.7145,1.6996,1.7043,1.7192,1.6998,1.652,1.5869,1.5585,1.4937,1.4052,1.3932,1.3379,1.2635,1.2374,1.2209,1.1829,1.1858,1.1858,1.1785,1.1487,1.1492,1.1731,1.1883,1.2005,1.2248,1.2395,1.2594,1.2905,1.2929,1.2832,1.2613,1.178,1.0944,1.0203,0.9069,0.8131,0.7612,0.7163,0.7017,0.6939,0.6761,0.6758,0.6883,0.7503,0.7854,0.7854,0.8248,0.8595,0.8867,0.9015,0.9069,0.9501,0.9599,0.9599,0.9603,0.9554,0.9381,0.9183,0.9084,0.9006,0.8754,0.8528,0.8407,0.8283,0.8137,0.8013,0.7988,0.7988,0.7988,0.7963,0.7768,0.7643,0.7556,0.7369,0.7114,0.7055,0.7009,0.701,0.6998,0.7165,0.7228,0.7234,0.725,0.7304,0.7357,0.7334,0.7397,0.7436,0.7368,0.7324,0.7304,0.7293,0.7293,0.7268,0.7296,0.721,0.721,0.721,0.721,0.721,0.721,0.7182,0.7099,0.6513,0.5564,0.4418,0.3022,0.1428,0.0,0.0,0.0,0.0,0.0,0.0,1.6652,1.6683,1.6636,1.6807,1.6847,1.6008,1.5687,1.5579,1.4746,1.3878,1.2848,1.2829,1.2325,1.1678,1.1482,1.1389,1.134,1.137,1.1389,1.1365,1.1267,1.1243,1.1316,1.1292,1.1414,1.1609,1.1536,1.198,1.2419,1.2613,1.271,1.2443,1.1736,1.1071,1.0605,0.9344,0.8407,0.8109,0.7363,0.7113,0.7409,0.7459,0.7804,0.8226,0.8549,0.8623,0.8697,0.9143,0.9542,0.9262,0.9834,0.9891,0.9698,0.9599,0.9599,0.9529,0.9381,0.9154,0.8928,0.8853,0.873,0.8506,0.8407,0.8258,0.8137,0.8063,0.7988,0.7988,0.7988,0.798,0.7937,0.7731,0.7625,0.7456,0.722,0.7074,0.6981,0.6963,0.6929,0.695,0.7072,0.704,0.6984,0.7035,0.708,0.7122,0.7166,0.7221,0.7257,0.7207,0.721,0.721,0.721,0.721,0.721,0.721,0.721,0.721,0.721,0.721,0.721,0.7182,0.7071,0.6877,0.6262,0.5228,0.3747,0.2267,0.084,0.0,0.0,0.0,0.0,0.0,0.0,1.6322,1.6534,1.5835,1.5646,1.5724,1.4752,1.4112,1.3758,1.3258,1.2484,1.1741,1.1624,1.1433,1.1194,1.1194,1.1218,1.1194,1.1194,1.1194,1.1194,1.1194,1.1194,1.1218,1.1194,1.1194,1.1194,1.1218,1.1389,1.1858,1.1927,1.1902,1.1858,1.1468,1.0875,1.0732,0.9747,0.9101,0.8655,0.8184,0.7829,0.7779,0.8028,0.845,0.88,0.9118,0.9242,0.9414,0.9842,1.0015,0.9764,1.0064,0.9994,0.9698,0.9603,0.9554,0.9385,0.9286,0.9084,0.8829,0.8676,0.8457,0.8258,0.8184,0.8113,0.8013,0.7988,0.7988,0.7988,0.7988,0.795,0.7844,0.7636,0.7483,0.7304,0.7122,0.6989,0.6935,0.6951,0.6942,0.6983,0.6989,0.6999,0.6994,0.7067,0.7114,0.7133,0.7155,0.7182,0.7207,0.721,0.721,0.721,0.721,0.721,0.721,0.721,0.721,0.721,0.721,0.721,0.721,0.7154,0.6988,0.6179,0.5144,0.4027,0.2853,0.1959,0.0924,0.0,0.0,0.0,0.0,0.0,0.0,1.5659,1.5913,1.4973,1.4591,1.4411,1.3445,1.2745,1.2237,1.1809,1.1282,1.085,1.0757,1.085,1.0949,1.0973,1.1002,1.1096,1.11,1.1145,1.1169,1.1194,1.1194,1.1194,1.1194,1.1194,1.1194,1.1194,1.1267,1.1243,1.1267,1.1316,1.1194,1.1267,1.0924,1.0462,0.9994,0.9546,0.88,0.8453,0.8301,0.8404,0.885,0.9147,0.9418,0.9661,0.9883,0.9883,1.0138,1.024,1.0043,0.9994,0.99,0.9653,0.9603,0.9554,0.9356,0.9212,0.8981,0.8779,0.8577,0.8283,0.8088,0.7988,0.8013,0.8013,0.7988,0.7972,0.7952,0.7934,0.788,0.7734,0.7492,0.7341,0.7197,0.7026,0.6913,0.6864,0.6977,0.7043,0.7073,0.7106,0.7133,0.7163,0.7185,0.7202,0.7204,0.7182,0.7099,0.7043,0.6988,0.6821,0.6738,0.6877,0.6904,0.696,0.6988,0.7071,0.721,0.721,0.721,0.721,0.7015,0.6793,0.5704,0.4308,0.3329,0.2434,0.1791,0.0,0.0,0.0,0.0,0.0,0.0,0.0,1.4442,1.4442,1.4316,1.383,1.3162,1.2165,1.179,1.1707,1.089,1.0531,1.0462,1.0437,1.0462,1.0507,1.058,1.0659,1.083,1.0826,1.0949,1.1071,1.1194,1.1145,1.1145,1.1145,1.1169,1.1174,1.1194,1.1194,1.1169,1.112,1.1169,1.1194,1.1169,1.1149,1.088,1.0388,0.9694,0.8973,0.8499,0.8775,0.9249,0.9768,1.0043,1.0433,1.058,1.0605,1.0359,1.0314,1.0216,0.9969,0.9945,0.9871,0.9653,0.9624,0.9554,0.948,0.9154,0.8952,0.8754,0.8528,0.8258,0.8088,0.7988,0.8027,0.8054,0.8005,0.7949,0.7865,0.7859,0.7753,0.7577,0.7396,0.7282,0.7162,0.7096,0.7042,0.7018,0.7076,0.7163,0.7191,0.7204,0.721,0.7071,0.7043,0.6932,0.6904,0.6654,0.6568,0.6513,0.6402,0.6179,0.6123,0.6374,0.6457,0.6543,0.671,0.7099,0.721,0.721,0.721,0.721,0.6932,0.6374,0.5228,0.3916,0.2994,0.2043,0.1204,0.0,0.0,0.0,0.0,0.0,0.0,0.0,1.3565,1.2417,1.2393,1.2217,1.1853,1.0821,1.0507,1.0625,1.0138,1.0019,1.0167,1.0142,1.024,1.0335,1.0413,1.0437,1.0531,1.056,1.0659,1.0654,1.0703,1.0801,1.088,1.0953,1.0953,1.0978,1.1071,1.0973,1.0708,1.0875,1.0806,1.083,1.0998,1.1169,1.0998,1.0605,0.9941,0.9394,0.9167,0.9567,0.9344,1.0039,1.0364,1.0507,1.0364,1.029,1.0117,0.9974,0.985,0.9801,0.9776,0.9702,0.9628,0.9628,0.9599,0.9579,0.9204,0.8977,0.873,0.8432,0.8113,0.8063,0.802,0.8054,0.811,0.8,0.7945,0.7849,0.775,0.7626,0.747,0.7371,0.7314,0.7219,0.7152,0.7125,0.715,0.7188,0.7202,0.7204,0.7207,0.721,0.7015,0.6846,0.6707,0.6568,0.629,0.6068,0.6012,0.604,0.5873,0.5929,0.6235,0.6541,0.6626,0.6904,0.7182,0.721,0.721,0.721,0.7099,0.6207,0.5536,0.4475,0.3413,0.2238,0.126,0.0476,0.0,0.0,0.0,0.0,0.0,0.0,0.0,1.2805,1.1224,1.0857,1.071,1.0616,0.9916,0.9702,0.9821,0.9702,0.9673,0.9871,0.9895,0.9969,1.0117,1.0138,1.0216,1.024,1.029,1.0335,1.0408,1.0487,1.0536,1.063,1.0679,1.0683,1.0728,1.0801,1.0708,1.0487,1.0609,1.0585,1.0609,1.0728,1.0875,1.0826,1.0507,1.0039,0.9862,0.969,1.006,0.9636,1.0064,1.029,1.0285,1.0117,0.9994,0.9895,0.9752,0.9677,0.9653,0.9628,0.9624,0.9624,0.9599,0.9599,0.9505,0.9282,0.9006,0.8733,0.8333,0.8037,0.8091,0.8098,0.815,0.8132,0.7998,0.79,0.7761,0.7629,0.749,0.7364,0.7308,0.7292,0.7177,0.7188,0.718,0.7182,0.7207,0.7207,0.721,0.7099,0.6849,0.6485,0.6207,0.5984,0.5929,0.5901,0.5734,0.5678,0.5734,0.5817,0.5984,0.6318,0.6596,0.6904,0.7071,0.7182,0.721,0.721,0.721,0.6904,0.5926,0.4949,0.4055,0.2881,0.1484,0.0,0.0,0.0,0.0,0.0,0.0,0.0,0.0,0.0,1.212,1.1101,1.0084,0.9698,0.9747,0.9649,0.9628,0.9649,0.9628,0.9624,0.9653,0.9653,0.9653,0.9702,0.9747,0.985,0.9969,1.0019,1.0093,1.024,1.024,1.0364,1.0413,1.0408,1.0413,1.0413,1.0487,1.0511,1.0339,1.0388,1.0364,1.0339,1.0364,1.0433,1.0335,0.9665,0.9665,1.0113,0.9591,0.9739,1.0039,1.0212,1.0142,1.0019,0.9949,0.9821,0.9702,0.9653,0.9599,0.9525,0.9529,0.9529,0.9476,0.9476,0.9476,0.948,0.9051,0.8832,0.8762,0.8265,0.8165,0.8245,0.8262,0.8256,0.8102,0.7967,0.7882,0.7738,0.7465,0.7354,0.726,0.7196,0.7199,0.7202,0.7207,0.721,0.721,0.7182,0.7182,0.6988,0.6596,0.6262,0.5873,0.5511,0.5232,0.5204,0.5369,0.5397,0.5343,0.5481,0.565,0.5873,0.6179,0.6429,0.668,0.7015,0.7182,0.7182,0.7154,0.7071,0.6568,0.562,0.4643,0.3664,0.2351,0.0924,0.0,0.0,0.0,0.0,0.0,0.0,0.0,0.0,0.0,1.1536,1.0109,0.9747,0.9599,0.9599,0.9599,0.9599,0.9599,0.9599,0.9599,0.9599,0.9599,0.9599,0.9599,0.9624,0.9677,0.9727,0.9747,0.9846,0.9871,0.992,1.0019,1.0068,1.0142,1.0142,1.0191,1.0265,1.0167,0.985,1.0043,0.9994,0.9924,0.9969,0.9969,1.0043,0.9793,0.9871,0.9821,0.9595,0.9599,0.9846,0.9875,0.985,0.9727,0.9727,0.9649,0.955,0.9525,0.9476,0.9356,0.9331,0.9282,0.9154,0.9101,0.9101,0.9051,0.8705,0.8517,0.8513,0.8316,0.835,0.8401,0.8425,0.843,0.8448,0.8067,0.7879,0.7713,0.7408,0.7307,0.7199,0.7204,0.7207,0.7207,0.721,0.721,0.721,0.7182,0.7127,0.6707,0.6318,0.565,0.5148,0.5093,0.4869,0.4897,0.512,0.5037,0.4981,0.5288,0.5509,0.5678,0.5929,0.6151,0.6457,0.6877,0.7154,0.7182,0.7015,0.6765,0.6093,0.5228,0.397,0.2798,0.1595,0.0,0.0,0.0,0.0,0.0,0.0,0.0,0.0,0.0,0.0,1.1179,0.9628,0.9402,0.9426,0.9579,0.9599,0.9599,0.9599,0.9599,0.9599,0.9599,0.9599,0.9599,0.9599,0.9599,0.9599,0.9599,0.9599,0.9599,0.9599,0.9624,0.9747,0.9826,0.9875,0.9875,0.992,0.9994,0.992,0.9677,0.9772,0.9772,0.9677,0.9624,0.9727,0.9826,0.9801,0.9752,0.9673,0.9575,0.9599,0.9628,0.9554,0.9484,0.943,0.9381,0.9303,0.9303,0.9278,0.9253,0.9109,0.9034,0.8981,0.8829,0.8775,0.8775,0.8726,0.8653,0.8494,0.8505,0.8384,0.8411,0.8458,0.8518,0.8505,0.8476,0.8074,0.7837,0.7622,0.7401,0.7293,0.721,0.721,0.721,0.721,0.721,0.721,0.7099,0.7099,0.6765,0.6374,0.5706,0.5037,0.4562,0.462,0.4564,0.473,0.4897,0.4814,0.4758,0.512,0.5369,0.5481,0.5734,0.6068,0.6429,0.6849,0.7071,0.7182,0.6904,0.6568,0.5676,0.4754,0.3356,0.2015,0.1036,0.0,0.0,0.0,0.0,0.0,0.0,0.0,0.0,0.0,0.0,1.1013,0.9599,0.9002,0.9101,0.9529,0.9525,0.955,0.9603,0.9599,0.9599,0.9599,0.9599,0.9599,0.9599,0.9599,0.9599,0.9599,0.9599,0.9599,0.9599,0.9599,0.9653,0.9653,0.9653,0.9702,0.9653,0.9673,0.9747,0.9603,0.9673,0.9649,0.9599,0.9599,0.9653,0.9677,0.9628,0.9579,0.9529,0.9529,0.948,0.9406,0.9282,0.9208,0.9133,0.9055,0.8952,0.8928,0.8903,0.885,0.88,0.8775,0.8775,0.8751,0.8751,0.8751,0.8706,0.8625,0.8617,0.8495,0.8293,0.8323,0.8375,0.8523,0.8354,0.8173,0.7981,0.7772,0.7504,0.7293,0.7238,0.721,0.721,0.721,0.721,0.721,0.7127,0.6988,0.6765,0.6374,0.5789,0.5009,0.4424,0.4089,0.4061,0.4564,0.4702,0.4897,0.5065,0.5065,0.515,0.5316,0.5202,0.5539,0.5984,0.6346,0.6626,0.7015,0.7127,0.6707,0.629,0.5314,0.414,0.2714,0.1484,0.0672,0.0,0.0,0.0,0.0,0.0,0.0,0.0,0.0,0.0,0.0,0.9953,0.9051,0.8874,0.8874,0.9027,0.9027,0.9253,0.9579,0.9599,0.9599,0.9599,0.9599,0.9579,0.9599,0.9599,0.9599,0.9599,0.9599,0.9599,0.9599,0.9599,0.9599,0.9603,0.9603,0.9603,0.9603,0.9603,0.9579,0.9603,0.9603,0.9603,0.9599,0.9525,0.955,0.9529,0.9434,0.9356,0.9307,0.9307,0.9229,0.913,0.8977,0.8931,0.8878,0.8804,0.8726,0.8726,0.8726,0.8676,0.8531,0.8531,0.8457,0.8237,0.824,0.8211,0.8113,0.8203,0.8341,0.8143,0.8071,0.8112,0.814,0.8189,0.8143,0.798,0.7823,0.7632,0.7435,0.7268,0.721,0.721,0.721,0.721,0.721,0.7154,0.7015,0.6849,0.6429,0.5984,0.512,0.4313,0.4229,0.3894,0.4229,0.4704,0.4786,0.4897,0.512,0.5176,0.5204,0.5039,0.4869,0.5065,0.5455,0.5845,0.6123,0.6652,0.6985,0.6652,0.5898,0.4529,0.3301,0.1987,0.0,0.0,0.0,0.0,0.0,0.0,0.0,0.0,0.0,0.0,0.0,0.0,0.9435,0.88,0.8552,0.8552,0.8655,0.8775,0.8998,0.9253,0.9274,0.9278,0.9303,0.9381,0.9455,0.9455,0.9554,0.9599,0.9599,0.9599,0.9599,0.9599,0.9575,0.9599,0.9603,0.9505,0.943,0.9455,0.9459,0.9406,0.9455,0.9455,0.943,0.943,0.9352,0.9352,0.9331,0.9179,0.8981,0.8956,0.8956,0.8903,0.8829,0.8701,0.8651,0.8627,0.8581,0.8506,0.8506,0.8506,0.8382,0.8233,0.8187,0.8038,0.7837,0.7817,0.7869,0.7835,0.798,0.8045,0.7956,0.7855,0.7842,0.7798,0.7768,0.7681,0.7679,0.7601,0.7521,0.7382,0.7268,0.721,0.721,0.721,0.721,0.721,0.7071,0.6932,0.6541,0.6123,0.5343,0.4451,0.4089,0.4089,0.4229,0.4592,0.4871,0.5037,0.5037,0.4981,0.4953,0.4841,0.4536,0.4257,0.4479,0.4786,0.5232,0.5761,0.6346,0.6818,0.6846,0.5841,0.4109,0.2966,0.2099,0.0,0.0,0.0,0.0,0.0,0.0,0.0,0.0,0.0,0.0,0.0,0.0,0.9164,0.868,0.8209,0.8159,0.8382,0.8602,0.8701,0.8751,0.8726,0.8775,0.8874,0.9059,0.9183,0.9208,0.9327,0.9426,0.9402,0.9402,0.9402,0.9525,0.9426,0.9402,0.9377,0.9303,0.9179,0.9158,0.9187,0.9183,0.9158,0.9158,0.9158,0.9162,0.8981,0.9002,0.9109,0.8878,0.8705,0.8606,0.863,0.863,0.8606,0.8506,0.8357,0.8333,0.8212,0.8038,0.8038,0.8013,0.7988,0.7889,0.7793,0.7646,0.7591,0.7587,0.7673,0.7689,0.7792,0.7783,0.7739,0.7648,0.7571,0.7493,0.7351,0.7349,0.7379,0.7435,0.7379,0.7324,0.721,0.721,0.721,0.721,0.721,0.7099,0.696,0.6624,0.6123,0.5594,0.4814,0.4173,0.4257,0.4257,0.4395,0.4732,0.4732,0.5093,0.5093,0.4897,0.4646,0.4451,0.4201,0.3811,0.4005,0.4395,0.5037,0.5566,0.6123,0.6485,0.6652,0.5757,0.3998,0.3076,0.2379,0.0,0.0,0.0,0.0,0.0,0.0,0.0,0.0,0.0,0.0,0.0,0.0,0.8308,0.8184,0.8063,0.8066,0.8084,0.8162,0.8187,0.8187,0.8184,0.8432,0.8775,0.8853,0.8878,0.8928,0.9002,0.9051,0.9027,0.9101,0.9002,0.9027,0.9051,0.9101,0.9023,0.8952,0.8878,0.8903,0.8903,0.8907,0.8878,0.8903,0.8903,0.8903,0.8775,0.8804,0.8882,0.8627,0.8432,0.8333,0.8283,0.8262,0.8212,0.8187,0.8088,0.8088,0.7988,0.7988,0.7988,0.7963,0.7867,0.7721,0.7643,0.7547,0.7445,0.7588,0.7594,0.7552,0.7582,0.7555,0.7498,0.7407,0.7351,0.7324,0.724,0.721,0.7238,0.7268,0.7268,0.721,0.7154,0.7154,0.7154,0.7154,0.7099,0.696,0.6763,0.6235,0.5706,0.5009,0.4257,0.4257,0.4369,0.4536,0.4646,0.4674,0.4702,0.4704,0.4676,0.4508,0.4145,0.3894,0.3949,0.3699,0.3671,0.4061,0.473,0.5371,0.5929,0.6151,0.629,0.5172,0.3774,0.0,0.0,0.0,0.0,0.0,0.0,0.0,0.0,0.0,0.0,0.0,0.0,0.0,0.0,0.7988,0.7988,0.7988,0.7988,0.7988,0.7988,0.7988,0.7988,0.7988,0.8162,0.8432,0.8552,0.8627,0.8651,0.8726,0.8775,0.8775,0.88,0.885,0.88,0.8751,0.8825,0.8751,0.8651,0.8627,0.863,0.863,0.8606,0.8602,0.8627,0.863,0.8606,0.8556,0.8531,0.8556,0.8382,0.8237,0.8209,0.8063,0.7942,0.7892,0.7917,0.7988,0.7988,0.7988,0.7939,0.7839,0.7814,0.7665,0.7475,0.7353,0.729,0.7229,0.7297,0.7368,0.7358,0.7365,0.7351,0.724,0.7182,0.7154,0.7154,0.7182,0.7154,0.7099,0.7129,0.7043,0.696,0.6738,0.671,0.6791,0.6818,0.6654,0.646,0.6123,0.565,0.5204,0.4704,0.4145,0.3895,0.4229,0.4758,0.4786,0.4592,0.4592,0.4479,0.4424,0.4173,0.3783,0.3587,0.3587,0.3587,0.3587,0.3894,0.4562,0.5204,0.5761,0.5901,0.6096,0.4613,0.0,0.0,0.0,0.0,0.0,0.0,0.0,0.0,0.0,0.0,0.0,0.0,0.0,0.0,0.0,0.7988,0.7988,0.7988,0.7988,0.7988,0.7988,0.7988,0.7988,0.7988,0.7988,0.8066,0.8287,0.8357,0.8432,0.8552,0.8651,0.8651,0.8552,0.8627,0.8627,0.8627,0.8556,0.8506,0.8457,0.8382,0.8357,0.8333,0.8333,0.8333,0.8357,0.8333,0.8287,0.8212,0.8137,0.8212,0.8162,0.8038,0.8038,0.7942,0.7793,0.7793,0.7793,0.7839,0.7889,0.7864,0.7768,0.7618,0.7515,0.7391,0.7266,0.7126,0.7083,0.7078,0.713,0.7191,0.723,0.7249,0.724,0.7182,0.7043,0.7015,0.7015,0.7043,0.696,0.6821,0.6738,0.6624,0.6513,0.629,0.6235,0.6318,0.629,0.6096,0.5901,0.5483,0.5065,0.4676,0.4397,0.4063,0.3699,0.4229,0.4841,0.4758,0.4536,0.4397,0.4311,0.4117,0.381,0.3587,0.3587,0.3587,0.3587,0.3587,0.4005,0.4618,0.5065,0.565,0.6262,0.626,0.4418,0.0,0.0,0.0,0.0,0.0,0.0,0.0,0.0,0.0,0.0,0.0,0.0,0.0,0.0,0.0,0.7988,0.7988,0.7988,0.7988,0.7988,0.7988,0.7988,0.7988,0.7988,0.7988,0.8013,0.8038,0.8088,0.8084,0.8113,0.8184,0.8283,0.8258,0.8184,0.8137,0.8258,0.8212,0.8187,0.8212,0.8116,0.8113,0.8113,0.8088,0.8137,0.8137,0.8088,0.8088,0.8088,0.8038,0.8038,0.7988,0.7942,0.7892,0.7743,0.7596,0.7596,0.7568,0.7515,0.7462,0.7363,0.7313,0.7288,0.7288,0.7183,0.7084,0.7013,0.7011,0.7021,0.7092,0.7144,0.7135,0.7154,0.7071,0.6988,0.6682,0.6543,0.6429,0.6318,0.5982,0.5873,0.5817,0.5734,0.5706,0.5566,0.5594,0.5622,0.5539,0.5373,0.5262,0.4955,0.448,0.4033,0.4033,0.3923,0.4005,0.4341,0.4562,0.4507,0.4313,0.4173,0.4033,0.3838,0.3587,0.3587,0.3587,0.3587,0.3587,0.3587,0.4339,0.5035,0.5148,0.5678,0.6374,0.6288,0.436,0.2657,0.1232,0.0,0.0,0.0,0.0,0.0,0.0,0.0,0.0,0.0,0.0,0.0,0.0,0.0]},{"header":{"parameterUnit":"m.s-1","parameterCategory":1,"la1":31.0,"la2":29.5877,"lo1":-88.7671,"lo2":-86.6584,"dy":0.0162,"dx":0.0185,"nx":115,"ny":88,"refTime":"2023-09-20T18:00:00:Z","depth":0,"parameterNumber":3,"parameterNumberName":"V-component_of_WINDS"},"data":[0.0,0.0,0.0,0.0,0.0,0.0,0.0,0.0,0.0,0.0,0.0,0.0,0.0,0.0,0.0,0.0,0.0,0.0,0.0,0.0,0.0,0.0,0.0,0.0,0.0,0.0,0.0,0.0,0.0,0.0,0.0,0.0,0.0,0.0,0.0,0.0,0.0,0.0,0.0,0.0,0.0,0.0,0.0,0.0,0.0,0.0,0.0,0.0,0.0,0.0,0.0,0.0,0.0,0.0,0.0,0.0,0.0,0.0,0.0,0.0,0.0,0.0,0.0,0.0,0.0,0.0,0.0,0.0,0.0,0.0,0.0,0.0,0.0,0.0,0.0,0.0,0.0,0.0,0.0,0.0,0.0,0.0,0.0,0.0,0.0,0.0,0.0,0.0,0.0,0.0,0.0,0.0,0.0,0.0,0.0,0.0,0.0,0.0,0.0,0.0,0.0,0.0,0.0,0.0,0.0,0.0,0.0,0.0,0.0,0.0,0.0,0.0,0.0,0.0,0.0,0.0,0.0,0.0,0.0,0.0,0.0,0.0,0.0,0.0,0.0,0.0,0.0,0.0,0.0,0.0,0.0,0.0,0.0,0.0,0.0,0.0,0.0,0.0,0.0,0.0,0.0,0.0,0.0,0.0,0.0,0.0,0.0,0.0,0.0,0.0,0.0,0.0,0.0,0.0,0.0,0.0,0.0,0.0,0.0,0.0,0.0,0.0,0.0,0.0,0.0,0.0,0.0,0.0,0.0,0.0,0.0,0.0,0.0,0.0,0.0,0.0,0.0,0.0,0.0,0.0,0.0,0.0,0.0,0.0,0.0,0.0,0.0,0.0,0.0,0.0,0.0,0.0,0.0,0.0,0.0,0.0,0.0,0.0,0.0,0.0,0.0,0.0,0.0,0.0,0.0,0.0,0.0,0.0,0.0,0.0,0.0,0.0,0.0,0.0,0.0,0.0,0.0,0.0,0.0,0.0,0.0,0.0,0.0,0.0,0.0,0.0,0.0,0.0,0.0,0.0,0.0,0.0,0.0,0.0,0.0,0.0,0.0,0.0,0.0,0.0,0.0,0.0,0.0,0.0,0.0,0.0,0.0,0.0,0.0,0.0,0.0,0.0,0.0,0.0,0.0,0.0,0.0,0.0,0.0,0.0,0.0,0.0,0.0,0.0,0.0,0.0,0.0,0.0,0.0,0.0,0.0,0.0,0.0,0.0,0.0,0.0,0.0,0.0,0.0,0.0,0.0,0.0,0.0,0.0,0.0,0.0,0.0,0.0,0.0,0.0,0.0,0.0,0.0,0.0,0.0,0.0,0.0,0.0,0.0,0.0,0.0,0.0,0.0,0.0,0.0,0.0,0.0,0.0,0.0,0.0,0.0,0.0,0.0,0.0,0.0,0.0,0.0,0.0,0.0,0.0,0.0,0.0,0.0,0.0,0.0,0.0,0.0,0.0,0.0,0.0,0.0,0.0,0.0,0.0,0.0,0.0,0.0,0.0,0.0,0.0,0.0,0.0,0.0,0.0,0.0,0.0,0.0,0.0,0.0,0.0,0.0,0.0,0.0,0.0,0.0,0.0,0.0,0.0,0.0,0.0,0.0,0.0,0.0,0.0,0.0,0.0,0.0,0.0,0.0,0.0,0.0,0.0,0.0,0.0,0.0,0.0,0.0,0.0,0.0,0.0,0.0,0.0,0.0,0.0,0.0,0.0,0.0,0.0,0.0,0.0,0.0,0.0,0.0,0.0,0.0,0.0,0.0,0.0,0.0,0.0,0.0,0.0,0.0,0.0,0.0,0.0,0.0,0.0,0.0,0.0,0.0,0.0,0.0,0.0,0.0,0.0,0.0,0.0,0.0,0.0,0.0,0.0,0.0,0.0,0.0,0.0,0.0,0.0,0.0,0.0,0.0,0.0,0.0,0.0,0.0,0.0,0.0,0.0,0.0,0.0,0.0,0.0,0.0,0.0,0.0,0.0,0.0,0.0,0.0,0.0,0.0,0.0,0.0,0.0,0.0,0.0,0.0,0.0,0.0,0.0,0.0,0.0,0.0,0.0,0.0,0.0,0.0,0.0,0.0,0.0,0.0,0.0,0.0,0.0,0.0,0.0,0.0,0.0,0.0,0.0,0.0,0.0,0.0,0.0,0.0,0.0,0.0,0.0,0.0,0.0,0.0,0.0,0.0,0.0,0.0,0.0,0.0,0.0,0.0,0.0,0.0,0.0,0.0,0.0,0.0,0.0,0.0,0.0,0.0,0.0,0.0,0.0,0.0,0.0,0.0,0.0,0.0,0.0,0.0,0.0,0.0,0.0,0.0,0.0,0.0,0.0,0.0,0.0,0.0,0.0,0.0,0.0,0.0,0.0,0.0,0.0,0.0,0.0,0.0,0.0,0.0,0.0,0.0,0.0,0.0,0.0,0.0,0.0,0.0,0.0,0.0,0.0,0.0,0.0,0.0,0.0,0.0,0.0,0.0,0.0,0.0,0.0,0.0,0.0,0.0,0.0,0.0,0.0,0.0,0.0,0.0,0.0,0.0,0.0,0.0,0.0,0.0,0.0,0.0,0.0,0.0,0.0,0.0,0.0,0.0,0.0,0.0,0.0,0.0,0.0,0.0,0.0,0.0,0.0,0.0,0.0,0.0,0.0,0.0,0.0,0.0,0.0,0.0,0.0,0.0,0.0,0.0,0.0,0.0,0.0,0.0,0.0,0.0,0.0,0.0,0.0,0.0,0.0,0.0,0.0,0.0,0.0,0.0,0.0,0.0,0.0,0.0,0.0,0.0,0.0,0.0,0.0,0.0,0.0,0.0,0.0,0.0,0.0,0.0,0.0,0.0,0.0,0.0,0.0,0.0,0.0,0.0,0.0,0.0,0.0,0.0,0.0,0.0,0.0,0.0,0.0,0.0,0.0,0.0,0.0,0.0,0.0,0.0,0.0,0.0,0.0,0.0,0.0,0.0,0.0,0.0,0.0,0.0,0.0,0.0,0.0,0.0,0.0,0.0,0.0,0.0,0.0,0.0,0.0,0.0,0.0,0.0,0.0,0.0,0.0,0.0,0.0,0.0,0.0,0.0,0.0,0.0,0.0,0.0,0.0,0.0,0.0,0.0,0.0,0.0,0.0,0.0,0.0,0.0,0.0,0.0,0.0,0.0,0.0,0.0,0.0,0.0,0.0,0.0,0.0,0.0,0.0,0.0,0.0,0.0,0.0,0.0,0.0,0.0,0.0,0.0,0.0,0.0,0.0,0.0,0.0,0.0,0.0,0.0,0.0,0.0,0.0,0.0,0.0,0.0,0.0,0.0,0.0,0.0,0.0,0.0,0.0,0.0,0.0,0.0,0.0,0.0,0.0,0.0,0.0,0.0,0.0,0.0,0.0,0.0,0.0,0.0,0.0,0.0,0.0,0.0,0.0,0.0,0.0,0.0,0.0,0.0,0.0,0.0,0.0,0.0,0.0,0.0,0.0,0.0,0.0,0.0,0.0,0.0,0.0,0.0,0.0,0.0,0.0,0.0,0.0,0.0,0.0,0.0,0.0,0.0,0.0,0.0,0.0,0.0,0.0,0.0,0.0,0.0,0.0,0.0,0.0,0.0,0.0,0.0,0.0,0.0,0.0,0.0,0.0,0.0,0.0,0.0,0.0,0.0,0.0,0.0,0.0,0.0,0.0,0.0,0.0,0.0,0.0,0.0,0.0,0.0,0.0,0.0,0.0,0.0,0.0,0.0,0.0,0.0,0.0,0.0,0.0,0.0,0.0,0.0,0.0,0.0,0.0,0.0,0.0,0.0,0.0,0.0,0.0,0.0,0.0,0.0,0.0,0.0,0.0,0.0,0.0,0.0,0.0,0.0,0.0,0.0,0.0,0.0,0.0,0.0,0.0,0.0,0.0,0.0,0.0,0.0,0.0,0.0,0.0,0.0,0.0,0.0,0.0,0.0,0.0,0.0,0.0,0.0,0.0,0.0,0.0,0.0,0.0,0.0,0.0,0.0,0.0,0.0,0.0,0.0,0.0,0.0,0.0,0.0,0.0,0.0,0.0,0.0,0.0,0.0,0.0,0.0,0.0,0.0,0.0,0.0,0.0,0.0,0.0,0.0,0.0,0.0,0.0,0.0,0.0,0.0,0.0,0.0,0.0,0.0,0.0,0.0,0.0,0.0,0.0,0.0,0.0,0.0,0.0,0.0,0.0,0.0,0.0,0.0,0.0,0.0,0.0,0.0,0.0,0.0,0.0,0.0,0.0,0.0,0.0,0.0,0.0,0.0,0.0,1.4888,0.0,0.0,0.0,0.0,0.0,0.0,0.0,0.0,0.0,0.0,0.0,0.0,0.0,0.0,0.0,0.0,0.0,0.0,0.0,0.0,0.0,0.0,0.0,0.0,0.0,0.0,0.0,0.0,0.0,0.0,0.0,0.0,0.0,0.0,0.0,0.0,0.0,0.0,0.0,0.0,0.0,0.0,0.0,0.0,0.0,0.0,0.0,0.0,0.0,0.0,0.0,0.0,0.0,0.0,0.0,0.0,0.0,0.0,0.0,0.0,0.0,0.0,0.0,0.0,0.0,0.0,0.0,0.0,0.0,0.0,0.0,0.0,0.0,0.0,0.0,0.0,0.0,0.0,0.0,0.0,0.0,0.0,0.0,0.0,0.0,0.0,0.0,0.0,0.0,0.0,0.0,0.0,0.0,0.0,0.0,0.0,0.0,0.0,0.0,0.0,0.0,0.0,0.0,0.0,0.0,0.0,0.0,0.0,0.0,0.0,1.4598,1.464,1.4627,1.4661,1.4683,0.0,0.0,0.0,0.0,0.0,0.0,0.0,0.0,0.0,0.0,0.0,0.0,0.0,0.0,0.0,0.0,0.0,0.0,0.0,0.0,0.0,0.0,0.0,0.0,0.0,0.0,0.0,0.0,0.0,0.0,0.0,0.0,0.0,0.0,0.0,0.0,0.0,0.0,0.0,0.0,0.0,0.0,0.0,0.0,0.0,0.0,0.0,0.0,0.0,0.0,0.0,0.0,0.0,0.0,0.0,0.0,0.0,0.0,0.0,0.0,0.0,0.0,0.0,0.0,0.0,0.0,0.0,0.0,0.0,0.0,0.0,0.0,0.0,0.0,0.0,0.0,0.0,0.0,0.0,0.0,0.0,0.0,0.0,0.0,0.0,0.0,0.0,0.0,0.0,0.0,0.0,0.0,0.0,0.0,0.0,0.0,0.0,0.0,0.0,0.0,0.0,0.0,0.0,0.0,0.0,0.0,0.0,0.0,0.0,0.0,0.0,0.0,1.4497,1.4489,1.4529,0.0,0.0,0.0,0.0,0.0,0.0,0.0,0.0,0.0,0.0,0.0,0.0,0.0,0.0,0.0,0.0,0.0,0.0,0.0,0.0,0.0,0.0,0.0,0.0,0.0,0.0,0.0,0.0,0.0,0.0,0.0,0.0,0.0,0.0,0.0,0.0,0.0,0.0,0.0,0.0,0.0,0.0,0.0,0.0,0.0,0.0,0.0,0.0,0.0,0.0,0.0,0.0,0.0,0.0,0.0,0.0,0.0,0.0,0.0,0.0,0.0,0.0,0.0,0.0,0.0,0.0,0.0,0.0,0.0,0.0,0.0,0.0,0.0,0.0,0.0,0.0,0.0,0.0,0.0,0.0,0.0,0.0,0.0,0.0,0.0,0.0,0.0,0.0,0.0,0.0,0.0,0.0,0.0,0.0,0.0,0.0,0.0,0.0,0.0,0.0,0.0,0.0,0.0,0.0,0.0,0.0,0.0,0.0,0.0,0.0,1.4405,1.4413,1.4473,0.0,1.4584,0.0,0.0,0.0,0.0,0.0,0.0,0.0,0.0,0.0,0.0,0.0,0.0,0.0,0.0,0.0,0.0,0.0,0.0,0.0,0.0,0.0,0.0,0.0,0.0,0.0,0.0,0.0,0.0,0.0,0.0,0.0,0.0,0.0,0.0,0.0,0.0,0.0,0.0,0.0,0.0,0.0,0.0,0.0,0.0,0.0,0.0,0.0,0.0,0.0,0.0,0.0,0.0,0.0,0.0,0.0,0.0,0.0,0.0,0.0,0.0,0.0,0.0,0.0,0.0,0.0,0.0,0.0,0.0,0.0,0.0,0.0,0.0,0.0,0.0,0.0,0.0,0.0,0.0,0.0,0.0,0.0,0.0,0.0,0.0,0.0,0.0,0.0,0.0,0.0,0.0,0.0,0.0,0.0,0.0,0.0,0.0,0.0,0.0,0.0,0.0,0.0,0.0,0.0,0.0,0.0,0.0,0.0,0.0,0.0,0.0,1.4583,1.5091,1.561,1.5654,0.0,0.0,0.0,0.0,0.0,0.0,0.0,0.0,0.0,0.0,0.0,0.0,0.0,0.0,0.0,0.0,0.0,0.0,0.0,0.0,0.0,0.0,0.0,0.0,0.0,0.0,0.0,0.0,0.0,0.0,0.0,0.0,0.0,0.0,0.0,0.0,0.0,0.0,0.0,0.0,0.0,0.0,0.0,0.0,0.0,0.0,0.0,0.0,0.0,0.0,0.0,0.0,0.0,0.0,0.0,0.0,0.0,0.0,0.0,0.0,0.0,0.0,0.0,0.0,0.0,0.0,0.0,0.0,0.0,0.0,0.0,0.0,0.0,0.0,0.0,0.0,0.0,0.0,0.0,0.0,0.0,0.0,0.0,0.0,0.0,0.0,0.0,0.0,0.0,0.0,0.0,0.0,0.0,0.0,0.0,0.0,0.0,0.0,0.0,0.0,0.0,0.0,0.0,0.0,0.0,0.0,0.0,0.0,0.0,0.0,1.4561,1.5082,1.5903,1.6474,1.6492,1.5945,0.0,0.0,0.0,0.0,0.0,0.0,0.0,0.0,0.0,0.0,0.0,0.0,0.0,0.0,0.0,0.0,0.0,0.0,0.0,0.0,0.0,0.0,0.0,0.0,0.0,0.0,0.0,0.0,0.0,0.0,0.0,0.0,0.0,0.0,0.0,0.0,0.0,0.0,0.0,0.0,0.0,0.0,0.0,0.0,0.0,0.0,0.0,0.0,0.0,0.0,0.0,0.0,0.0,0.0,0.0,0.0,0.0,0.0,0.0,0.0,0.0,0.0,0.0,0.0,0.0,0.0,0.0,0.0,0.0,0.0,0.0,0.0,0.0,0.0,0.0,0.0,0.0,0.0,0.0,0.0,0.0,0.0,0.0,0.0,0.0,0.0,0.0,0.0,0.0,0.0,0.0,0.0,0.0,0.0,0.0,0.0,0.0,0.0,0.0,0.0,0.0,0.0,0.0,0.0,0.0,0.0,0.0,0.0,1.4318,1.5103,1.5924,1.6678,1.6729,1.6729,0.0,0.0,0.0,0.0,0.0,0.0,0.0,0.0,0.0,0.0,0.0,0.0,0.0,0.0,0.0,0.0,0.0,0.0,0.0,0.0,0.0,0.0,0.0,0.0,0.0,0.0,0.0,0.0,0.0,0.0,0.0,0.0,0.0,0.0,0.0,0.0,0.0,0.0,0.0,0.0,0.0,0.0,0.0,0.0,0.0,0.0,0.0,0.0,0.0,0.0,0.0,0.0,0.0,0.0,0.0,0.0,0.0,0.0,0.0,0.0,0.0,0.0,0.0,0.0,0.0,0.0,0.0,0.0,0.0,0.0,0.0,0.0,0.0,0.0,0.0,0.0,0.0,0.0,0.0,0.0,0.0,0.0,0.0,0.0,0.0,0.0,0.0,0.0,0.0,0.0,0.0,0.0,0.0,0.0,0.0,0.0,0.0,0.0,0.0,0.0,0.0,0.0,0.0,0.0,0.0,0.0,0.0,0.0,0.0,1.4383,1.5571,1.6407,1.6744,1.77,1.8005,0.0,0.0,0.0,0.0,0.0,0.0,0.0,0.0,0.0,0.0,0.0,0.0,0.0,0.0,0.0,0.0,0.0,0.0,0.0,0.0,0.0,0.0,0.0,0.0,0.0,0.0,0.0,0.0,0.0,0.0,0.0,0.0,0.0,0.0,0.0,0.0,0.0,0.0,0.0,0.0,0.0,0.0,0.0,0.0,0.0,0.0,0.0,0.0,0.0,0.0,0.0,0.0,0.0,0.0,0.0,0.0,0.0,0.0,0.0,0.0,0.0,0.0,0.0,0.0,0.0,0.0,0.0,0.0,0.0,0.0,0.0,0.0,0.0,0.0,0.0,0.0,0.0,0.0,0.0,0.0,0.0,0.0,0.0,0.0,0.0,0.0,0.0,0.0,0.0,0.0,0.0,0.0,0.0,0.0,0.0,0.0,0.0,0.0,0.0,0.0,0.0,0.0,0.0,0.0,0.0,0.0,0.0,0.0,0.0,1.5486,0.0,1.7181,1.7487,1.8526,1.8856,0.0,0.0,0.0,0.0,0.0,0.0,0.0,0.0,0.0,0.0,0.0,0.0,0.0,0.0,0.0,0.0,0.0,0.0,0.0,0.0,0.0,0.0,0.0,0.0,0.0,0.0,0.0,0.0,0.0,0.0,0.0,0.0,0.0,0.0,0.0,0.0,0.0,0.0,0.0,0.0,0.0,0.0,0.0,0.0,0.0,0.0,0.0,0.0,0.0,0.0,0.0,0.0,0.0,0.0,0.0,0.0,0.0,0.0,0.0,0.0,0.0,0.0,0.0,0.0,0.0,0.0,0.0,0.0,0.0,0.0,0.0,0.0,0.0,0.0,0.0,0.0,0.0,0.0,0.0,0.0,0.0,0.0,0.0,0.0,0.0,0.0,0.0,0.0,0.0,0.0,0.0,0.0,0.0,0.0,0.0,0.0,0.0,0.0,0.0,0.0,0.0,0.0,0.0,0.0,0.0,0.0,0.0,0.0,1.693,1.7744,1.7822,1.8204,1.9041,1.9081,1.9099,0.0,0.0,0.0,0.0,0.0,0.0,0.0,0.0,0.0,0.0,0.0,0.0,0.0,0.0,0.0,0.0,0.0,0.0,0.0,0.0,0.0,0.0,0.0,0.0,0.0,0.0,0.0,0.0,0.0,0.0,0.0,0.0,0.0,0.0,0.0,0.0,0.0,0.0,0.0,0.0,0.0,0.0,0.0,0.0,0.0,0.0,0.0,0.0,0.0,0.0,0.0,0.0,0.0,0.0,0.0,0.0,0.0,0.0,0.0,0.0,0.0,0.0,0.0,0.0,0.0,0.0,0.0,0.0,0.0,0.0,0.0,0.0,0.0,0.0,0.0,0.0,0.0,0.0,0.0,0.0,0.0,0.0,0.0,0.0,0.0,0.0,0.0,0.0,0.0,0.0,0.0,0.0,0.0,0.0,0.0,0.0,0.0,0.0,0.0,0.0,0.0,0.0,0.0,0.0,0.0,0.0,0.0,0.0,0.0,1.8613,1.8107,1.8226,1.9059,1.9102,1.9111,0.0,0.0,0.0,0.0,0.0,0.0,0.0,0.0,0.0,0.0,0.0,0.0,0.0,0.0,0.0,0.0,0.0,0.0,0.0,0.0,0.0,0.0,0.0,0.0,0.0,0.0,0.0,0.0,0.0,0.0,0.0,0.0,0.0,0.0,0.0,0.0,0.0,0.0,0.0,0.0,0.0,0.0,0.0,0.0,0.0,0.0,0.0,0.0,0.0,0.0,0.0,0.0,0.0,0.0,0.0,0.0,0.0,0.0,0.0,0.0,0.0,0.0,0.0,0.0,0.0,0.0,0.0,0.0,0.0,0.0,0.0,0.0,0.0,0.0,0.0,0.0,0.0,0.0,0.0,0.0,0.0,0.0,0.0,0.0,0.0,0.0,0.0,0.0,0.0,0.0,0.0,0.0,0.0,0.0,0.0,0.0,0.0,0.0,0.0,0.0,0.0,0.0,0.0,0.0,0.0,0.0,0.0,0.0,0.0,1.9785,1.9286,1.9214,1.9665,1.9772,1.9547,1.9025,0.0,0.0,0.0,0.0,0.0,0.0,0.0,0.0,0.0,0.0,0.0,0.0,0.0,0.0,0.0,0.0,0.0,0.0,0.0,0.0,0.0,0.0,0.0,0.0,0.0,0.0,0.0,0.0,0.0,0.0,0.0,0.0,0.0,0.0,0.0,0.0,0.0,0.0,0.0,0.0,0.0,0.0,0.0,0.0,0.0,0.0,0.0,0.0,0.0,0.0,0.0,0.0,0.0,0.0,0.0,0.0,0.0,0.0,0.0,0.0,0.0,0.0,0.0,0.0,0.0,0.0,0.0,0.0,0.0,0.0,0.0,0.0,0.0,0.0,0.0,0.0,0.0,0.0,0.0,0.0,0.0,0.0,0.0,0.0,0.0,0.0,0.0,0.0,0.0,0.0,0.0,0.0,0.0,0.0,0.0,0.0,0.0,0.0,0.0,0.0,0.0,0.0,0.0,0.0,0.0,0.0,0.0,0.0,2.1299,2.127,2.1155,2.0885,2.0981,2.0357,0.0,0.0,0.0,0.0,0.0,0.0,0.0,0.0,0.0,0.0,0.0,0.0,0.0,0.0,0.0,0.0,0.0,0.0,0.0,0.0,0.0,0.0,0.0,0.0,0.0,0.0,0.0,0.0,0.0,0.0,0.0,0.0,0.0,0.0,0.0,0.0,0.0,0.0,0.0,0.0,0.0,0.0,0.0,0.0,0.0,0.0,0.0,0.0,0.0,0.0,0.0,0.0,0.0,0.0,0.0,0.0,0.0,0.0,0.0,0.0,0.0,0.0,0.0,0.0,0.0,0.0,0.0,0.0,0.0,0.0,0.0,0.0,0.0,0.0,0.0,0.0,0.0,0.0,0.0,0.0,0.0,0.0,0.0,0.0,0.0,0.0,0.0,0.0,0.0,0.0,0.0,0.0,0.0,0.0,0.0,0.0,0.0,0.0,0.0,0.0,0.0,0.0,0.0,0.0,0.0,0.0,0.0,0.0,0.0,2.2663,2.3862,2.3952,2.2862,2.1826,2.112,0.0,0.0,0.0,0.0,0.0,0.0,0.0,0.0,0.0,0.0,0.0,0.0,0.0,0.0,0.0,0.0,0.0,0.0,0.0,0.0,0.0,0.0,0.0,0.0,0.0,0.0,0.0,0.0,0.0,0.0,0.0,0.0,0.0,0.0,0.0,0.0,0.0,0.0,0.0,0.0,0.0,0.0,0.0,0.0,0.0,0.0,0.0,0.0,0.0,0.0,0.0,0.0,0.0,0.0,0.0,0.0,0.0,0.0,0.0,0.0,0.0,0.0,0.0,0.0,0.0,0.0,0.0,0.0,0.0,0.0,0.0,0.0,0.0,0.0,0.0,0.0,0.0,0.0,0.0,0.0,0.0,0.0,0.0,0.0,0.0,0.0,0.0,0.0,0.0,0.0,0.0,0.0,0.0,0.0,0.0,0.0,0.0,0.0,0.0,0.0,0.0,0.0,0.0,0.0,0.0,0.0,0.0,0.0,2.2812,2.3827,2.6375,2.7364,2.66,2.3761,2.2103,0.0,0.0,0.0,0.0,0.0,0.0,0.0,0.0,0.0,0.0,0.0,0.0,0.0,0.0,0.0,0.0,0.0,0.0,0.0,0.0,0.0,0.0,0.0,0.0,0.0,0.0,0.0,0.0,0.0,0.0,0.0,0.0,0.0,0.0,0.0,0.0,0.0,0.0,0.0,0.0,0.0,0.0,0.0,0.0,0.0,0.0,0.0,0.0,0.0,0.0,0.0,0.0,0.0,0.0,0.0,0.0,0.0,0.0,0.0,0.0,0.0,0.0,0.0,0.0,0.0,0.0,0.0,0.0,0.0,0.0,0.0,0.0,0.0,0.0,0.0,0.0,0.0,0.0,0.0,0.0,0.0,0.0,0.0,0.0,0.0,0.0,0.0,0.0,0.0,0.0,0.0,0.0,0.0,0.0,0.0,0.0,0.0,0.0,0.0,0.0,0.0,0.0,0.0,0.0,0.0,0.0,0.0,0.0,2.4628,2.5043,2.8627,3.0563,3.051,2.611,2.3368,0.0,0.0,0.0,0.0,0.0,0.0,0.0,0.0,0.0,0.0,0.0,0.0,0.0,0.0,0.0,0.0,0.0,0.0,0.0,0.0,0.0,0.0,0.0,0.0,0.0,0.0,0.0,0.0,0.0,0.0,0.0,0.0,0.0,0.0,0.0,0.0,0.0,0.0,0.0,0.0,0.0,0.0,0.0,0.0,0.0,0.0,0.0,0.0,0.0,0.0,0.0,0.0,0.0,0.0,0.0,0.0,0.0,0.0,0.0,0.0,0.0,0.0,0.0,0.0,0.0,0.0,0.0,0.0,0.0,0.0,0.0,0.0,0.0,0.0,0.0,0.0,0.0,0.0,0.0,0.0,0.0,0.0,0.0,0.0,0.0,0.0,0.0,0.0,0.0,0.0,0.0,0.0,0.0,0.0,0.0,0.0,0.0,0.0,0.0,0.0,0.0,0.0,0.0,0.0,0.0,0.0,0.0,0.0,2.5859,2.6985,2.9501,3.0653,3.0305,2.7152,2.5392,0.0,0.0,0.0,0.0,0.0,0.0,0.0,0.0,0.0,0.0,0.0,0.0,0.0,0.0,0.0,0.0,0.0,0.0,0.0,0.0,0.0,0.0,0.0,0.0,0.0,0.0,0.0,0.0,0.0,0.0,0.0,0.0,0.0,0.0,0.0,0.0,0.0,0.0,0.0,0.0,0.0,0.0,0.0,0.0,0.0,0.0,0.0,0.0,2.4748,0.0,0.0,0.0,0.0,0.0,0.0,0.0,0.0,0.0,0.0,0.0,0.0,0.0,0.0,0.0,0.0,0.0,0.0,0.0,0.0,0.0,0.0,0.0,0.0,0.0,0.0,0.0,0.0,0.0,0.0,0.0,0.0,0.0,0.0,0.0,0.0,0.0,0.0,0.0,0.0,0.0,0.0,0.0,0.0,0.0,0.0,0.0,0.0,0.0,0.0,0.0,0.0,0.0,0.0,0.0,0.0,0.0,0.0,0.0,2.7028,2.8478,3.0717,3.1802,3.1584,2.9438,2.7773,0.0,0.0,0.0,0.0,0.0,0.0,0.0,0.0,0.0,0.0,0.0,0.0,0.0,0.0,0.0,0.0,0.0,0.0,0.0,0.0,0.0,0.0,0.0,0.0,0.0,0.0,0.0,0.0,0.0,0.0,0.0,0.0,0.0,0.0,0.0,0.0,0.0,0.0,0.0,0.0,0.0,0.0,0.0,0.0,0.0,0.0,0.0,0.0,0.0,0.0,0.0,0.0,0.0,0.0,0.0,0.0,0.0,0.0,0.0,0.0,0.0,0.0,0.0,0.0,0.0,0.0,0.0,0.0,0.0,0.0,0.0,0.0,0.0,0.0,0.0,0.0,0.0,0.0,0.0,0.0,0.0,0.0,0.0,0.0,0.0,0.0,0.0,0.0,0.0,0.0,0.0,0.0,0.0,0.0,0.0,0.0,0.0,0.0,0.0,0.0,0.0,0.0,0.0,0.0,0.0,0.0,0.0,2.627,2.8163,2.9937,3.1997,3.3114,3.3173,3.1661,2.9801,2.7658,0.0,0.0,0.0,0.0,0.0,0.0,0.0,0.0,0.0,0.0,0.0,0.0,0.0,0.0,0.0,0.0,0.0,0.0,0.0,0.0,0.0,0.0,0.0,0.0,0.0,0.0,0.0,0.0,0.0,0.0,0.0,0.0,0.0,0.0,0.0,0.0,0.0,0.0,2.3303,2.324,0.0,0.0,0.0,0.0,0.0,0.0,0.0,0.0,2.7019,0.0,0.0,0.0,0.0,0.0,0.0,0.0,0.0,0.0,0.0,0.0,0.0,0.0,0.0,0.0,0.0,0.0,0.0,0.0,0.0,0.0,0.0,0.0,0.0,0.0,0.0,0.0,0.0,0.0,0.0,0.0,0.0,0.0,0.0,0.0,0.0,0.0,0.0,0.0,0.0,0.0,0.0,0.0,0.0,0.0,0.0,0.0,0.0,0.0,0.0,0.0,0.0,0.0,0.0,0.0,0.0,2.7375,2.7939,2.939,3.1849,3.2832,3.3165,3.2779,3.1618,3.0161,2.8455,0.0,0.0,0.0,0.0,0.0,0.0,0.0,0.0,0.0,0.0,0.0,0.0,0.0,0.0,0.0,0.0,0.0,0.0,0.0,0.0,0.0,0.0,0.0,0.0,0.0,0.0,0.0,0.0,0.0,0.0,0.0,0.0,0.0,0.0,0.0,0.0,0.0,0.0,0.0,2.4704,2.4678,0.0,0.0,0.0,0.0,0.0,0.0,0.0,0.0,2.8131,0.0,0.0,0.0,0.0,0.0,0.0,0.0,0.0,0.0,0.0,0.0,0.0,0.0,0.0,0.0,0.0,0.0,0.0,0.0,0.0,0.0,0.0,0.0,0.0,0.0,0.0,0.0,0.0,0.0,0.0,0.0,0.0,0.0,0.0,0.0,0.0,0.0,0.0,0.0,0.0,0.0,0.0,0.0,0.0,0.0,0.0,0.0,0.0,0.0,0.0,0.0,0.0,0.0,0.0,0.0,2.8077,2.8719,2.9984,3.2007,3.2045,3.212,3.2299,3.0963,2.9692,0.0,0.0,0.0,0.0,0.0,0.0,0.0,0.0,0.0,0.0,0.0,0.0,0.0,0.0,0.0,0.0,0.0,0.0,0.0,0.0,0.0,0.0,0.0,0.0,0.0,0.0,0.0,0.0,0.0,0.0,0.0,0.0,0.0,0.0,0.0,0.0,0.0,0.0,0.0,0.0,2.6458,2.6688,2.8657,0.0,0.0,0.0,0.0,0.0,0.0,2.8506,2.8341,0.0,0.0,0.0,0.0,0.0,0.0,0.0,0.0,0.0,0.0,0.0,0.0,0.0,0.0,0.0,0.0,0.0,0.0,0.0,0.0,0.0,0.0,0.0,0.0,0.0,0.0,0.0,0.0,0.0,0.0,0.0,0.0,0.0,0.0,0.0,0.0,0.0,0.0,0.0,0.0,0.0,0.0,0.0,0.0,0.0,0.0,0.0,0.0,0.0,0.0,0.0,0.0,0.0,0.0,0.0,2.7678,2.8738,3.0009,3.1467,3.1016,3.106,3.1682,2.9864,2.8649,0.0,0.0,0.0,0.0,0.0,0.0,0.0,0.0,0.0,0.0,0.0,0.0,0.0,0.0,0.0,0.0,0.0,0.0,0.0,0.0,0.0,0.0,0.0,0.0,0.0,0.0,0.0,0.0,0.0,0.0,0.0,0.0,0.0,0.0,0.0,0.0,0.0,0.0,0.0,0.0,0.0,2.8338,2.9858,2.8792,0.0,0.0,0.0,0.0,2.8319,2.8747,0.0,0.0,0.0,0.0,0.0,0.0,0.0,0.0,0.0,0.0,0.0,0.0,0.0,0.0,0.0,0.0,0.0,0.0,0.0,0.0,0.0,0.0,0.0,0.0,0.0,0.0,0.0,0.0,0.0,0.0,0.0,0.0,0.0,0.0,0.0,0.0,0.0,0.0,0.0,0.0,0.0,0.0,0.0,0.0,0.0,0.0,0.0,0.0,0.0,0.0,0.0,0.0,0.0,0.0,0.0,0.0,2.6062,2.764,2.9202,3.074,3.0812,3.083,3.0891,2.8048,2.6807,0.0,0.0,0.0,0.0,0.0,0.0,0.0,0.0,0.0,0.0,0.0,0.0,0.0,0.0,0.0,0.0,0.0,0.0,0.0,0.0,0.0,0.0,0.0,0.0,0.0,0.0,0.0,0.0,0.0,0.0,0.0,0.0,0.0,0.0,0.0,0.0,0.0,0.0,0.0,0.0,0.0,2.8284,2.9881,2.8776,2.781,0.0,0.0,3.012,3.0106,3.1414,0.0,0.0,0.0,0.0,0.0,0.0,0.0,0.0,0.0,0.0,0.0,0.0,0.0,0.0,0.0,0.0,0.0,0.0,0.0,0.0,0.0,0.0,0.0,0.0,0.0,0.0,0.0,0.0,0.0,0.0,0.0,0.0,0.0,0.0,0.0,0.0,0.0,0.0,0.0,0.0,0.0,0.0,0.0,0.0,0.0,0.0,0.0,0.0,0.0,0.0,0.0,0.0,0.0,0.0,0.0,2.5134,2.5872,2.8272,2.9876,3.0563,3.0624,3.0854,3.1284,2.8257,2.7037,0.0,0.0,0.0,0.0,0.0,0.0,0.0,0.0,0.0,0.0,0.0,0.0,0.0,0.0,0.0,0.0,0.0,0.0,0.0,0.0,0.0,0.0,0.0,0.0,0.0,0.0,0.0,0.0,0.0,0.0,0.0,0.0,0.0,0.0,0.0,0.0,0.0,0.0,0.0,0.0,0.0,0.0,3.0026,2.9567,0.0,0.0,0.0,3.0852,3.0412,0.0,0.0,0.0,0.0,0.0,0.0,0.0,0.0,0.0,0.0,0.0,0.0,0.0,0.0,0.0,0.0,0.0,0.0,0.0,0.0,0.0,0.0,0.0,0.0,0.0,0.0,0.0,0.0,0.0,0.0,0.0,0.0,0.0,0.0,0.0,0.0,0.0,0.0,0.0,0.0,0.0,0.0,0.0,0.0,0.0,0.0,0.0,0.0,0.0,0.0,0.0,0.0,0.0,0.0,0.0,0.0,0.0,2.5848,2.8905,3.0478,3.0478,3.0478,3.0796,3.1332,2.8737,0.0,0.0,0.0,0.0,0.0,0.0,0.0,0.0,0.0,0.0,0.0,0.0,0.0,0.0,0.0,0.0,0.0,0.0,0.0,0.0,0.0,0.0,0.0,0.0,0.0,0.0,0.0,2.5584,0.0,0.0,0.0,0.0,0.0,0.0,0.0,0.0,0.0,0.0,0.0,0.0,0.0,0.0,3.0864,3.0765,3.0779,3.1196,0.0,0.0,3.1758,3.1623,3.4129,3.4976,0.0,0.0,0.0,0.0,0.0,0.0,0.0,0.0,0.0,0.0,0.0,0.0,0.0,0.0,0.0,0.0,0.0,0.0,0.0,0.0,0.0,0.0,0.0,0.0,0.0,0.0,0.0,0.0,0.0,0.0,0.0,0.0,0.0,0.0,0.0,0.0,0.0,0.0,0.0,0.0,0.0,0.0,0.0,0.0,0.0,0.0,0.0,0.0,0.0,0.0,0.0,0.0,0.0,0.0,2.514,2.5866,2.8916,3.0539,3.0496,3.0478,3.0521,3.0547,2.9039,2.7924,0.0,0.0,0.0,0.0,0.0,0.0,0.0,0.0,0.0,0.0,0.0,0.0,0.0,0.0,0.0,0.0,0.0,0.0,0.0,0.0,0.0,0.0,0.0,0.0,0.0,0.0,0.0,0.0,0.0,0.0,0.0,0.0,0.0,0.0,0.0,0.0,0.0,0.0,0.0,0.0,0.0,3.2534,3.2527,3.2546,3.3119,0.0,3.371,3.325,3.4801,3.6589,3.6687,3.3282,0.0,0.0,0.0,0.0,0.0,0.0,0.0,0.0,0.0,0.0,0.0,0.0,0.0,0.0,0.0,0.0,0.0,0.0,0.0,0.0,0.0,0.0,0.0,0.0,0.0,0.0,0.0,0.0,0.0,0.0,0.0,0.0,0.0,0.0,0.0,0.0,0.0,0.0,0.0,0.0,0.0,0.0,0.0,0.0,0.0,0.0,0.0,0.0,0.0,0.0,0.0,0.0,0.0,2.6785,2.7297,3.0853,3.2715,3.2733,3.3153,3.3385,3.3411,3.1969,3.0614,0.0,0.0,0.0,0.0,0.0,0.0,0.0,0.0,0.0,0.0,0.0,0.0,0.0,0.0,0.0,0.0,0.0,0.0,0.0,0.0,0.0,0.0,0.0,0.0,0.0,0.0,0.0,0.0,2.9861,3.0174,2.9238,0.0,0.0,0.0,0.0,0.0,0.0,0.0,0.0,0.0,0.0,3.3171,3.4105,3.4297,0.0,0.0,3.5606,3.5243,3.5425,3.6881,3.6846,3.3458,3.2933,0.0,0.0,0.0,0.0,0.0,0.0,0.0,0.0,0.0,0.0,0.0,0.0,0.0,0.0,0.0,0.0,0.0,0.0,0.0,0.0,0.0,0.0,0.0,0.0,0.0,0.0,0.0,0.0,0.0,0.0,0.0,0.0,0.0,0.0,0.0,0.0,0.0,0.0,0.0,0.0,0.0,0.0,0.0,0.0,0.0,0.0,0.0,0.0,0.0,0.0,0.0,0.0,2.8435,2.8891,3.2555,3.4428,3.4454,3.4945,3.5195,3.5159,3.4224,3.2988,0.0,0.0,0.0,0.0,0.0,0.0,0.0,0.0,0.0,0.0,0.0,0.0,0.0,0.0,0.0,0.0,0.0,0.0,0.0,0.0,0.0,0.0,0.0,0.0,0.0,0.0,0.0,0.0,3.1038,3.1257,3.0175,0.0,0.0,0.0,0.0,0.0,0.0,0.0,0.0,0.0,0.0,3.4542,3.5151,3.5304,3.5606,3.6212,3.5881,3.553,3.5516,3.6484,3.6442,3.4066,0.0,0.0,0.0,0.0,0.0,0.0,0.0,0.0,0.0,0.0,0.0,0.0,0.0,0.0,0.0,0.0,0.0,0.0,0.0,0.0,0.0,0.0,0.0,0.0,0.0,0.0,0.0,1.623,0.0,0.0,1.661,0.0,0.0,0.0,0.0,0.0,0.0,0.0,0.0,0.0,0.0,0.0,0.0,0.0,0.0,0.0,0.0,0.0,0.0,0.0,0.0,0.0,0.0,2.9733,3.0486,3.3599,3.5186,3.5213,3.5195,3.5248,3.5248,3.5306,3.4595,3.3006,0.0,0.0,0.0,0.0,0.0,0.0,0.0,0.0,0.0,0.0,0.0,0.0,0.0,0.0,0.0,0.0,0.0,0.0,0.0,0.0,0.0,0.0,0.0,0.0,0.0,0.0,2.7926,2.9048,3.0029,0.0,0.0,0.0,0.0,0.0,0.0,0.0,0.0,0.0,3.2697,3.5584,3.6999,3.5507,3.5308,3.5369,3.5498,3.4122,3.3617,3.5262,3.5519,3.5523,0.0,0.0,0.0,0.0,0.0,0.0,0.0,0.0,0.0,0.0,0.0,0.0,0.0,0.0,0.0,0.0,0.0,0.0,0.0,0.0,0.0,0.0,0.0,0.0,0.0,0.0,0.0,1.7531,1.7538,0.0,0.0,0.0,0.0,0.0,0.0,0.0,0.0,0.0,0.0,0.0,2.3342,2.4017,0.0,0.0,0.0,0.0,0.0,0.0,0.0,0.0,0.0,0.0,0.0,0.0,3.1283,3.2075,3.4845,3.6483,3.6783,3.68,3.68,3.68,3.696,3.6093,3.405,0.0,0.0,0.0,0.0,0.0,0.0,0.0,0.0,0.0,0.0,0.0,0.0,0.0,0.0,0.0,0.0,0.0,0.0,0.0,0.0,0.0,0.0,0.0,0.0,0.0,3.0753,0.0,0.0,0.0,0.0,0.0,0.0,0.0,0.0,0.0,0.0,3.1919,3.2825,3.4305,3.4499,3.4709,3.5288,3.5409,3.5834,0.0,0.0,0.0,0.0,0.0,0.0,0.0,0.0,0.0,0.0,0.0,0.0,0.0,0.0,3.3423,3.2272,3.3003,3.3808,3.3788,0.0,0.0,0.0,0.0,0.0,0.0,0.0,0.0,0.0,0.0,0.0,0.0,0.0,0.0,1.8866,1.8478,1.8928,0.0,0.0,0.0,0.0,0.0,0.0,0.0,0.0,2.4813,2.5912,2.6388,2.7057,2.7332,0.0,2.7063,2.6184,0.0,0.0,0.0,0.0,0.0,0.0,0.0,0.0,3.1895,3.2458,3.5364,3.7054,3.7338,3.7539,3.7595,3.7595,3.7802,3.7205,3.577,3.4261,3.2726,0.0,0.0,0.0,0.0,0.0,0.0,0.0,0.0,0.0,0.0,0.0,0.0,0.0,0.0,0.0,0.0,0.0,0.0,0.0,0.0,0.0,0.0,0.0,3.2113,0.0,0.0,0.0,0.0,0.0,0.0,0.0,0.0,0.0,3.268,3.3249,3.4094,3.5197,3.4939,3.4625,3.4543,0.0,0.0,0.0,0.0,0.0,0.0,0.0,3.2769,3.225,3.267,3.3445,3.4491,3.5119,3.5503,3.5503,0.0,0.0,3.4122,3.4728,3.5498,3.5503,3.5049,3.4857,3.5377,3.5078,3.486,0.0,0.0,0.0,0.0,0.0,0.0,0.0,0.0,2.101,2.0353,0.0,2.0551,0.0,0.0,0.0,0.0,2.3616,2.5189,0.0,0.0,2.9475,3.0081,2.8724,2.9362,2.9643,2.9456,2.888,2.888,2.9423,2.8725,0.0,0.0,0.0,0.0,0.0,0.0,3.1674,3.1976,3.5192,3.69,3.6949,3.7374,3.7595,3.7622,3.7811,3.7907,3.7929,3.6602,3.5934,3.6033,3.3376,0.0,0.0,0.0,0.0,0.0,0.0,0.0,0.0,0.0,0.0,0.0,0.0,0.0,0.0,0.0,0.0,0.0,0.0,0.0,0.0,3.2606,0.0,0.0,0.0,0.0,0.0,0.0,0.0,0.0,0.0,3.2905,3.2937,3.419,3.5232,3.5274,0.0,0.0,0.0,0.0,3.4273,3.1195,3.0618,3.0695,3.0785,3.2072,3.3625,3.518,0.0,0.0,3.798,3.6699,3.5776,3.5696,3.7161,3.7698,3.6075,3.5833,3.5823,3.5809,3.5901,3.5768,3.5718,3.6019,3.599,2.2407,0.0,0.0,0.0,0.0,2.1478,2.2404,2.3865,2.389,2.3941,2.4036,2.4433,0.0,0.0,0.0,0.0,0.0,0.0,2.7414,2.8325,3.0079,3.0962,3.1106,3.1671,3.1936,3.1876,3.1596,3.1829,3.2497,3.2304,3.1002,2.8727,0.0,0.0,0.0,0.0,3.246,3.4066,3.5928,3.7063,3.7402,3.7531,3.7676,3.7819,3.7864,3.7977,3.814,3.7923,3.7299,3.6229,3.5733,0.0,0.0,0.0,0.0,0.0,0.0,0.0,0.0,0.0,0.0,0.0,0.0,0.0,0.0,0.0,0.0,0.0,0.0,0.0,3.2503,3.3625,3.3621,0.0,0.0,0.0,0.0,0.0,0.0,0.0,0.0,0.0,3.4639,3.4014,3.3588,0.0,0.0,3.2196,3.1228,3.2602,3.3795,3.399,3.4073,0.0,3.5575,3.5261,3.4982,3.5383,3.6911,3.8079,3.8064,3.8647,3.9144,3.9129,4.0064,4.0637,4.0193,3.9548,3.9166,3.914,3.9153,3.9164,3.9138,3.916,3.9325,2.5937,2.4741,2.3686,2.3665,2.4326,2.4523,2.5449,2.6855,2.6948,2.6755,2.6366,2.6931,2.6402,2.5121,2.572,0.0,0.0,0.0,2.9372,3.0726,3.1523,3.2122,3.2538,3.2847,3.2838,3.2544,3.2457,3.2807,3.3522,3.2868,3.1895,3.0499,0.0,2.9396,3.0099,3.1385,3.2813,3.4354,3.5856,3.685,3.731,3.7522,3.7712,3.789,3.7934,3.8011,3.82,3.8473,3.8149,3.7199,3.7043,3.6111,0.0,0.0,0.0,0.0,0.0,0.0,0.0,0.0,0.0,0.0,0.0,3.2417,3.1481,0.0,0.0,0.0,3.361,3.3601,3.3612,3.3969,0.0,0.0,0.0,0.0,0.0,0.0,0.0,3.1718,3.407,3.587,3.5898,3.5371,3.4948,3.4927,3.3967,3.3044,3.2426,0.0,3.5411,3.5794,3.6169,3.6757,3.7658,3.7633,3.7662,3.832,3.9351,4.0083,4.0165,4.0983,4.1597,4.1674,4.2074,4.2424,4.2407,4.1996,4.1645,4.164,4.1658,4.1652,4.1642,4.163,4.1833,2.8822,2.8627,2.626,2.5932,2.7028,2.7476,2.8356,2.9533,2.9776,2.8816,2.718,2.8395,2.7445,2.5012,2.6396,0.0,3.0833,3.0863,3.172,3.3301,3.3322,3.3218,3.3045,3.3035,3.2635,3.193,3.193,3.2311,3.3003,3.1637,3.1589,3.2856,3.2729,3.1935,3.0701,3.1846,3.2811,3.3518,3.5211,3.64,3.6968,3.7458,3.7775,3.7908,3.7967,3.8061,3.8191,3.8478,3.862,3.8598,3.7733,3.718,3.6941,0.0,0.0,0.0,0.0,0.0,0.0,0.0,0.0,0.0,0.0,0.0,0.0,0.0,0.0,3.5063,3.5369,0.0,3.5518,3.4178,0.0,0.0,0.0,3.3861,3.5441,3.572,3.576,3.5633,0.0,0.0,3.7014,3.7762,3.8315,3.8407,3.7953,3.7124,3.5707,3.7377,3.8342,3.7069,3.7587,3.8151,3.8531,3.9561,4.0893,4.229,4.3135,4.3014,4.2991,4.3049,4.3165,4.3107,4.3255,4.3296,4.3319,4.3381,4.3478,4.3418,4.3276,4.3214,4.3116,4.3107,4.3182,2.9935,3.0139,3.0008,2.9542,2.8869,2.8969,2.9326,2.9798,2.9885,2.9885,2.9917,3.0257,3.031,3.0196,3.0564,3.1184,3.2011,3.2276,3.238,3.243,3.2629,3.2374,3.175,3.1581,3.1422,3.1251,3.119,3.183,3.3037,3.2714,3.2687,3.2949,3.2928,3.2273,3.1102,3.1368,3.2495,3.4361,3.4932,3.6012,3.7604,3.7784,3.789,3.7958,3.7984,3.8061,3.8191,3.8666,3.8907,3.891,3.9095,3.8626,3.7351,3.5409,0.0,0.0,0.0,0.0,0.0,0.0,0.0,0.0,0.0,3.2311,3.1119,0.0,3.2905,0.0,3.5776,3.7258,3.723,3.7428,0.0,0.0,3.6599,3.6932,3.7397,3.8574,3.8888,3.7597,3.8772,3.9693,3.9748,3.9904,4.0494,4.17,3.9655,3.7846,3.7519,3.9,4.011,3.9867,4.0922,4.1912,4.1781,4.2132,4.2637,4.3136,4.3267,4.3255,4.3231,4.3208,4.3208,4.3266,4.3772,4.4153,4.4255,4.4752,4.5142,4.5086,4.4184,4.3301,4.3275,4.3298,4.3518,3.0887,3.1094,3.1578,3.1143,3.0142,3.0475,3.0684,3.0825,3.0841,3.0862,3.0872,3.0587,3.073,3.1234,3.1234,3.1446,3.186,3.2051,3.2042,3.1832,3.1975,3.1793,3.1295,3.1186,3.1124,3.1075,3.1052,3.1796,3.3165,3.3168,3.3465,3.4091,3.4047,3.3375,3.208,3.1493,3.1968,3.3403,3.4579,3.605,3.7818,3.7943,3.7788,3.7478,3.7529,3.7474,3.7314,3.7758,3.8029,3.8102,3.8235,3.8028,3.745,3.5515,3.4177,0.0,0.0,0.0,0.0,0.0,0.0,0.0,0.0,0.0,0.0,0.0,3.4029,3.4465,3.726,3.8734,3.7919,3.8308,3.8547,3.8438,3.8876,3.9475,4.0289,4.1206,4.1394,4.0482,4.1529,4.2351,4.2373,4.2701,4.3245,4.4245,4.2725,4.1208,4.0559,4.1374,4.2136,4.2248,4.337,4.4205,4.412,4.4185,4.4241,4.4318,4.4376,4.4384,4.4367,4.4364,4.4364,4.4383,4.477,4.5105,4.5139,4.5474,4.5794,4.5709,4.5115,4.4521,4.4417,4.4407,4.4588,3.1642,3.1682,3.1925,3.1667,3.1116,3.176,3.1934,3.1737,3.1737,3.1369,3.0726,3.0161,3.0038,3.0246,3.0282,3.0597,3.1075,3.1154,3.1298,3.146,3.1488,3.1494,3.1475,3.1422,3.1448,3.1478,3.1488,3.2188,3.3514,3.3408,3.3988,3.5178,3.521,3.446,3.3006,3.2146,3.1851,3.2115,3.4539,3.6495,3.7898,3.7786,3.7387,3.6721,3.6793,3.6648,3.6219,3.6513,3.6783,3.698,3.6666,3.6891,3.7708,3.5585,3.4729,0.0,3.4326,0.0,0.0,0.0,0.0,0.0,0.0,0.0,0.0,3.5715,3.6067,3.7003,3.9158,3.9992,3.8689,3.8719,3.9449,4.0911,4.1215,4.1881,4.3338,4.3539,4.3523,4.3542,4.4195,4.4677,4.4627,4.5348,4.5784,4.5679,4.5531,4.4794,4.372,4.3745,4.411,4.431,4.4967,4.5299,4.5324,4.549,4.5541,4.5587,4.5607,4.5803,4.5707,4.5726,4.5765,4.5745,4.5707,4.5768,4.5814,4.5805,4.5825,4.5889,4.5826,4.5769,4.5725,4.5689,4.5835,3.1925,3.1953,3.2089,3.2083,3.198,3.2215,3.1543,3.0301,3.0285,3.022,3.0091,2.9945,2.994,3.0,3.0193,3.0356,3.0497,3.1041,3.1281,3.1249,3.1431,3.1774,3.2254,3.215,3.2422,3.2966,3.299,3.3423,3.428,3.4264,3.4101,3.382,3.4384,3.3885,3.2498,0.0,0.0,0.0,3.6177,3.7738,3.8069,3.6874,3.615,3.5997,3.6021,0.0,3.6203,3.6521,3.682,3.7088,3.7249,0.0,0.0,0.0,0.0,0.0,0.0,0.0,0.0,0.0,0.0,0.0,3.8546,3.8061,3.7649,3.7539,3.8127,3.9604,4.0257,4.1042,4.2105,4.2845,4.3393,4.3728,4.4376,4.4958,4.5294,4.53,4.5302,4.5322,4.5448,4.5556,4.5543,4.5725,4.5803,4.5812,4.5803,4.5657,4.5307,4.5286,4.5414,4.551,4.5603,4.5715,4.5738,4.5753,4.576,4.5778,4.5782,4.5803,4.5803,4.5803,4.5807,4.5807,4.5803,4.5827,4.5861,4.587,4.5892,4.5953,4.5986,4.598,4.5969,4.5967,4.5972,3.3048,3.2775,3.3181,3.3101,0.0,3.2845,3.224,3.1141,3.1141,3.1097,3.0996,3.0588,3.0376,3.0404,3.0538,3.0805,3.1156,3.1665,3.214,3.2531,3.2424,3.2608,3.3046,3.2971,3.3113,3.3389,3.3389,3.3778,3.45,3.4861,3.5064,3.5109,3.5808,3.5785,3.5098,3.6641,3.7004,3.6075,3.7397,3.8493,3.9252,3.8546,3.7948,3.7612,3.7709,0.0,0.0,0.0,0.0,0.0,0.0,0.0,0.0,3.8961,0.0,4.0086,3.9828,4.0015,4.0933,4.1424,4.1842,4.2379,4.2374,4.1505,3.9494,4.0453,4.1517,4.2375,4.2857,4.347,4.4334,4.4836,4.5094,4.5156,4.5522,4.5815,4.5814,4.5812,4.5803,4.5803,4.5805,4.5805,4.5803,4.5824,4.586,4.5854,4.5858,4.5838,4.5835,4.5827,4.5803,4.5803,4.5803,4.5798,4.5848,4.5805,4.5821,4.5825,4.5811,4.5807,4.5803,4.5803,4.5814,4.5828,4.5858,4.588,4.5938,4.5955,4.5956,4.6025,4.6039,4.6051,4.6065,4.6037,4.601,3.3949,3.3594,3.4151,3.4044,3.3476,3.3624,3.3367,3.2825,3.2544,0.0,0.0,3.1461,3.1133,3.1116,3.1162,3.1522,3.2103,3.2497,3.3069,3.3768,3.3504,3.3499,3.3756,3.3756,3.3789,3.3812,3.392,3.432,3.4923,3.5645,3.6332,3.7004,3.7736,3.8243,3.8616,3.9981,4.0151,3.9071,3.8744,3.9206,4.0447,4.0229,3.9812,3.9204,3.9463,3.9468,3.9176,3.9507,3.984,4.0123,3.9519,3.9614,4.0554,3.9991,4.0071,4.1115,4.121,4.1868,4.3329,4.3457,4.4079,4.5507,4.5622,4.445,4.1697,4.3408,4.4661,4.4708,4.533,4.57,4.5727,4.5723,4.5746,4.5814,4.5828,4.5833,4.5841,4.5844,4.5851,4.5825,4.5838,4.5831,4.5828,4.5864,4.5895,4.5923,4.5926,4.5907,4.5898,4.5858,4.5803,4.5803,4.5803,4.5831,4.5883,4.5867,4.5854,4.5914,4.5883,4.5844,4.5825,4.5841,4.5867,4.5917,4.5907,4.5933,4.6002,4.6034,4.6032,4.61,4.6128,4.6119,4.6164,4.6126,4.6068,3.3282,3.3697,3.3899,3.4173,3.4507,3.4626,3.462,3.4443,3.304,3.2384,3.2344,3.212,3.2013,3.2025,3.2181,3.2328,3.248,3.3078,3.3334,3.3315,3.3529,3.3907,3.4363,3.4369,3.4703,3.5306,3.5977,3.6372,3.6547,3.7212,3.764,3.7838,3.8493,3.9561,4.0931,4.1633,4.2028,4.2185,4.089,4.0284,4.0483,3.9206,3.8514,3.8461,3.8787,3.9042,3.9351,3.9617,3.9897,4.0249,4.0185,4.0806,4.2298,4.2378,4.3047,4.4513,4.4728,4.4871,4.512,4.5198,4.5353,4.565,4.5688,4.5461,4.5046,4.5296,4.5541,4.5615,4.5719,4.5772,4.5805,4.5841,4.5854,4.589,4.5938,4.5972,4.595,4.5969,4.5969,4.5967,4.5929,4.5898,4.5933,4.5938,4.5922,4.5975,4.5989,4.5986,4.5947,4.5867,4.5814,4.5803,4.5803,4.5815,4.5886,4.5905,4.5904,4.5978,4.5978,4.5964,4.5961,4.5942,4.5969,4.5966,4.5969,4.6032,4.6075,4.6087,4.6104,4.6177,4.6185,4.619,4.6197,4.6185,4.6179,3.3135,3.3374,3.3819,3.4259,3.4703,3.4823,3.4911,3.4849,3.4086,3.3724,3.3576,3.301,3.2753,3.2753,3.2793,3.2934,3.3143,3.3838,3.4248,3.4404,3.4541,3.4809,3.5081,3.5181,3.5559,3.6242,3.6655,3.7028,3.7444,3.8142,3.8625,3.8932,3.9864,4.0904,4.1923,4.2126,4.247,4.3032,4.2213,4.1814,4.1778,4.1117,4.086,4.1074,4.1356,4.1734,4.2202,4.2507,4.2754,4.3063,4.3077,4.3408,4.4164,4.424,4.4614,4.539,4.549,4.5508,4.5535,4.5603,4.5669,4.5691,4.5695,4.5727,4.5795,4.5777,4.5777,4.581,4.5801,4.5805,4.5807,4.5848,4.5892,4.5892,4.5947,4.5999,4.5982,4.5982,4.5982,4.5999,4.5978,4.5953,4.5997,4.6004,4.6015,4.6061,4.6044,4.6035,4.6007,4.5939,4.5898,4.5898,4.5898,4.5944,4.5994,4.598,4.5989,4.6037,4.602,4.6004,4.5982,4.5982,4.6012,4.6037,4.6064,4.6084,4.6142,4.617,4.6181,4.619,4.6197,4.6197,4.6199,4.6206,4.6209,3.3168,3.3106,3.3803,3.4333,3.4739,3.4847,3.4911,3.4911,3.4894,3.4835,3.4637,3.3855,3.3489,3.3481,3.338,3.3526,3.391,3.4494,3.5043,3.5424,3.5538,3.5633,3.5734,3.5959,3.6356,3.6876,3.7245,3.7726,3.8284,3.9035,3.9687,4.0209,4.119,4.1941,4.2418,4.2408,4.2681,4.3142,4.3031,4.2965,4.2957,4.2975,4.3133,4.3483,4.3794,4.4191,4.4612,4.4947,4.5203,4.5393,4.5413,4.5409,4.5419,4.5434,4.5476,4.5494,4.5517,4.5559,4.5603,4.5669,4.5714,4.5735,4.5739,4.5791,4.5893,4.5876,4.5863,4.5851,4.5858,4.5858,4.5871,4.5898,4.5953,4.5955,4.6004,4.6059,4.6039,4.6037,4.6037,4.6056,4.6027,4.6022,4.6037,4.608,4.6098,4.6128,4.613,4.6096,4.6064,4.602,4.5982,4.5997,4.598,4.5991,4.6054,4.5991,4.5978,4.6042,4.5982,4.5958,4.5964,4.5982,4.6032,4.6096,4.6136,4.6131,4.6178,4.6208,4.6211,4.6214,4.6214,4.6213,4.6213,4.6203,4.6204,3.331,3.3285,3.3844,3.4399,3.4859,3.4899,3.4911,3.4911,3.4911,3.4887,3.4835,3.4512,3.437,3.435,3.4096,3.4207,3.46,3.4998,3.5321,3.56,3.5971,3.6068,3.6056,3.666,3.7001,3.7297,3.8446,3.9102,3.933,4.0295,4.1052,4.151,4.2056,4.237,4.2521,4.2825,4.304,4.3104,4.3095,4.3105,4.316,4.316,4.3365,4.3767,4.4042,4.4367,4.4763,4.5047,4.5265,4.5398,4.5409,4.5419,4.549,4.5555,4.5581,4.5605,4.5586,4.5627,4.5693,4.5695,4.5719,4.58,4.5845,4.588,4.5905,4.5953,4.598,4.5983,4.5986,4.5975,4.6005,4.6047,4.6073,4.6071,4.6134,4.6187,4.6181,4.6189,4.6169,4.6189,4.6111,4.6106,4.615,4.6138,4.6134,4.6183,4.6185,4.6183,4.6152,4.6071,4.6002,4.5964,4.5895,4.592,4.6015,4.5893,4.5851,4.595,4.5856,4.5838,4.5911,4.5977,4.603,4.6111,4.6181,4.6191,4.6182,4.6213,4.6201,4.6196,4.6198,4.6201,4.6202,4.6203,4.6199,3.3243,3.3756,3.364,3.4093,3.4835,3.4911,3.4911,3.4911,3.4911,3.4911,3.4887,3.4703,3.457,3.4497,3.4472,3.4546,3.4739,3.5298,3.5571,3.5678,3.6442,3.6774,3.6749,3.7489,3.8054,3.8476,3.9155,3.9788,4.0481,4.1418,4.1965,4.2164,4.2606,4.2892,4.293,4.3078,4.3224,4.3322,4.3287,4.3393,4.3614,4.3545,4.3724,4.4176,4.4362,4.463,4.4994,4.5173,4.5304,4.5404,4.5443,4.5495,4.5564,4.5601,4.5594,4.5594,4.564,4.5686,4.5735,4.5754,4.5799,4.586,4.5893,4.5926,4.6007,4.6056,4.6078,4.6098,4.6056,4.5982,4.6007,4.6049,4.6115,4.6122,4.6174,4.6197,4.6197,4.6197,4.6197,4.6196,4.6165,4.6158,4.6192,4.6185,4.6181,4.6196,4.6197,4.6194,4.619,4.6087,4.601,4.5978,4.5792,4.5765,4.5947,4.5841,4.5819,4.591,4.5838,4.5767,4.5793,4.5944,4.6022,4.6078,4.6155,4.6207,4.6196,4.6201,4.6206,4.6207,4.6207,4.6206,4.6206,4.6233,4.6254,3.4017,3.4232,3.3879,3.4202,3.4935,3.4923,3.4911,3.4911,3.4911,3.4911,3.4887,3.4768,3.4643,3.4594,3.4763,3.4873,3.5033,3.5661,3.6094,3.6344,3.71,3.7494,3.7692,3.8379,3.8992,3.9489,3.9887,4.0589,4.1506,4.2175,4.2588,4.2711,4.305,4.3269,4.3268,4.3269,4.3348,4.3546,4.3531,4.3722,4.4098,4.4069,4.4187,4.4553,4.4637,4.4837,4.523,4.5283,4.5355,4.5443,4.5481,4.5522,4.559,4.5594,4.5599,4.5631,4.5673,4.5734,4.5804,4.5815,4.583,4.5899,4.5923,4.598,4.6078,4.6106,4.6148,4.6187,4.6124,4.6068,4.6068,4.6096,4.6132,4.6136,4.6183,4.6197,4.6197,4.6197,4.6197,4.6197,4.6196,4.6197,4.6197,4.6196,4.6197,4.6197,4.616,4.6146,4.6108,4.598,4.5854,4.5854,4.5611,4.5595,4.5841,4.5713,4.5701,4.574,4.5683,4.5583,4.5642,4.5816,4.5942,4.5958,4.6109,4.6201,4.6182,4.6189,4.6237,4.6238,4.6256,4.6276,4.6221,4.6285,4.6444,3.6273,3.4727,3.4898,3.5022,3.5093,3.4958,3.4911,3.4911,3.4911,3.4911,3.4887,3.478,3.4691,3.4735,3.5068,3.5357,3.5682,3.6178,3.6932,3.7759,3.7871,3.8219,3.8936,3.9415,3.9681,3.9911,4.0767,4.1693,4.2537,4.2664,4.292,4.3304,4.3376,4.3402,4.3454,4.3419,4.3522,4.375,4.3807,4.4042,4.4519,4.4676,4.4714,4.4807,4.4813,4.4992,4.5338,4.5398,4.5433,4.5495,4.5499,4.5527,4.5586,4.5594,4.5616,4.5678,4.5699,4.5743,4.5788,4.5805,4.5838,4.5889,4.5969,4.6022,4.61,4.6154,4.6192,4.6199,4.619,4.6185,4.6185,4.6183,4.619,4.619,4.6194,4.6197,4.6197,4.6197,4.6197,4.6197,4.6197,4.6197,4.6197,4.6197,4.6194,4.616,4.6089,4.6015,4.5966,4.5742,4.5599,4.556,4.5465,4.5391,4.5615,4.5534,4.5452,4.5509,4.5535,4.5381,4.5526,4.5661,4.5752,4.5893,4.6101,4.6198,4.6165,4.6186,4.6267,4.6316,4.645,4.645,4.6583,4.6413,4.6708,3.6338,3.5223,3.5637,3.5545,3.5093,3.4958,3.4911,3.4911,3.4911,3.4911,3.4899,3.4835,3.4984,3.5305,3.5671,3.5786,3.5826,3.6911,3.7654,3.8018,3.884,3.934,3.9489,4.0141,4.0608,4.0899,4.1305,4.1959,4.2779,4.3087,4.3268,4.3367,4.3446,4.3454,4.348,4.3652,4.3852,4.3932,4.4172,4.4474,4.477,4.4878,4.4996,4.5164,4.5175,4.5239,4.5409,4.5429,4.5462,4.5499,4.5527,4.5596,4.5594,4.564,4.569,4.5773,4.5758,4.5784,4.5801,4.5844,4.5902,4.5967,4.6022,4.6096,4.6144,4.6178,4.6203,4.6211,4.6204,4.6199,4.6197,4.6197,4.6197,4.6197,4.6197,4.6197,4.6197,4.6197,4.6197,4.6197,4.6197,4.6197,4.6194,4.6197,4.6158,4.6069,4.6037,4.5972,4.5869,4.5676,4.5556,4.5575,4.5485,4.54,4.5469,4.5395,4.5325,4.5415,4.5419,4.54,4.5471,4.5581,4.5696,4.5759,4.5996,4.6256,4.6266,4.6423,4.6455,4.6616,4.6713,4.7104,4.7138,4.7279,4.7728,3.6856,3.6336,3.6314,3.5897,3.5255,3.5029,3.4958,3.4958,3.4923,3.4977,3.5107,3.5113,3.5373,3.5871,3.6512,3.671,3.6607,3.7784,3.8513,3.8943,3.9879,4.0311,4.0416,4.0931,4.1317,4.1528,4.1832,4.235,4.3032,4.3366,4.3463,4.3446,4.3506,4.3566,4.3632,4.3899,4.4113,4.4297,4.4567,4.4818,4.503,4.5099,4.521,4.5395,4.5438,4.5415,4.5429,4.5462,4.5528,4.5546,4.5609,4.564,4.5637,4.5686,4.5715,4.5777,4.5833,4.5842,4.5841,4.5905,4.5967,4.6022,4.6058,4.6125,4.6195,4.6209,4.6208,4.6196,4.6208,4.6197,4.6197,4.6197,4.6197,4.6197,4.6197,4.6197,4.6197,4.6197,4.6197,4.6197,4.6197,4.6189,4.6146,4.6146,4.6065,4.5956,4.5917,4.5863,4.5775,4.5638,4.5545,4.5582,4.5466,4.5405,4.5443,4.5376,4.5359,4.5424,4.5438,4.54,4.5424,4.5534,4.5644,4.57,4.5928,4.6227,4.6468,4.6638,4.6828,4.7028,4.7502,4.8012,4.8166,4.8398,4.877,3.8008,3.7679,3.6964,3.6187,3.5485,3.5193,3.5105,3.5065,3.497,3.5137,3.5476,3.56,3.5912,3.646,3.7519,3.8066,3.827,3.8773,3.9621,4.0684,4.0815,4.1085,4.1481,4.1681,4.1746,4.1713,4.2478,4.306,4.3453,4.3515,4.3523,4.3532,4.3607,4.3755,4.3989,4.4177,4.4452,4.4751,4.4902,4.508,4.5361,4.539,4.5429,4.5481,4.5495,4.5499,4.5499,4.5504,4.5546,4.5609,4.5672,4.5679,4.5692,4.5704,4.5746,4.5803,4.5863,4.589,4.5911,4.5967,4.6025,4.6082,4.6096,4.615,4.6191,4.6208,4.6206,4.62,4.6209,4.6197,4.6197,4.6197,4.6197,4.6197,4.6199,4.6201,4.6199,4.6199,4.6199,4.6201,4.6197,4.6144,4.6044,4.6008,4.5958,4.5845,4.5761,4.5711,4.5688,4.5556,4.5443,4.5434,4.5429,4.5424,4.5415,4.5419,4.5453,4.5462,4.5434,4.5405,4.5453,4.5549,4.5785,4.59,4.6574,4.6901,4.7375,4.7562,4.7849,4.809,4.8563,4.8858,4.9032,4.9226,4.9599,3.8869,3.7903,3.7504,3.6631,3.5564,3.5303,3.5198,3.51,3.5053,3.5258,3.565,3.6192,3.6814,3.7606,3.8512,3.9378,4.0136,4.0329,4.0584,4.0953,4.1339,4.1637,4.1782,4.1871,4.2126,4.257,4.3205,4.3566,4.3669,4.3721,4.3703,4.3744,4.3916,4.4053,4.4166,4.4579,4.4914,4.5041,4.5258,4.5419,4.5481,4.5514,4.5528,4.5504,4.5555,4.5573,4.5568,4.5553,4.5614,4.5657,4.5693,4.5714,4.575,4.5769,4.581,4.5851,4.588,4.592,4.5972,4.6044,4.608,4.61,4.6142,4.6173,4.6198,4.6209,4.6206,4.62,4.6209,4.6197,4.6197,4.6197,4.6199,4.6197,4.6209,4.6196,4.6198,4.6206,4.6212,4.6207,4.6173,4.6126,4.6047,4.6012,4.5883,4.5759,4.5704,4.5673,4.5573,4.5531,4.5499,4.5517,4.5485,4.5581,4.5701,4.5936,4.611,4.6062,4.5928,4.5928,4.5884,4.594,4.6111,4.6451,4.7091,4.7646,4.8133,4.8458,4.8705,4.901,4.9327,4.9562,4.9738,5.0032,5.0385,3.9237,3.7927,3.7822,3.6897,3.5582,3.5406,3.5343,3.5301,3.5629,3.6,3.6483,3.7332,3.8117,3.8826,3.9608,4.037,4.1099,4.1377,4.1538,4.1563,4.1935,4.2154,4.2144,4.2282,4.2675,4.3241,4.3652,4.3796,4.3796,4.3796,4.3796,4.3835,4.4083,4.4286,4.4381,4.4855,4.5169,4.5258,4.5438,4.5559,4.5531,4.5559,4.5564,4.5535,4.5581,4.559,4.5594,4.5627,4.5667,4.5701,4.571,4.5762,4.5803,4.581,4.5833,4.5893,4.5916,4.5953,4.6027,4.6096,4.614,4.6146,4.6185,4.6206,4.6196,4.6208,4.6206,4.62,4.6208,4.6197,4.6197,4.6206,4.6208,4.6209,4.6198,4.6207,4.6212,4.6202,4.6192,4.617,4.6127,4.6071,4.5964,4.5895,4.577,4.5684,4.5648,4.5641,4.5558,4.5531,4.5568,4.5712,4.5982,4.6078,4.6135,4.6423,4.6784,4.6718,4.6594,4.6681,4.6728,4.6857,4.7028,4.7356,4.7885,4.8391,4.8848,4.9109,4.9373,4.9724,5.0117,5.041,5.0644,5.082,5.1092,3.9271,3.8024,3.799,3.7183,3.5938,3.5841,3.5892,3.5909,3.6661,3.7303,3.787,3.8804,3.9529,4.0058,4.0746,4.1176,4.1306,4.1869,4.2306,4.2487,4.2655,4.2643,4.2586,4.2913,4.332,4.3703,4.3812,4.3829,4.3826,4.3818,4.3812,4.3859,4.4188,4.4404,4.4637,4.5019,4.5327,4.5452,4.5504,4.5535,4.5601,4.5531,4.5531,4.5586,4.559,4.5594,4.5627,4.5669,4.5709,4.5722,4.577,4.5803,4.5816,4.5807,4.5848,4.592,4.5975,4.6049,4.6098,4.6152,4.6173,4.6192,4.6196,4.6204,4.6196,4.6208,4.6178,4.6165,4.6174,4.6185,4.6164,4.6167,4.6158,4.6174,4.62,4.6213,4.6196,4.6177,4.6156,4.6097,4.6082,4.6002,4.5782,4.5734,4.5641,4.5593,4.559,4.5599,4.5599,4.5581,4.5643,4.5951,4.6404,4.6692,4.6812,4.7105,4.7485,4.7822,4.7631,4.7587,4.764,4.7765,4.7983,4.831,4.8695,4.9171,4.9557,4.9878,5.0214,5.0615,5.0996,5.1308,5.1387,5.1367,5.1367,3.9542,3.8717,3.87,3.8159,3.7394,3.7632,3.7706,3.7711,3.8237,3.8695,3.9183,3.9921,4.0512,4.0984,4.1649,4.1994,4.2012,4.22,4.2452,4.2711,4.2967,4.3151,4.325,4.3529,4.3749,4.3875,4.3913,4.3934,4.3934,4.3937,4.3918,4.3966,4.4402,4.4688,4.4806,4.5227,4.5499,4.5568,4.5573,4.5577,4.5586,4.5581,4.5577,4.559,4.5594,4.5631,4.5684,4.5738,4.5773,4.5777,4.5803,4.5812,4.5814,4.5854,4.5908,4.5975,4.6047,4.6098,4.6154,4.6167,4.6196,4.6197,4.6164,4.6199,4.6204,4.6199,4.616,4.6076,4.6052,4.6027,4.6002,4.5997,4.599,4.602,4.613,4.6182,4.6045,4.6059,4.6066,4.5959,4.5933,4.5861,4.5778,4.5696,4.5622,4.559,4.5581,4.5594,4.5594,4.5763,4.5874,4.6413,4.687,4.725,4.7562,4.7855,4.8259,4.8836,4.8808,4.8562,4.8586,4.8629,4.8895,4.9217,4.9664,5.0132,5.0484,5.0784,5.117,5.1264,5.1328,5.1387,5.1387,5.1387,5.1387,3.9673,3.9012,3.9214,3.8884,3.8288,3.8687,3.8851,3.8929,3.9561,3.9954,4.0294,4.1088,4.1573,4.1831,4.221,4.2356,4.23,4.2422,4.2632,4.2957,4.3356,4.3599,4.3724,4.3886,4.3945,4.3953,4.3974,4.3997,4.3997,4.3997,4.3997,4.4094,4.4526,4.4782,4.4843,4.5317,4.5594,4.559,4.5594,4.5594,4.5594,4.5594,4.5607,4.5616,4.5644,4.5688,4.573,4.5785,4.5807,4.5815,4.5805,4.5817,4.5851,4.5867,4.593,4.6025,4.6082,4.6115,4.6181,4.615,4.6108,4.6098,4.6041,4.5988,4.5981,4.6005,4.5941,4.5919,4.5911,4.5911,4.5907,4.5901,4.5876,4.5888,4.6022,4.6084,4.5907,4.5976,4.5957,4.5869,4.5819,4.5775,4.5723,4.5635,4.5612,4.559,4.559,4.5594,4.5614,4.5879,4.6297,4.6889,4.7644,4.8182,4.8625,4.8937,4.9144,4.9682,4.972,4.9504,4.9484,4.9502,4.9755,5.0096,5.0608,5.0937,5.1037,5.1127,5.1199,5.127,5.1356,5.1387,5.1387,5.1387,5.1387,3.9798,3.9207,3.9674,3.9507,3.9089,3.9406,3.9746,3.9836,4.0709,4.1117,4.1338,4.2179,4.2404,4.2514,4.245,4.2435,4.2361,4.2573,4.291,4.3277,4.3672,4.3942,4.3942,4.3966,4.4008,4.3989,4.3997,4.3997,4.3997,4.3997,4.3997,4.414,4.4545,4.477,4.4915,4.5346,4.5573,4.5594,4.5594,4.5599,4.5622,4.5631,4.5648,4.5682,4.5722,4.573,4.5785,4.5803,4.5817,4.5806,4.5819,4.5848,4.5902,4.5908,4.5969,4.6037,4.6049,4.6058,4.6119,4.6039,4.5964,4.595,4.5806,4.571,4.577,4.579,4.5787,4.5803,4.577,4.5815,4.5832,4.5854,4.5838,4.5791,4.5828,4.5878,4.587,4.5875,4.5858,4.5791,4.5782,4.5708,4.5639,4.5594,4.5594,4.5594,4.5652,4.5763,4.5975,4.6336,4.6874,4.7528,4.8355,4.9264,4.9673,5.0062,5.0235,5.05,5.0431,5.031,5.0328,5.0385,5.0604,5.0866,5.0884,5.0941,5.0999,5.1075,5.1178,5.1263,5.1336,5.1367,5.1387,5.1387,5.1387,4.0561,4.0442,4.0918,4.1016,4.0964,4.1371,4.1558,4.1589,4.2168,4.2358,4.2495,4.2702,4.2678,4.2598,4.2558,4.2528,4.2624,4.2741,4.2977,4.3529,4.3828,4.3997,4.4013,4.402,4.4005,4.4005,4.3997,4.3997,4.3997,4.3997,4.3997,4.4079,4.4511,4.4794,4.4872,4.5317,4.5594,4.5594,4.5594,4.5612,4.5657,4.5665,4.5686,4.5726,4.5762,4.5785,4.5803,4.5834,4.5858,4.5861,4.588,4.587,4.5889,4.5905,4.5936,4.5993,4.5897,4.5874,4.5972,4.5874,4.5773,4.5767,4.5729,4.572,4.5786,4.5769,4.5752,4.5731,4.5729,4.57,4.5688,4.5676,4.5684,4.5661,4.5673,4.57,4.5696,4.5766,4.5778,4.5677,4.5647,4.5637,4.5599,4.5594,4.5594,4.5594,4.5768,4.5975,4.6398,4.6898,4.7547,4.8272,4.8984,4.9807,5.0143,5.0461,5.059,5.0758,5.0785,5.0793,5.081,5.0823,5.0863,5.0884,5.0905,5.0937,5.0993,5.1106,5.1209,5.1278,5.1328,5.1367,5.1387,5.1387,5.1387,4.1128,4.1174,4.1641,4.1835,4.1909,4.232,4.2527,4.2557,4.2787,4.291,4.29,4.2853,4.2872,4.292,4.29,4.2939,4.3032,4.3168,4.3466,4.39,4.4154,4.4207,4.4128,4.4131,4.4097,4.402,4.3997,4.3997,4.3997,4.3997,4.3997,4.4041,4.4519,4.477,4.4885,4.5332,4.5573,4.5594,4.5594,4.5616,4.5673,4.5682,4.5718,4.575,4.5792,4.5814,4.5805,4.5861,4.5845,4.5828,4.5874,4.5889,4.5873,4.5851,4.5854,4.5862,4.5809,4.5737,4.5793,4.5715,4.5611,4.5615,4.5583,4.5581,4.5602,4.5614,4.5603,4.5598,4.5605,4.5603,4.5599,4.5599,4.5594,4.5594,4.5594,4.5622,4.5652,4.5695,4.5688,4.5612,4.5603,4.5603,4.5594,4.5661,4.5984,4.6157,4.6384,4.6615,4.7475,4.7961,4.8475,4.912,4.9694,5.0238,5.054,5.0708,5.0726,5.0816,5.0838,5.0848,5.0873,5.0877,5.0905,5.0901,5.0917,5.0961,5.1034,5.1135,5.1232,5.1286,5.1348,5.1367,5.1387,5.1387,5.1387,4.1602,4.1635,4.2115,4.23,4.2378,4.2729,4.2891,4.2882,4.291,4.2939,4.2985,4.2985,4.3151,4.332,4.3363,4.3406,4.355,4.3783,4.4056,4.4259,4.4376,4.4401,4.4344,4.4296,4.4252,4.4064,4.402,4.4005,4.3997,4.3997,4.3997,4.4102,4.4545,4.477,4.4927,4.5312,4.5594,4.5594,4.5607,4.5648,4.5694,4.5706,4.575,4.5788,4.5801,4.5816,4.5807,4.5822,4.5815,4.5723,4.5784,4.5809,4.5796,4.5745,4.5677,4.5696,4.5653,4.5638,4.5646,4.5566,4.5473,4.5493,4.5443,4.5404,4.5429,4.5452,4.5494,4.5512,4.5544,4.5577,4.559,4.5594,4.5594,4.5594,4.5599,4.564,4.5684,4.5629,4.5633,4.5625,4.5625,4.564,4.5744,4.5868,4.6313,4.6747,4.6979,4.7429,4.8289,4.8876,4.929,4.9719,5.023,5.0456,5.072,5.0804,5.084,5.0844,5.0884,5.0885,5.0909,5.0905,5.0909,5.0925,5.0944,5.101,5.1084,5.1189,5.1261,5.1317,5.1348,5.1387,5.1387,5.1387,5.1387,4.2095,4.2126,4.2577,4.2787,4.2797,4.2863,4.2901,4.291,4.2947,4.3069,4.3301,4.3328,4.3474,4.3683,4.3732,4.3794,4.3958,4.4203,4.4371,4.4454,4.4503,4.4508,4.4487,4.4473,4.4426,4.4347,4.4181,4.4044,4.4036,4.3997,4.4059,4.414,4.4545,4.4801,4.4967,4.5288,4.5594,4.5616,4.5657,4.569,4.5711,4.5746,4.5781,4.5801,4.5789,4.5786,4.577,4.5743,4.5736,4.5756,4.5591,4.5526,4.5554,4.5548,4.5583,4.5607,4.5494,4.5442,4.5494,4.5419,4.539,4.5404,4.5414,4.5443,4.5467,4.5481,4.5508,4.5559,4.5577,4.5586,4.559,4.5599,4.5594,4.5603,4.5648,4.5693,4.569,4.5756,4.5796,4.5853,4.5799,4.5812,4.6052,4.6426,4.702,4.7506,4.7835,4.8377,4.9191,4.9566,4.9783,5.0203,5.0662,5.0761,5.0863,5.0873,5.0878,5.0889,5.0897,5.0897,5.0894,5.0898,5.0906,5.0914,5.0979,5.1042,5.1135,5.1229,5.1288,5.1337,5.1367,5.1387,5.1387,5.1387,5.1387,4.2632,4.2595,4.2899,4.2965,4.2919,4.291,4.2995,4.3142,4.3169,4.3354,4.3582,4.3673,4.3841,4.4057,4.4117,4.4198,4.4372,4.45,4.4599,4.4605,4.4653,4.4666,4.4612,4.4599,4.4544,4.4468,4.4332,4.4248,4.4266,4.4255,4.4233,4.4357,4.4668,4.4875,4.5019,4.5318,4.5562,4.5642,4.5683,4.573,4.5735,4.5772,4.5786,4.5786,4.5742,4.5696,4.5688,4.5634,4.5566,4.5516,4.5459,4.5419,4.54,4.54,4.5428,4.546,4.5371,4.5334,4.5429,4.5375,4.5384,4.5404,4.5424,4.5462,4.5495,4.5522,4.5568,4.5586,4.5594,4.5594,4.5594,4.5635,4.5648,4.5637,4.5705,4.5757,4.5854,4.6132,4.631,4.6426,4.6526,4.6618,4.6594,4.7085,4.7764,4.8259,4.8657,4.9302,5.004,5.0183,5.0269,5.0481,5.0829,5.0857,5.0877,5.0897,5.0898,5.0898,5.0898,5.0898,5.0898,5.0898,5.0898,5.0902,5.0981,5.1069,5.1149,5.1227,5.1297,5.1367,5.1387,5.1387,5.1387,5.1387,5.1387,4.305,4.2975,4.3077,4.3058,4.2957,4.3013,4.3178,4.338,4.3483,4.3689,4.3981,4.402,4.4191,4.443,4.4523,4.4589,4.4732,4.4744,4.4744,4.4764,4.4821,4.484,4.4757,4.4738,4.4705,4.4639,4.4599,4.4563,4.4454,4.4447,4.4475,4.4537,4.4745,4.4936,4.509,4.5332,4.553,4.5639,4.5712,4.5754,4.5746,4.5753,4.5734,4.5715,4.5598,4.5558,4.5558,4.5469,4.5405,4.5352,4.5323,4.5332,4.5304,4.5283,4.5283,4.5302,4.5312,4.5348,4.5389,4.5409,4.5404,4.5434,4.5457,4.5499,4.5522,4.5568,4.559,4.5594,4.5594,4.5594,4.5599,4.5652,4.5673,4.5767,4.5877,4.6055,4.6341,4.6723,4.7256,4.7357,4.7411,4.748,4.7519,4.7971,4.8693,4.9041,4.9439,4.9864,5.051,5.0619,5.0704,5.0766,5.0886,5.0886,5.0909,5.0905,5.0898,5.0898,5.0898,5.0898,5.0898,5.0898,5.0902,5.0914,5.0972,5.1065,5.1138,5.1239,5.1328,5.1387,5.1387,5.1387,5.1387,5.1387,5.1387,4.3169,4.3178,4.3196,4.3151,4.3114,4.3391,4.3467,4.3464,4.3754,4.4016,4.4348,4.4374,4.4537,4.4751,4.4802,4.4846,4.4858,4.4871,4.4846,4.4852,4.4877,4.4883,4.4864,4.487,4.484,4.4789,4.4808,4.4712,4.4592,4.4537,4.451,4.4585,4.4776,4.4925,4.5038,4.5296,4.5499,4.5553,4.568,4.5719,4.5653,4.5644,4.5567,4.5493,4.5433,4.5419,4.5405,4.5317,4.5255,4.5273,4.5172,4.52,4.5262,4.5283,4.5283,4.5317,4.5348,4.5375,4.54,4.5415,4.5438,4.5481,4.5499,4.5527,4.5568,4.5581,4.5594,4.5594,4.5594,4.5695,4.5742,4.5738,4.5716,4.61,4.6572,4.6812,4.7063,4.7658,4.8156,4.8489,4.8589,4.8555,4.8543,4.9088,4.9595,4.9885,5.0194,5.0581,5.0832,5.0879,5.0898,5.0898,5.0898,5.0898,5.0898,5.0898,5.0898,5.0898,5.0898,5.0898,5.0898,5.0902,5.0917,5.0944,5.1004,5.1081,5.1172,5.1278,5.136,5.1387,5.1387,5.1387,5.1387,5.1387,5.1387,4.3295,4.3214,4.3434,4.3502,4.3495,4.3772,4.3921,4.4054,4.4227,4.4452,4.4694,4.4745,4.4814,4.4895,4.4895,4.4889,4.4895,4.4895,4.4895,4.4895,4.4895,4.4895,4.4889,4.4895,4.4895,4.4895,4.4889,4.4846,4.4744,4.4706,4.4712,4.4744,4.4846,4.4973,4.5028,4.5251,4.5366,4.5453,4.554,4.5563,4.5571,4.5528,4.5452,4.5405,4.5322,4.5297,4.5262,4.5211,4.5173,4.5208,4.5162,4.5197,4.5262,4.5302,4.5312,4.5367,4.5388,4.5409,4.5419,4.5429,4.549,4.5527,4.554,4.5573,4.559,4.5594,4.5594,4.5594,4.5594,4.5819,4.6254,4.6407,4.6749,4.7113,4.7476,4.7654,4.8017,4.8686,4.92,4.949,4.9726,4.9606,4.9568,4.9892,5.0221,5.0357,5.0511,5.0705,5.0879,5.0898,5.0898,5.0898,5.0898,5.0898,5.0898,5.0898,5.0898,5.0898,5.0898,5.0898,5.0898,5.0906,5.0929,5.1014,5.1089,5.117,5.1229,5.1291,5.1359,5.1367,5.1387,5.1387,5.1387,5.1387,5.1387,4.3539,4.3426,4.3718,4.3847,4.3865,4.415,4.4357,4.4501,4.4656,4.4833,4.4979,4.5022,4.4979,4.4955,4.4949,4.4962,4.4919,4.4938,4.4907,4.4901,4.4895,4.4895,4.4895,4.4895,4.4895,4.4895,4.4895,4.4877,4.4883,4.4877,4.4864,4.4895,4.4877,4.4961,4.5091,4.5197,4.5274,4.5405,4.5471,4.5479,4.548,4.5395,4.5336,4.5281,4.521,4.5162,4.5162,4.5145,4.5142,4.5186,4.5197,4.5238,4.5291,4.5302,4.5312,4.5353,4.5403,4.5409,4.5429,4.5448,4.5522,4.5577,4.5594,4.559,4.559,4.5594,4.5796,4.5977,4.602,4.6465,4.7005,4.7301,4.7522,4.7979,4.8458,4.8612,4.8836,4.9451,4.9916,5.0128,5.036,5.0554,5.0569,5.0724,5.084,5.0859,5.0902,5.0914,5.0921,5.0929,5.0952,5.0963,5.0944,5.094,5.0933,5.0929,5.0917,5.0898,5.0898,5.0898,5.0898,5.0925,5.0955,5.1049,5.1167,5.122,5.1251,5.1297,5.1328,5.1367,5.1387,5.1387,5.1387,5.1387,5.1387,4.3958,4.3958,4.3978,4.4113,4.4256,4.4621,4.4682,4.4663,4.4929,4.5055,4.5091,4.5097,4.5091,4.5061,4.5043,4.5045,4.5004,4.4985,4.4955,4.4925,4.4895,4.4907,4.4907,4.4907,4.4901,4.492,4.4895,4.4895,4.4901,4.4913,4.4901,4.4895,4.4901,4.4926,4.4992,4.5108,4.5243,4.5371,4.5442,4.541,4.5336,4.5227,4.5186,4.5078,4.5043,4.5038,4.5095,4.5125,4.5148,4.5203,4.5208,4.5224,4.5291,4.5277,4.5312,4.5328,4.5375,4.5395,4.5434,4.5457,4.5527,4.5577,4.5594,4.5667,4.5821,4.5691,4.5958,4.6686,4.6806,4.7279,4.7841,4.8225,4.8361,4.8833,4.9316,4.9521,4.9742,5.0148,5.0569,5.0763,5.0859,5.0898,5.0917,5.0921,5.0937,5.094,5.0974,5.0965,5.0972,5.0986,5.1014,5.102,5.099,5.0979,5.0988,5.0966,5.0914,5.0898,5.0898,5.0898,5.0898,5.0937,5.099,5.1081,5.1178,5.1241,5.1287,5.1333,5.1367,5.1387,5.1387,5.1387,5.1387,5.1387,5.1387,4.4196,4.4491,4.4498,4.4526,4.4624,4.4966,4.5061,4.5013,4.5145,4.5192,4.5159,4.5164,4.5142,4.5101,4.5103,4.5097,4.5055,4.5068,4.5045,4.5026,4.5014,4.4991,4.4992,4.4974,4.4974,4.4968,4.4925,4.4949,4.5033,4.4973,4.501,4.5004,4.4943,4.4901,4.4943,4.5038,4.5189,4.5286,4.5312,4.525,4.5296,4.5167,4.5114,4.5061,4.5114,4.5131,4.517,4.5222,4.5249,4.5259,4.5265,4.5281,4.5297,4.5297,4.5283,4.5307,4.5365,4.539,4.5438,4.5495,4.5573,4.5581,4.5629,4.5821,4.6287,4.6405,4.6851,4.7381,4.7754,4.815,4.8886,4.9138,4.9304,4.9792,5.0097,5.0299,5.0473,5.0743,5.084,5.0859,5.0879,5.0898,5.0925,5.0929,5.0947,5.0965,5.1,5.1027,5.1034,5.103,5.105,5.1043,5.1007,5.0969,5.0977,5.094,5.0902,5.0898,5.0898,5.0898,5.0914,5.101,5.1068,5.1152,5.1214,5.126,5.1332,5.1365,5.1387,5.1387,5.1387,5.1387,5.1387,5.1387,5.1387,4.4381,4.4807,4.4897,4.4933,4.4975,4.5194,4.5281,4.5235,4.5281,4.5267,4.5224,4.5219,4.5203,4.517,4.5145,4.5148,4.5142,4.5131,4.5101,4.5084,4.5085,4.5074,4.5032,4.502,4.5039,4.5009,4.4991,4.5033,4.5085,4.5057,4.5062,4.5057,4.5009,4.4973,4.4985,4.5061,4.5167,4.5186,4.5223,4.5143,4.5215,4.5162,4.5131,4.5112,4.517,4.5197,4.5219,4.527,4.5286,4.5291,4.5297,4.5277,4.5277,4.5283,4.5283,4.5323,4.5369,4.5404,4.5458,4.5513,4.5725,4.6033,4.6071,4.6518,4.7017,4.7317,4.769,4.8484,4.8683,4.9021,4.983,5.0016,5.0097,5.0469,5.0546,5.0685,5.0705,5.0879,5.0879,5.0898,5.0914,5.0948,5.0976,5.101,5.1037,5.1043,5.1047,5.1066,5.1072,5.1066,5.1056,5.1037,5.0997,5.0961,5.094,5.0917,5.0902,5.0898,5.0898,5.0898,5.094,5.1024,5.1108,5.1168,5.1228,5.1307,5.1348,5.1387,5.1387,5.1387,5.1387,5.1387,5.1387,5.1387,5.1387,4.4553,4.4837,4.5137,4.5262,4.5251,4.5272,4.5297,4.5272,4.5297,4.5277,4.5291,4.5291,4.5291,4.5281,4.5251,4.5249,4.5203,4.5192,4.5175,4.5142,4.5142,4.5114,4.5103,4.5084,4.5103,4.5103,4.5085,4.508,4.512,4.5108,4.5114,4.512,4.5114,4.5078,4.5101,4.5229,4.5229,4.5151,4.5244,4.5213,4.5167,4.5129,4.5164,4.5192,4.5227,4.5235,4.5281,4.5291,4.5283,4.5298,4.5317,4.5317,4.5309,4.5309,4.5309,4.5328,4.5375,4.5438,4.5472,4.5565,4.6158,4.6759,4.6855,4.7273,4.7933,4.8253,4.8564,4.9378,4.9578,4.995,5.0457,5.0801,5.0821,5.084,5.0879,5.0898,5.0898,5.0902,5.0902,5.0929,5.0961,5.1004,5.105,5.109,5.112,5.1122,5.1086,5.1083,5.1108,5.1074,5.1075,5.105,5.1014,5.0983,5.0951,5.0925,5.0902,5.0902,5.0906,5.0917,5.0965,5.1059,5.1137,5.1197,5.1274,5.1339,5.1367,5.1387,5.1387,5.1387,5.1387,5.1387,5.1387,5.1387,5.1387,4.4707,4.5132,4.5251,4.5283,4.5283,4.5283,4.5283,4.5283,4.5283,4.5283,4.5283,4.5283,4.5283,4.5283,4.5277,4.5286,4.5275,4.5251,4.523,4.5224,4.5213,4.5192,4.5181,4.5164,4.5164,4.5153,4.5136,4.5159,4.5249,4.5186,4.5197,4.5233,4.5203,4.5203,4.5186,4.5221,4.5224,4.5235,4.5264,4.5283,4.523,4.5243,4.5249,4.5275,4.5275,4.5272,4.5293,4.5298,4.5309,4.5353,4.5359,4.5369,4.5375,4.5366,4.5366,4.5375,4.5443,4.5816,4.6354,4.6865,4.7355,4.7644,4.7778,4.8115,4.8845,4.9028,4.9573,5.0113,5.0317,5.0588,5.0821,5.0859,5.0879,5.0879,5.0898,5.0898,5.0898,5.0902,5.091,5.0947,5.0997,5.1075,5.1128,5.1134,5.1155,5.1153,5.1131,5.1139,5.1145,5.1114,5.1071,5.1072,5.1043,5.1017,5.0979,5.0944,5.0906,5.0902,5.0925,5.0959,5.1004,5.1081,5.1155,5.1252,5.1303,5.1367,5.1387,5.1387,5.1387,5.1387,5.1387,5.1387,5.1387,5.1387,5.1387,4.4838,4.5297,4.5324,4.5319,4.5307,4.5283,4.5283,4.5283,4.5283,4.5283,4.5283,4.5283,4.5283,4.5283,4.5283,4.5283,4.5283,4.5283,4.5283,4.5283,4.5277,4.5251,4.5254,4.5243,4.5243,4.5213,4.5197,4.5213,4.5286,4.5246,4.5246,4.5286,4.5277,4.5275,4.5254,4.5259,4.527,4.5267,4.5288,4.5283,4.5297,4.5312,4.5347,4.5338,4.5348,4.5345,4.5345,4.535,4.5355,4.5404,4.5419,4.5409,4.5419,4.541,4.541,4.5419,4.5851,4.6536,4.7625,4.8162,4.8633,4.9061,4.8773,4.9014,4.9653,4.9918,5.0192,5.0621,5.0851,5.0886,5.0898,5.0898,5.0898,5.0898,5.0898,5.0898,5.0914,5.0914,5.0959,5.099,5.1069,5.1139,5.1184,5.1198,5.1203,5.1168,5.1153,5.1161,5.1166,5.1131,5.1086,5.1074,5.1066,5.1027,5.0983,5.0948,5.0917,5.0902,5.094,5.0965,5.1053,5.1127,5.1199,5.1288,5.1337,5.1387,5.1387,5.1387,5.1387,5.1387,5.1387,5.1387,5.1387,5.1387,5.1387,4.4899,4.5283,4.5385,4.5366,4.5317,4.5298,4.5293,4.5302,4.5283,4.5283,4.5283,4.5283,4.5283,4.5283,4.5283,4.5283,4.5283,4.5283,4.5283,4.5283,4.5283,4.5291,4.5291,4.5291,4.5281,4.5291,4.5267,4.5251,4.5302,4.5267,4.5272,4.5283,4.5283,4.5291,4.5286,4.5297,4.5307,4.5317,4.5317,4.5328,4.5343,4.5369,4.5384,4.5399,4.5395,4.5395,4.54,4.5405,4.5395,4.5405,4.541,4.541,4.5415,4.5415,4.5415,4.5721,4.6393,4.7804,4.8797,4.9228,4.9738,5.0046,4.9764,5.0089,5.0357,5.0565,5.0677,5.0777,5.0886,5.0894,5.0898,5.0898,5.0898,5.0898,5.0898,5.091,5.0929,5.0959,5.099,5.1059,5.1142,5.1215,5.1243,5.1245,5.1203,5.1171,5.1153,5.1136,5.1136,5.1147,5.1111,5.1103,5.1087,5.1037,5.0993,5.0977,5.0925,5.091,5.0947,5.1,5.1092,5.118,5.1256,5.1326,5.1363,5.1387,5.1387,5.1387,5.1387,5.1387,5.1387,5.1387,5.1387,5.1387,5.1387,4.5126,4.5375,4.539,4.539,4.538,4.538,4.5355,4.5307,4.5283,4.5283,4.5283,4.5283,4.5307,4.5283,4.5283,4.5283,4.5283,4.5283,4.5283,4.5283,4.5283,4.5283,4.5302,4.5302,4.5302,4.5302,4.5302,4.5307,4.5302,4.5302,4.5302,4.5283,4.5298,4.5293,4.5317,4.5357,4.5353,4.5364,4.5364,4.536,4.538,4.539,4.5419,4.541,4.5424,4.5419,4.5419,4.5419,4.5429,4.5476,4.5476,4.549,4.555,4.5569,4.5694,4.6604,4.7738,4.9022,4.9491,5.0076,5.0505,5.0678,5.0453,5.052,5.0743,5.0827,5.0876,5.0885,5.0909,5.0898,5.0898,5.0898,5.0898,5.0898,5.0906,5.0925,5.0948,5.0983,5.1037,5.1131,5.1225,5.1232,5.1258,5.1232,5.119,5.1163,5.1153,5.1131,5.1125,5.1122,5.1159,5.1155,5.1136,5.1096,5.1053,5.102,5.0954,5.091,5.0954,5.1027,5.1128,5.1222,5.129,5.1348,5.1387,5.1387,5.1387,5.1387,5.1387,5.1387,5.1387,5.1387,5.1387,5.1387,5.1387,4.5237,4.5405,4.5452,4.5452,4.5453,4.541,4.5366,4.5355,4.533,4.535,4.5345,4.5348,4.5333,4.5333,4.5312,4.5283,4.5283,4.5283,4.5283,4.5283,4.5288,4.5283,4.5302,4.5323,4.5338,4.5333,4.5352,4.5343,4.5333,4.5333,4.5338,4.5338,4.5334,4.5334,4.5359,4.537,4.5409,4.5414,4.5414,4.5405,4.5419,4.5424,4.5434,4.5438,4.5467,4.5481,4.5481,4.5481,4.5504,4.5531,4.5559,4.5586,4.5759,4.5941,4.6863,4.778,4.8666,4.9566,5.0055,5.0486,5.0765,5.0851,5.0836,5.0829,5.081,5.0861,5.0892,5.0913,5.0909,5.0898,5.0898,5.0898,5.0898,5.0898,5.0917,5.0937,5.0969,5.102,5.1108,5.1193,5.1243,5.1243,5.1232,5.1201,5.1175,5.1139,5.1139,5.1145,5.1147,5.1158,5.1206,5.123,5.1191,5.1163,5.112,5.1063,5.0993,5.0932,5.0929,5.1014,5.1144,5.1242,5.1285,5.1348,5.1387,5.1387,5.1387,5.1387,5.1387,5.1387,5.1387,5.1387,5.1387,5.1387,5.1387,4.5293,4.5448,4.5535,4.5544,4.5504,4.5443,4.5424,4.5415,4.5419,4.541,4.539,4.5414,4.5389,4.5384,4.5339,4.5319,4.5324,4.5324,4.5324,4.5298,4.5319,4.5324,4.5329,4.5345,4.537,4.5394,4.5408,4.5389,4.5394,4.5394,4.5394,4.5413,4.5409,4.5385,4.5404,4.541,4.5443,4.5462,4.5457,4.5457,4.5462,4.5481,4.5508,4.5513,4.5555,4.5586,4.5586,4.559,4.5594,4.5612,4.5648,4.5693,4.6137,4.691,4.8103,4.8891,4.9547,5.0023,5.0465,5.0795,5.0846,5.0897,5.0897,5.0878,5.0893,5.0885,5.0893,5.0901,5.0898,5.0898,5.0898,5.0898,5.0898,5.0914,5.0933,5.0958,5.102,5.1081,5.1161,5.1236,5.123,5.123,5.1198,5.1188,5.1188,5.1134,5.1134,5.1153,5.1176,5.1193,5.1234,5.1284,5.125,5.1198,5.1139,5.1084,5.102,5.0976,5.0954,5.1024,5.1152,5.1216,5.1273,5.1328,5.1387,5.1387,5.1387,5.1387,5.1387,5.1387,5.1387,5.1387,5.1387,5.1387,5.1387,4.5517,4.554,4.5581,4.5601,4.5558,4.5564,4.5559,4.5559,4.554,4.5495,4.541,4.5415,4.541,4.54,4.5385,4.5375,4.538,4.5366,4.5385,4.538,4.5375,4.5366,4.5361,4.5395,4.541,4.5405,4.5405,4.5424,4.541,4.5405,4.5405,4.5405,4.541,4.5424,4.5429,4.5438,4.5495,4.5513,4.5522,4.5546,4.5555,4.5559,4.5577,4.5577,4.5594,4.5594,4.5594,4.5599,4.5635,4.568,4.5673,4.6026,4.6676,4.8077,4.8985,4.9604,5.0172,5.0552,5.0738,5.0889,5.0897,5.0901,5.0913,5.0898,5.0894,5.0909,5.0909,5.0898,5.0906,5.0906,5.0906,5.0906,5.0914,5.0933,5.094,5.1007,5.1069,5.1142,5.123,5.123,5.122,5.1206,5.1176,5.1174,5.1171,5.119,5.1193,5.1208,5.1239,5.1258,5.1254,5.1292,5.1294,5.1245,5.1168,5.1105,5.1043,5.1017,5.1,5.1086,5.1169,5.125,5.1328,5.1348,5.1387,5.1387,5.1387,5.1387,5.1387,5.1387,5.1387,5.1387,5.1387,5.1387,5.1387,4.5594,4.5594,4.5594,4.5594,4.5594,4.5594,4.5594,4.5594,4.5594,4.5564,4.5495,4.5452,4.5438,4.5434,4.5419,4.541,4.541,4.5405,4.5395,4.5405,4.5415,4.54,4.5415,4.5434,4.5438,4.5457,4.5457,4.5462,4.5443,4.5438,4.5457,4.5462,4.5471,4.5476,4.5471,4.5504,4.555,4.5535,4.5581,4.5622,4.5631,4.5627,4.5594,4.5594,4.5594,4.5603,4.562,4.5625,4.565,4.5899,4.6097,4.7194,4.8013,4.901,4.9671,5.0166,5.06,5.0897,5.0913,5.0902,5.0906,5.0906,5.0902,5.0906,5.0914,5.0929,5.0921,5.0933,5.0963,5.0966,5.0936,5.0932,5.0974,5.0999,5.102,5.1075,5.1122,5.119,5.1239,5.1278,5.1232,5.1166,5.1163,5.1201,5.1201,5.1191,5.1215,5.1236,5.1286,5.13,5.13,5.13,5.13,5.1258,5.1184,5.1122,5.1063,5.1047,5.1024,5.112,5.123,5.1308,5.1387,5.1387,5.1387,5.1387,5.1387,5.1387,5.1387,5.1387,5.1387,5.1387,5.1387,5.1387,5.1387,4.5594,4.5594,4.5594,4.5594,4.5594,4.5594,4.5594,4.5594,4.5594,4.5594,4.5601,4.5541,4.5508,4.5495,4.5452,4.5434,4.5434,4.5452,4.5438,4.5438,4.5438,4.5471,4.5481,4.549,4.5504,4.5508,4.5513,4.5513,4.5513,4.5508,4.5513,4.5541,4.5555,4.5568,4.5555,4.5564,4.5586,4.5586,4.5622,4.5648,4.5648,4.5648,4.562,4.5612,4.5616,4.5652,4.5678,4.5675,4.5695,4.6368,4.6982,4.8114,4.9003,4.9745,5.0171,5.0639,5.0774,5.0913,5.0902,5.0921,5.0925,5.0925,5.0921,5.0933,5.0952,5.0963,5.0958,5.0972,5.1,5.1007,5.0997,5.1,5.1024,5.1047,5.1093,5.1136,5.1193,5.1218,5.1265,5.1292,5.1232,5.1158,5.1166,5.1206,5.1218,5.1205,5.1241,5.1265,5.13,5.13,5.13,5.13,5.13,5.125,5.1179,5.1136,5.1075,5.1004,5.0984,5.1138,5.1269,5.1328,5.1387,5.1387,5.1387,5.1387,5.1387,5.1387,5.1387,5.1387,5.1387,5.1387,5.1387,5.1387,5.1387,4.5594,4.5594,4.5594,4.5594,4.5594,4.5594,4.5594,4.5594,4.5594,4.5594,4.559,4.5586,4.5577,4.5558,4.5573,4.554,4.5522,4.5527,4.554,4.5568,4.5527,4.5555,4.5559,4.5555,4.5592,4.5573,4.5573,4.5577,4.5568,4.5568,4.5577,4.5577,4.5577,4.5586,4.5586,4.5594,4.5622,4.5631,4.5657,4.5701,4.5701,4.5686,4.5675,4.5664,4.568,4.5688,4.5692,4.5692,4.6163,4.7048,4.8184,4.9111,4.9761,5.0264,5.0631,5.077,5.0906,5.0917,5.0929,5.097,5.0988,5.0983,5.0997,5.1018,5.105,5.1056,5.1066,5.1069,5.1084,5.1081,5.1078,5.1087,5.1125,5.1136,5.1167,5.1211,5.1248,5.1248,5.1276,5.125,5.1223,5.1184,5.1189,5.1225,5.1236,5.1248,5.1263,5.13,5.13,5.13,5.13,5.13,5.13,5.1203,5.112,5.1128,5.1072,5.099,5.0981,5.1123,5.124,5.1333,5.1367,5.1387,5.1387,5.1387,5.1387,5.1387,5.1387,5.1387,5.1387,5.1387,5.1387,5.1387,5.1387]}]]